[[{"header":{"parameterUnit":"m.s-1","parameterCategory":1,"la1":30.6,"la2":28.766,"lo1":-90.7593,"lo2":-88.6598,"dy":0.0162,"dx":0.0183,"nx":116,"ny":114,"refTime":"2023-08-29T12:00:00:Z","depth":0,"parameterNumber":2,"parameterNumberName":"U-component_of_WINDS"},"data":[0.0,0.0,0.0,0.0,0.0,0.0,0.0,0.0,0.0,0.0,0.0,0.0,0.0,0.0,0.0,0.0,0.0,0.0,0.0,0.0,0.0,0.0,0.0,0.0,0.0,0.0,0.0,0.0,0.0,0.0,0.0,0.0,0.0,0.0,0.0,0.0,0.0,0.0,0.0,0.0,0.0,0.0,0.0,0.0,0.0,0.0,0.0,0.0,0.0,0.0,0.0,0.0,0.0,0.0,0.0,0.0,0.0,0.0,0.0,0.0,0.0,0.0,0.0,0.0,0.0,0.0,0.0,0.0,0.0,0.0,0.0,0.0,0.0,0.0,0.0,0.0,0.0,0.0,0.0,0.0,0.0,0.0,0.0,0.0,0.0,0.0,0.0,0.0,0.0,0.0,0.0,0.0,0.0,0.0,0.0,0.0,0.0,0.0,0.0,0.0,0.0,0.0,0.0,0.0,0.0,0.0,0.0,0.0,0.0,0.0,0.0,0.0,0.0,0.0,0.0,0.0,0.0,0.0,0.0,0.0,0.0,0.0,0.0,0.0,0.0,0.0,0.0,0.0,0.0,0.0,0.0,0.0,0.0,0.0,0.0,0.0,0.0,0.0,0.0,0.0,0.0,0.0,0.0,0.0,0.0,0.0,0.0,0.0,0.0,0.0,0.0,0.0,0.0,0.0,0.0,0.0,0.0,0.0,0.0,0.0,0.0,0.0,0.0,0.0,0.0,0.0,0.0,0.0,0.0,0.0,0.0,0.0,0.0,0.0,0.0,0.0,0.0,0.0,0.0,0.0,0.0,0.0,0.0,0.0,0.0,0.0,0.0,0.0,0.0,0.0,0.0,0.0,0.0,0.0,0.0,0.0,0.0,0.0,0.0,0.0,0.0,0.0,0.0,0.0,0.0,0.0,0.0,0.0,0.0,0.0,0.0,0.0,0.0,0.0,0.0,0.0,0.0,0.0,0.0,0.0,0.0,0.0,0.0,0.0,0.0,0.0,0.0,0.0,0.0,0.0,0.0,0.0,0.0,0.0,0.0,0.0,0.0,0.0,0.0,0.0,0.0,0.0,0.0,0.0,0.0,0.0,0.0,0.0,0.0,0.0,0.0,0.0,0.0,0.0,0.0,0.0,0.0,0.0,0.0,0.0,0.0,0.0,0.0,0.0,0.0,0.0,0.0,0.0,0.0,0.0,0.0,0.0,0.0,0.0,0.0,0.0,0.0,0.0,0.0,0.0,0.0,0.0,0.0,0.0,0.0,0.0,0.0,0.0,0.0,0.0,0.0,0.0,0.0,0.0,0.0,0.0,0.0,0.0,0.0,0.0,0.0,0.0,0.0,0.0,0.0,0.0,0.0,0.0,0.0,0.0,0.0,0.0,0.0,0.0,0.0,0.0,0.0,0.0,0.0,0.0,0.0,0.0,0.0,0.0,0.0,0.0,0.0,0.0,0.0,0.0,0.0,0.0,0.0,0.0,0.0,0.0,0.0,0.0,0.0,0.0,0.0,0.0,0.0,0.0,0.0,0.0,0.0,0.0,0.0,0.0,0.0,0.0,0.0,0.0,0.0,0.0,0.0,0.0,0.0,0.0,0.0,0.0,0.0,0.0,0.0,0.0,0.0,0.0,0.0,0.0,0.0,0.0,0.0,0.0,0.0,0.0,0.0,0.0,0.0,0.0,0.0,0.0,0.0,0.0,0.0,0.0,0.0,0.0,0.0,0.0,0.0,0.0,0.0,0.0,0.0,0.0,0.0,0.0,0.0,0.0,0.0,0.0,0.0,0.0,0.0,0.0,0.0,0.0,0.0,0.0,0.0,0.0,0.0,0.0,0.0,0.0,0.0,0.0,0.0,0.0,0.0,0.0,0.0,0.0,0.0,0.0,0.0,0.0,0.0,0.0,0.0,0.0,0.0,0.0,0.0,0.0,0.0,0.0,0.0,0.0,0.0,0.0,0.0,0.0,0.0,0.0,0.0,0.0,0.0,0.0,0.0,0.0,0.0,0.0,0.0,0.0,0.0,0.0,0.0,0.0,0.0,0.0,0.0,0.0,0.0,0.0,0.0,0.0,0.0,0.0,0.0,0.0,0.0,0.0,0.0,0.0,0.0,0.0,0.0,0.0,0.0,0.0,0.0,0.0,0.0,0.0,0.0,0.0,0.0,0.0,0.0,0.0,0.0,0.0,0.0,0.0,0.0,0.0,0.0,0.0,0.0,0.0,0.0,0.0,0.0,0.0,0.0,0.0,0.0,0.0,0.0,0.0,0.0,0.0,0.0,0.0,0.0,0.0,0.0,0.0,0.0,0.0,0.0,0.0,0.0,0.0,0.0,0.0,0.0,0.0,0.0,0.0,0.0,0.0,0.0,0.0,0.0,0.0,0.0,0.0,0.0,0.0,0.0,0.0,0.0,0.0,0.0,0.0,0.0,0.0,0.0,0.0,0.0,0.0,0.0,0.0,0.0,0.0,0.0,0.0,0.0,0.0,0.0,0.0,0.0,0.0,0.0,0.0,0.0,0.0,0.0,0.0,0.0,0.0,0.0,0.0,0.0,0.0,0.0,0.0,0.0,0.0,0.0,0.0,0.0,0.0,0.0,0.0,0.0,0.0,0.0,0.0,0.0,0.0,0.0,0.0,0.0,0.0,0.0,0.0,0.0,0.0,0.0,0.0,0.0,0.0,0.0,0.0,0.0,0.0,0.0,0.0,0.0,0.0,0.0,0.0,0.0,0.0,0.0,0.0,0.0,0.0,0.0,0.0,0.0,0.0,0.0,0.0,0.0,0.0,0.0,0.0,0.0,0.0,0.0,0.0,0.0,0.0,0.0,0.0,0.0,0.0,0.0,0.0,0.0,0.0,0.0,0.0,0.0,0.0,0.0,0.0,0.0,0.0,0.0,0.0,0.0,0.0,0.0,0.0,0.0,0.0,0.0,0.0,0.0,0.0,0.0,0.0,0.0,0.0,0.0,0.0,0.0,0.0,0.0,0.0,0.0,0.0,0.0,0.0,0.0,0.0,0.0,0.0,0.0,0.0,0.0,0.0,0.0,0.0,0.0,0.0,0.0,0.0,0.0,0.0,0.0,0.0,0.0,0.0,0.0,0.0,0.0,0.0,0.0,0.0,0.0,0.0,0.0,0.0,0.0,0.0,0.0,0.0,0.0,0.0,0.0,0.0,0.0,0.0,0.0,0.0,0.0,0.0,0.0,0.0,0.0,0.0,0.0,0.0,0.0,0.0,0.0,0.0,0.0,0.0,0.0,0.0,0.0,0.0,0.0,0.0,0.0,0.0,0.0,0.0,0.0,0.0,0.0,0.0,0.0,0.0,0.0,0.0,0.0,0.0,0.0,0.0,0.0,0.0,0.0,0.0,0.0,0.0,0.0,0.0,0.0,0.0,0.0,0.0,0.0,0.0,0.0,0.0,0.0,0.0,0.0,0.0,0.0,0.0,0.0,0.0,0.0,0.0,0.0,0.0,0.0,0.0,0.0,0.0,0.0,0.0,0.0,0.0,0.0,0.0,0.0,0.0,0.0,0.0,0.0,0.0,0.0,0.0,0.0,0.0,0.0,0.0,0.0,0.0,0.0,0.0,0.0,0.0,0.0,0.0,0.0,0.0,0.0,0.0,0.0,0.0,0.0,0.0,0.0,0.0,0.0,0.0,0.0,0.0,0.0,0.0,0.0,0.0,0.0,0.0,0.0,0.0,0.0,0.0,0.0,0.0,0.0,0.0,0.0,0.0,0.0,0.0,0.0,0.0,0.0,0.0,0.0,0.0,0.0,0.0,0.0,0.0,0.0,0.0,0.0,0.0,0.0,0.0,0.0,0.0,0.0,0.0,0.0,0.0,0.0,0.0,0.0,0.0,0.0,0.0,0.0,0.0,0.0,0.0,0.0,0.0,0.0,0.0,0.0,0.0,0.0,0.0,0.0,0.0,0.0,0.0,0.0,0.0,0.0,0.0,0.0,0.0,0.0,0.0,0.0,0.0,0.0,0.0,0.0,0.0,0.0,0.0,0.0,0.0,0.0,0.0,0.0,0.0,0.0,0.0,0.0,0.0,0.0,0.0,0.0,0.0,0.0,0.0,0.0,0.0,0.0,0.0,0.0,0.0,0.0,0.0,0.0,0.0,0.0,0.0,0.0,0.0,0.0,0.0,0.0,0.0,0.0,0.0,0.0,0.0,0.0,0.0,0.0,0.0,0.0,0.0,0.0,0.0,0.0,0.0,0.0,0.0,0.0,0.0,0.0,0.0,0.0,0.0,0.0,0.0,0.0,0.0,0.0,0.0,0.0,0.0,0.0,0.0,0.0,0.0,0.0,0.0,0.0,0.0,0.0,0.0,0.0,0.0,0.0,0.0,0.0,0.0,0.0,0.0,0.0,0.0,0.0,0.0,0.0,0.0,0.0,0.0,0.0,0.0,0.0,0.0,0.0,0.0,0.0,0.0,0.0,0.0,0.0,0.0,0.0,0.0,0.0,0.0,0.0,0.0,0.0,0.0,0.0,0.0,0.0,0.0,0.0,0.0,0.0,0.0,0.0,0.0,0.0,0.0,0.0,0.0,0.0,0.0,0.0,0.0,0.0,0.0,0.0,0.0,0.0,0.0,0.0,0.0,0.0,0.0,0.0,0.0,0.0,0.0,0.0,0.0,0.0,0.0,0.0,0.0,0.0,0.0,0.0,0.0,0.0,0.0,0.0,0.0,0.0,0.0,0.0,0.0,0.0,0.0,0.0,0.0,0.0,0.0,0.0,0.0,0.0,0.0,0.0,0.0,0.0,0.0,0.0,0.0,0.0,0.0,0.0,0.0,0.0,0.0,0.0,0.0,0.0,0.0,0.0,0.0,0.0,0.0,0.0,0.0,0.0,0.0,0.0,0.0,0.0,0.0,0.0,0.0,0.0,0.0,0.0,0.0,0.0,0.0,0.0,0.0,0.0,0.0,0.0,0.0,0.0,0.0,0.0,0.0,0.0,0.0,0.0,0.0,0.0,0.0,0.0,0.0,0.0,0.0,0.0,0.0,0.0,0.0,0.0,0.0,0.0,0.0,0.0,0.0,0.0,0.0,0.0,0.0,0.0,0.0,0.0,0.0,0.0,0.0,0.0,0.0,0.0,0.0,0.0,0.0,0.0,0.0,0.0,0.0,0.0,0.0,0.0,0.0,0.0,0.0,0.0,0.0,0.0,0.0,0.0,0.0,0.0,0.0,0.0,0.0,0.0,0.0,0.0,0.0,0.0,0.0,0.0,0.0,0.0,0.0,0.0,0.0,0.0,0.0,0.0,0.0,0.0,0.0,0.0,0.0,0.0,0.0,0.0,0.0,0.0,0.0,0.0,0.0,0.0,0.0,0.0,0.0,0.0,0.0,0.0,0.0,0.0,0.0,0.0,0.0,0.0,0.0,0.0,0.0,0.0,0.0,0.0,0.0,0.0,0.0,0.0,0.0,0.0,0.0,0.0,0.0,0.0,0.0,0.0,0.0,0.0,0.0,0.0,0.0,0.0,0.0,0.0,0.0,0.0,0.0,0.0,0.0,0.0,0.0,0.0,0.0,0.0,0.0,0.0,0.0,0.0,0.0,0.0,0.0,0.0,0.0,0.0,0.0,0.0,0.0,0.0,0.0,0.0,0.0,0.0,0.0,0.0,0.0,0.0,0.0,0.0,0.0,0.0,0.0,0.0,0.0,0.0,0.0,0.0,0.0,0.0,0.0,0.0,0.0,0.0,0.0,0.0,0.0,0.0,0.0,0.0,0.0,0.0,0.0,0.0,0.0,0.0,0.0,0.0,0.0,0.0,0.0,0.0,0.0,0.0,0.0,0.0,0.0,0.0,0.0,0.0,0.0,0.0,0.0,0.0,0.0,0.0,0.0,0.0,0.0,0.0,0.0,0.0,0.0,0.0,0.0,0.0,0.0,0.0,0.0,0.0,0.0,0.0,0.0,0.0,0.0,0.0,0.0,0.0,0.0,0.0,0.0,0.0,0.0,0.0,0.0,0.0,0.0,0.0,0.0,0.0,0.0,0.0,0.0,0.0,0.0,0.0,0.0,0.0,0.0,0.0,0.0,0.0,0.0,0.0,0.0,0.0,0.0,0.0,0.0,1.4021,0.0,0.0,0.0,0.0,0.0,0.0,0.0,0.0,0.0,0.0,0.0,0.0,0.0,0.0,0.0,0.0,0.0,0.0,0.0,0.0,0.0,0.0,0.0,0.0,0.0,0.0,0.0,0.0,0.0,0.0,0.0,0.0,0.0,0.0,0.0,0.0,0.0,0.0,1.4743,1.4731,1.5094,1.5756,1.5756,1.5778,1.5833,0.0,0.0,0.0,0.0,0.0,0.0,0.0,0.0,0.0,0.0,0.0,0.0,0.0,0.0,0.0,0.0,0.0,0.0,0.0,0.0,0.0,0.0,0.0,0.0,0.0,0.0,0.0,0.0,0.0,0.0,0.0,0.0,0.0,0.0,0.0,0.0,0.0,0.0,0.0,0.0,0.0,0.0,0.0,0.0,0.0,0.0,0.0,0.0,0.0,0.0,0.0,0.0,0.0,0.0,0.0,0.0,0.0,0.0,0.0,0.0,0.0,0.0,0.0,0.0,0.0,0.0,0.0,0.0,0.0,0.0,0.0,1.3842,0.0,0.0,0.0,0.0,0.0,0.0,0.0,0.0,0.0,0.0,0.0,0.0,0.0,0.0,0.0,0.0,0.0,0.0,0.0,0.0,0.0,0.0,0.0,1.6671,1.6581,1.6768,1.7163,1.7227,0.0,0.0,0.0,0.0,0.0,0.0,1.6099,1.5154,1.4796,1.5108,1.5178,1.5716,1.6645,1.6705,1.6596,1.6323,1.6557,0.0,0.0,0.0,0.0,0.0,0.0,0.0,0.0,0.0,0.0,0.0,0.0,0.0,0.0,0.0,0.0,0.0,0.0,0.0,0.0,0.0,0.0,0.0,0.0,0.0,0.0,0.0,0.0,0.0,0.0,0.0,0.0,0.0,0.0,0.0,0.0,0.0,0.0,0.0,0.0,0.0,0.0,0.0,0.0,0.0,0.0,0.0,0.0,0.0,0.0,0.0,0.0,0.0,0.0,0.0,0.0,0.0,0.0,0.0,0.0,0.0,0.0,0.0,1.4983,1.5216,1.5751,1.5257,1.5116,1.5201,1.4023,1.3215,1.2704,1.2641,0.0,0.0,0.0,0.0,0.0,0.0,0.0,0.0,0.0,0.0,0.0,0.0,0.0,0.0,0.0,0.0,0.0,0.0,0.0,1.65,1.6565,1.6522,1.6861,1.78,1.7603,1.7549,1.7945,0.0,0.0,0.0,0.0,0.0,1.7183,1.6161,1.5454,1.5103,1.5498,1.6214,1.7219,1.7606,1.7988,1.8283,1.7518,1.7409,1.7781,0.0,0.0,0.0,0.0,0.0,0.0,0.0,0.0,0.0,0.0,0.0,0.0,0.0,0.0,0.0,0.0,0.0,0.0,0.0,0.0,0.0,0.0,0.0,0.0,0.0,0.0,0.0,0.0,0.0,0.0,0.0,0.0,0.0,0.0,0.0,0.0,0.0,0.0,0.0,0.0,0.0,1.716,1.6953,0.0,0.0,0.0,0.0,0.0,0.0,0.0,0.0,0.0,0.0,0.0,0.0,0.0,1.5887,1.5788,1.5565,1.5489,1.5505,1.492,1.4687,1.4775,1.4712,1.4371,1.3861,1.3688,0.0,1.3099,1.2807,0.0,0.0,0.0,0.0,0.0,0.0,0.0,0.0,0.0,0.0,0.0,0.0,0.0,0.0,0.0,0.0,0.0,0.0,0.0,0.0,0.0,1.6996,1.7422,1.8448,1.8628,1.8547,1.8179,1.8476,0.0,0.0,0.0,1.6862,1.6502,1.6037,1.5974,1.6328,1.6535,1.7136,1.8075,1.8294,1.8501,1.8676,1.8545,1.8305,1.7999,1.7781,0.0,0.0,0.0,0.0,0.0,0.0,0.0,0.0,0.0,0.0,0.0,0.0,0.0,0.0,0.0,0.0,0.0,0.0,0.0,0.0,0.0,0.0,0.0,0.0,0.0,0.0,0.0,0.0,0.0,0.0,0.0,0.0,0.0,0.0,0.0,0.0,0.0,0.0,0.0,1.7305,1.7469,1.7282,1.7273,1.7273,0.0,0.0,0.0,0.0,0.0,0.0,0.0,0.0,0.0,1.5298,1.5616,1.5575,1.5228,1.5086,1.5168,1.5381,1.5089,1.5149,1.5493,1.525,1.5023,1.4756,1.4356,1.3818,1.3199,1.2664,1.2344,1.2181,0.0,0.0,0.0,0.0,1.1123,1.0502,0.0,0.0,0.0,0.0,0.0,0.0,0.0,0.0,0.0,0.0,0.0,0.0,1.7287,1.7246,1.7616,1.8768,1.902,1.8806,1.8142,1.8854,1.8526,1.6824,1.7126,1.7022,1.622,1.6069,1.64,1.7306,1.7547,1.813,1.9069,1.9189,1.9341,1.9441,1.9812,1.9375,1.8359,1.8239,1.7977,1.7645,0.0,0.0,0.0,0.0,0.0,0.0,0.0,0.0,0.0,0.0,0.0,0.0,0.0,0.0,0.0,0.0,0.0,0.0,0.0,0.0,0.0,0.0,0.0,0.0,0.0,0.0,0.0,0.0,0.0,0.0,0.0,0.0,0.0,0.0,0.0,0.0,0.0,1.7536,1.782,1.7839,1.7519,1.7347,0.0,0.0,0.0,0.0,0.0,0.0,1.5619,1.5897,1.5843,1.5417,1.5613,1.5557,1.5136,1.5136,1.5271,1.5586,1.5425,1.5576,1.6068,1.5573,1.5354,1.5267,1.4719,1.4039,1.332,1.2634,1.221,1.2015,1.1732,1.142,1.1114,1.1041,1.0542,0.9755,0.0,0.0,0.0,0.0,0.0,0.0,0.0,0.0,0.0,0.0,0.0,1.6673,1.7165,1.6812,1.7148,1.8651,1.8014,1.7667,1.8078,1.8159,1.7924,1.7378,1.7311,1.7323,1.7312,1.6762,1.6743,1.7306,1.8174,1.9113,2.0053,2.0533,2.1036,2.145,2.1472,2.0686,1.9289,1.8851,1.8643,1.8545,1.7667,0.0,0.0,0.0,0.0,0.0,0.0,0.0,0.0,0.0,0.0,0.0,0.0,0.0,0.0,0.0,0.0,0.0,0.0,0.0,0.0,0.0,0.0,0.0,0.0,0.0,0.0,0.0,0.0,0.0,0.0,0.0,0.0,0.0,0.0,0.0,0.0,0.0,0.0,1.8765,1.7591,0.0,0.0,0.0,0.0,1.5999,1.596,1.5962,1.6063,1.6085,1.6117,1.6158,1.6158,1.6325,1.6586,1.6586,1.6594,1.6618,1.5996,1.5674,1.5711,1.5061,1.4555,1.4178,1.4135,1.3888,1.3458,1.2959,1.233,1.1607,1.1344,1.1083,1.0894,1.0625,0.9873,0.895,0.0,0.0,0.0,0.0,0.0,0.0,0.0,0.0,1.6708,1.6764,1.6599,1.6705,1.7261,1.7436,1.8016,1.926,1.9199,1.9011,1.8872,1.8228,1.7775,1.7605,1.7081,1.7088,1.7773,1.728,1.7704,1.9093,1.9431,2.0249,2.1514,2.1712,2.2051,2.251,2.2826,2.2499,2.1647,2.0588,1.9725,1.9102,1.8447,1.801,0.0,0.0,0.0,0.0,0.0,0.0,0.0,0.0,0.0,0.0,0.0,0.0,0.0,0.0,0.0,0.0,0.0,0.0,0.0,0.0,0.0,0.0,0.0,0.0,0.0,0.0,0.0,0.0,0.0,0.0,0.0,0.0,0.0,0.0,0.0,0.0,0.0,1.7792,1.7457,0.0,1.7628,1.648,1.5939,1.6515,1.6094,1.6013,1.6442,1.6717,1.6879,1.693,1.7104,1.7059,1.6721,1.6721,1.635,1.5666,1.5447,1.5219,1.5041,1.4715,1.4408,1.4093,1.4013,1.3808,1.3483,1.3323,1.2681,1.1775,1.0993,1.0249,0.957,0.9163,0.8649,0.8041,0.0,0.0,0.0,0.0,0.0,0.0,0.0,0.0,1.6913,1.6762,1.6598,1.6818,1.7676,1.8043,1.866,1.9673,1.9599,1.9316,1.8891,1.7879,1.729,1.729,1.6972,1.7234,1.8217,1.8086,1.8785,2.0358,2.0838,2.1568,2.2553,2.2892,2.322,2.3514,2.3842,2.3809,2.3438,2.2524,2.1428,2.0325,1.9506,1.9189,1.9058,0.0,0.0,0.0,0.0,0.0,0.0,0.0,0.0,0.0,0.0,0.0,0.0,0.0,0.0,0.0,0.0,0.0,0.0,0.0,0.0,0.0,0.0,0.0,0.0,0.0,0.0,0.0,0.0,0.0,0.0,0.0,0.0,0.0,0.0,0.0,1.7605,1.7797,1.7605,1.7552,1.7804,1.6793,1.6359,1.6985,1.6636,1.6587,1.7056,1.754,1.7803,1.7803,1.7744,1.7497,1.7049,1.6624,1.6006,1.5212,1.4993,1.4804,1.4627,1.432,1.4129,1.4021,1.3933,1.3857,1.3727,1.3262,1.2564,1.1655,1.0891,0.9809,0.8617,0.8319,0.7915,0.7368,0.0,0.0,0.0,0.0,0.0,0.0,1.7136,1.6799,1.6666,1.7137,1.6812,1.7016,1.8344,1.8509,1.8872,1.9784,1.904,1.8387,1.8057,1.7098,1.6551,1.6535,1.7076,1.777,1.8709,1.9222,1.9954,2.096,2.2335,2.3045,2.3088,2.4061,2.4519,2.453,2.453,2.4541,2.4563,2.4563,2.3755,2.231,2.0805,2.075,2.133,0.0,0.0,0.0,0.0,0.0,0.0,0.0,0.0,0.0,0.0,0.0,0.0,0.0,0.0,0.0,0.0,0.0,0.0,0.0,0.0,0.0,0.0,0.0,0.0,0.0,0.0,0.0,0.0,0.0,0.0,0.0,0.0,0.0,1.8286,1.792,1.7965,1.886,1.8016,1.7579,1.8072,1.7302,1.6945,1.7302,1.7679,1.787,1.7878,1.8486,1.8813,1.8797,1.8048,1.7621,1.7645,1.649,1.5732,1.5435,1.4771,1.4501,1.4443,1.3791,1.3618,1.3859,1.3865,1.3968,1.4082,1.2775,1.1873,1.119,1.092,0.9718,0.8146,0.8157,0.7691,0.6982,0.0,0.0,0.0,0.0,0.0,0.0,1.7178,1.6799,1.6773,1.7464,1.7146,1.7257,1.8322,1.8722,1.9037,1.9306,1.9301,1.9113,1.8663,1.7878,1.7425,1.7367,1.7972,1.8753,1.9693,2.0566,2.1461,2.2411,2.3165,2.3886,2.4585,2.4898,2.5175,2.5513,2.5513,2.571,2.6037,2.6037,2.6005,2.5721,2.322,2.1964,2.1472,0.0,0.0,0.0,0.0,0.0,0.0,0.0,0.0,0.0,0.0,0.0,0.0,0.0,0.0,0.0,0.0,0.0,0.0,0.0,0.0,0.0,0.0,0.0,0.0,0.0,0.0,0.0,0.0,0.0,0.0,0.0,0.0,1.8276,1.787,1.8389,1.867,1.8205,1.8718,1.8859,1.8287,1.8575,1.869,1.8398,1.8732,1.9081,1.9319,1.9519,1.9216,1.8398,1.8153,1.737,1.6048,1.5678,1.5124,1.4339,1.4161,1.397,1.3785,1.3805,1.3415,1.277,1.2947,1.2673,1.1994,1.1448,1.0546,0.9453,0.918,0.8379,0.7375,0.7003,0.6723,0.6506,0.0,0.0,0.0,0.0,0.0,0.0,1.6947,1.6693,1.6712,1.7327,1.718,1.7454,1.8696,1.9063,1.9296,1.9502,1.9517,1.9183,1.8441,1.7888,1.7662,1.7806,1.8767,1.9757,2.0696,2.1691,2.2553,2.3307,2.3995,2.4618,2.5215,2.5382,2.5732,2.6201,2.6201,2.6463,2.6868,2.6868,2.7064,2.7162,2.548,2.4476,2.3798,2.2116,2.1505,2.1439,2.062,2.038,2.0336,1.9561,0.0,0.0,0.0,0.0,0.0,0.0,0.0,0.0,0.0,0.0,0.0,0.0,0.0,0.0,0.0,0.0,0.0,0.0,0.0,0.0,0.0,0.0,0.0,0.0,1.9611,1.9127,1.85,1.9064,1.9247,1.8612,1.9517,1.9841,1.9047,1.9418,1.9586,1.9256,1.9598,1.982,1.9917,1.985,1.9445,1.8603,1.808,1.7146,1.5852,1.5462,1.4879,1.4069,1.4069,1.399,1.3845,1.4002,1.3489,1.2485,1.2625,1.2145,1.1121,1.044,0.96,0.0,0.0,0.0,0.0,0.0,0.6366,0.6228,0.0,0.0,0.0,0.0,0.0,0.0,1.6565,1.6436,1.6556,1.6977,1.702,1.762,1.9195,1.9399,1.9547,1.9965,1.9629,1.8948,1.7962,1.7623,1.7711,1.8276,1.9572,2.0707,2.1647,2.2597,2.3329,2.3771,2.4727,2.5237,2.5303,2.5699,2.6157,2.6584,2.6584,2.6868,2.7392,2.7392,2.7424,2.7468,2.7413,2.7337,2.6911,2.394,2.3504,2.4257,2.2531,2.1671,2.1222,2.062,0.0,0.0,0.0,0.0,0.0,0.0,0.0,0.0,0.0,0.0,0.0,0.0,0.0,0.0,0.0,0.0,0.0,0.0,0.0,0.0,0.0,0.0,0.0,0.0,2.0131,2.0342,1.9853,1.9949,1.996,1.9695,2.0369,2.0621,2.0021,2.0061,2.0012,1.9826,2.015,2.0164,1.975,0.0,0.0,0.0,0.0,1.6827,1.621,1.5462,1.4805,1.4298,1.4298,1.425,1.41,1.41,1.3463,1.2339,1.2339,1.1755,1.0681,0.946,0.8814,0.851,0.8266,0.7425,0.6387,0.6387,0.6275,0.6007,0.0,0.0,0.0,0.0,0.0,0.0,1.6522,1.6032,1.6096,1.7171,1.7179,1.7657,1.9155,1.9319,1.9355,1.946,1.9378,1.9228,1.9011,1.8635,1.8929,2.005,2.0874,2.1581,2.216,2.3062,2.3831,2.4344,2.4942,2.5371,2.5764,2.5852,2.6157,2.6584,2.6584,2.7053,2.786,2.786,2.8123,2.8486,2.8058,2.7402,2.6649,2.6006,2.5251,2.4443,2.4061,2.3864,2.3646,2.275,2.2925,2.322,2.1549,2.1024,0.0,0.0,0.0,0.0,0.0,0.0,0.0,0.0,0.0,0.0,0.0,0.0,0.0,0.0,0.0,0.0,0.0,0.0,0.0,2.0578,2.0217,2.008,2.0849,2.1297,2.1181,2.032,2.1097,2.1328,2.0388,2.0945,2.0785,1.934,1.9592,1.9501,1.8713,1.8672,1.8223,1.7295,1.7033,1.6285,1.5041,1.4843,1.463,1.4298,0.0,0.0,1.3022,1.3022,1.1999,1.0194,1.0194,0.946,0.8283,0.7783,0.7282,0.688,0.6783,0.6634,0.6387,0.6387,0.5822,0.5062,0.0,0.0,0.0,0.0,0.0,0.0,1.6216,1.6107,1.632,1.6977,1.7179,1.7728,1.8997,1.8914,1.8854,1.9127,1.903,1.8982,1.9099,1.9223,1.9736,2.0709,2.1532,2.2171,2.2652,2.3613,2.4235,2.4486,2.5196,2.5666,2.5906,2.6147,2.6518,2.6988,2.7479,2.8091,2.8779,2.9019,2.9259,2.9445,2.8953,2.8484,2.7971,2.725,2.6671,2.6201,2.5732,2.5404,2.5087,2.4334,2.4268,2.4268,2.3045,2.2499,2.2062,0.0,0.0,0.0,0.0,0.0,0.0,0.0,0.0,0.0,0.0,0.0,0.0,0.0,0.0,2.0997,0.0,0.0,2.0099,2.0793,2.083,2.0865,2.1174,2.1569,2.1537,2.0816,2.1345,2.1352,2.0147,2.0448,2.0164,1.8869,1.8955,1.884,1.8422,1.7996,1.7561,1.7042,1.6572,1.5904,1.4914,1.504,1.4908,1.4503,1.3949,1.34,1.2899,1.2245,1.1072,0.9608,0.9608,0.8825,0.7547,0.7141,0.6739,0.6337,0.5784,0.5937,0.6337,0.5787,0.5284,0.4634,0.0,0.0,0.0,0.0,0.0,0.0,0.0,1.6259,1.6596,1.6556,1.7096,1.7834,1.8734,1.8554,1.853,1.8951,1.8747,1.8748,1.9114,1.9697,2.0352,2.1094,2.1966,2.2619,2.299,2.3875,2.4388,2.4486,2.5349,2.5852,2.6048,2.6399,2.6966,2.7632,2.8453,2.9121,2.9652,3.0046,3.0209,3.0177,2.9784,2.9565,2.9358,2.8178,2.7861,2.7882,2.702,2.6332,2.571,2.5415,2.4945,2.4432,2.4104,2.3678,2.3088,2.204,2.1658,0.0,0.0,0.0,0.0,0.0,0.0,0.0,0.0,0.0,2.1799,2.135,2.1569,2.1528,2.0574,2.0572,2.0752,2.075,2.1238,2.1461,2.1088,2.119,2.1212,2.0879,2.1089,2.0909,1.9776,1.9576,1.9101,1.8206,1.816,1.8108,1.7891,1.7312,1.6935,1.6935,1.6258,1.5662,1.5191,1.5184,1.4944,1.4433,1.3314,1.2678,1.2418,1.1363,1.0293,0.9266,0.9164,0.8478,0.7397,0.6692,0.6289,0.5984,0.4933,0.5033,0.5682,0.4832,0.4381,0.3927,0.0,0.0,0.0,0.0,0.0,0.0,0.0,0.0,1.6197,1.6008,1.7015,1.7885,1.8255,1.8662,1.8927,1.8987,1.8747,1.8983,1.9901,2.0318,2.0939,2.1922,2.2592,2.2947,2.3001,2.3536,2.4039,2.4486,2.504,2.5699,2.6508,2.6562,2.7326,2.8639,2.8749,2.9318,3.0133,3.0188,3.0209,3.0209,3.0155,2.9871,2.9467,2.9303,2.8746,2.7925,2.7424,2.6376,2.5306,2.5688,2.5229,2.4552,2.4942,2.4694,2.405,2.2652,2.1931,2.1472,2.096,2.085,2.119,2.2379,2.2127,2.2056,0.0,0.0,2.2745,2.1493,2.1571,2.1511,2.0371,2.0138,2.032,2.0966,2.0792,2.0654,2.0872,2.0328,1.9923,1.9834,1.9916,1.9887,1.9732,1.8997,1.8206,1.7411,1.7305,1.6995,1.6205,1.6099,1.6045,1.6045,1.5945,1.5753,1.5457,1.4473,1.3825,1.3507,1.2234,1.1084,1.0171,0.9888,0.9217,0.8137,0.7686,0.7238,0.6795,0.5539,0.4985,0.4885,0.3776,0.3475,0.3525,0.3425,0.2771,0.1915,0.0,0.0,0.0,0.0,0.0,0.0,0.0,0.0,1.6514,1.6591,1.717,1.7812,1.8423,1.8804,1.8867,1.8554,1.8701,1.9187,2.0041,2.0769,2.1573,2.2423,2.303,2.3335,2.3335,2.3881,2.4279,2.4486,2.5229,2.595,2.6595,2.6857,2.749,2.8375,2.9226,2.9827,3.0253,3.0799,3.0865,3.0581,3.0319,2.9751,2.9077,2.8757,2.8047,2.7107,2.666,2.5928,0.0,2.5098,2.4814,2.4574,2.5073,2.465,2.382,2.2652,2.2171,2.1964,2.1767,2.1909,2.2248,2.2848,2.334,2.379,2.422,2.4388,2.4137,2.3016,2.3271,2.3407,2.2465,2.1995,2.1717,0.0,2.1356,2.0937,2.0933,2.0197,1.9664,1.9469,1.8719,1.8251,1.8251,1.7937,1.7364,1.6518,1.6465,1.6258,1.5945,1.5891,1.5891,1.5891,1.5244,1.4798,1.4485,1.3503,1.2808,1.2463,1.1247,1.0433,0.9868,0.9045,0.8333,0.7743,0.7191,0.6539,0.5834,0.5085,0.4431,0.3776,0.267,0.2267,0.2267,0.2267,0.1966,0.1513,0.0,0.0,0.0,0.0,0.0,0.0,0.0,0.0,0.0,0.0,1.7488,1.8105,1.8883,1.8967,1.8831,1.8458,1.877,1.929,1.9984,2.0875,2.1763,2.2589,2.3219,2.3568,2.3593,2.415,2.4397,2.4279,2.524,2.595,2.6441,2.6911,2.7413,2.8045,2.9281,2.9893,3.0067,3.0887,3.1029,3.0668,3.0199,2.95,2.8716,2.7938,2.702,2.6179,2.583,2.5218,2.4497,2.4039,2.3798,2.3744,2.4082,2.3798,2.3138,2.2321,2.2116,2.2116,2.2116,2.2542,2.3099,2.3504,2.4328,2.4994,2.4676,2.4955,2.5041,2.425,2.4538,2.4654,2.3838,2.3166,2.2595,2.2214,2.1655,2.1115,2.0648,1.9804,1.9089,1.8658,1.7403,1.6605,1.6605,1.674,1.6571,1.5945,1.5891,1.5891,1.5891,1.5618,1.5434,1.5504,1.4364,1.3715,1.3547,1.2567,1.1837,1.1492,1.0342,0.9684,0.9517,0.8407,0.7693,0.7344,0.6642,0.5887,0.5031,0.4228,0.3475,0.267,0.1563,0.116,0.116,0.116,0.116,0.1059,0.0,0.0,0.0,0.0,0.0,0.0,0.0,0.0,0.0,0.0,0.0,0.0,1.9519,1.9239,1.8987,1.8963,1.8987,1.9227,1.9768,2.0452,2.1288,2.235,2.3052,2.3481,2.3593,2.4059,2.4099,2.3716,2.4716,2.5448,2.5928,2.6377,2.7107,2.8012,2.8571,2.911,2.9532,3.0046,3.0242,3.0188,2.9707,2.9252,2.865,2.7206,2.607,2.5248,2.5237,2.4279,2.3001,2.2531,2.2062,2.168,2.1691,2.1996,2.2258,2.1756,2.1614,2.1614,2.1614,2.2291,2.334,2.4789,2.4931,2.4987,2.6,2.5702,2.5093,2.4659,2.4587,2.4332,2.3307,2.2677,2.2206,2.1799,2.1291,2.0624,1.9835,1.8767,1.7749,1.698,1.5839,1.5182,0.0,1.5642,1.5945,1.5891,1.5891,1.5891,1.5891,1.4869,1.4321,1.4427,1.3276,1.2758,1.2946,1.1765,1.1017,1.071,0.936,0.8603,0.8316,0.7862,0.7344,0.6742,0.5684,0.5081,0.4634,0.2569,0.1664,0.1563,0.0454,0.0051,0.0051,0.0051,0.0051,0.0051,0.0,0.0,0.0,0.0,0.0,0.0,0.0,0.0,0.0,0.0,0.0,0.0,0.0,0.0,0.0,0.0,1.9146,1.9242,1.9772,2.0674,2.1522,2.2226,2.2921,2.3479,2.3873,2.3813,2.3869,2.4115,2.4517,2.4996,2.5426,2.5917,2.6485,2.7097,2.7927,2.8375,2.856,2.9041,2.9296,2.9172,2.8364,2.7763,2.7184,2.5753,2.4596,2.3646,0.0,2.2305,2.154,2.1001,2.0739,2.0707,2.1385,2.1472,2.1385,2.1538,2.1255,2.1157,2.2395,2.3054,2.371,2.5098,2.5809,2.6225,2.6388,2.6454,2.6205,2.531,2.4736,2.4126,2.3471,2.2429,2.1575,2.1457,2.1111,2.0609,1.9835,1.8851,1.7926,1.6904,1.6087,0.0,0.0,0.0,0.0,1.5626,1.5795,1.5891,1.5891,1.4815,1.4272,1.4382,1.2502,1.1478,1.1594,1.0306,0.9482,0.9207,0.8384,0.7913,0.7818,0.7316,0.6589,0.5684,0.5183,0.4078,0.262,0.1915,0.116,0.0505,0.0151,0.0,0.0,0.0,0.0,0.0,0.0,0.0,0.0,0.0,0.0,0.0,0.0,0.0,0.0,0.0,0.0,0.0,0.0,0.0,0.0,0.0,0.0,1.9158,1.9495,2.0334,2.1067,2.1608,2.223,2.2725,2.3132,2.2834,2.2778,2.2986,2.3308,2.3602,2.3946,2.4563,2.5033,2.5371,2.6104,2.6562,2.6791,2.7108,2.7238,2.7148,2.5968,2.5341,2.4889,2.3502,2.2683,0.0,2.1155,2.0609,2.0293,1.9954,1.9836,1.9911,2.039,2.073,2.0915,2.0946,2.1115,2.162,2.3375,2.3961,2.4481,2.6121,2.6652,2.6761,2.674,2.6579,2.6285,2.5522,2.4652,2.3718,2.3026,2.1714,2.0695,2.0556,2.0206,1.9712,1.8964,1.8302,1.7524,1.6472,1.5925,1.5547,0.0,0.0,0.0,1.5632,1.5795,1.5725,1.5298,1.4213,1.3426,1.3221,1.1377,1.0421,1.0482,0.9532,0.8834,0.8377,0.7829,0.7497,0.7294,0.6539,0.5784,0.4981,0.4078,0.2871,0.1563,0.1211,0.0606,0.0,0.0,0.0,0.0,0.0,0.0,0.0,0.0,0.0,0.0,0.0,0.0,0.0,0.0,0.0,0.0,0.0,0.0,0.0,0.0,0.0,0.0,0.0,0.0,0.0,1.8987,1.9492,2.0021,2.0521,2.105,2.1385,2.1553,2.1282,2.0976,2.0603,2.1227,2.1516,2.1538,2.2455,2.2892,2.2914,2.3367,2.3908,2.4377,2.4377,2.436,2.4193,2.2832,2.2232,2.2019,2.0716,2.0468,2.0741,1.9747,1.9389,1.9389,1.9367,1.9319,1.9227,1.8865,1.9737,2.0733,2.0146,2.1223,2.2924,2.4493,2.4917,2.5451,2.7558,2.7252,2.6554,2.6946,2.6177,2.535,2.5262,2.4235,2.2964,2.185,2.0561,1.9553,1.9101,1.8641,1.8087,1.7457,1.719,1.6632,0.0,0.0,0.0,0.0,0.0,0.0,1.5867,0.0,1.5351,1.4277,1.3019,1.1948,1.115,1.0004,0.9507,0.9795,0.949,0.893,0.8095,0.7721,0.7294,0.6742,0.5682,0.5031,0.4582,0.2519,0.1563,0.1462,0.0404,0.0,0.0,0.0,0.0,0.0,0.0,0.0,0.0,0.0,0.0,0.0,0.0,0.0,0.0,0.0,0.0,0.0,0.0,0.0,0.0,0.0,0.0,0.0,0.0,0.0,0.0,1.8989,1.9313,1.957,1.9712,1.9995,2.0349,2.0769,2.0429,2.0392,2.0656,2.0544,2.0478,2.0489,2.1123,2.1441,2.1463,2.192,2.2411,2.287,2.287,2.3057,2.3259,2.2197,2.1764,2.1609,2.0528,2.0194,2.0227,1.9553,1.9337,1.9284,1.8913,1.8942,1.9205,1.9375,1.991,2.0669,2.1788,2.2322,2.2892,2.4609,2.5148,2.5496,2.6366,2.6342,2.6138,2.624,2.5385,2.4339,2.3694,2.2071,2.0561,1.9666,1.8892,1.8297,1.8107,1.8303,0.0,1.7351,1.7178,0.0,1.5929,0.0,1.5692,1.5692,1.5753,0.0,0.0,1.5137,1.4493,1.4223,1.2254,1.1116,1.1089,0.9896,0.9361,0.9493,0.8811,0.821,0.7702,0.7228,0.6945,0.6742,0.5486,0.4431,0.3525,0.2167,0.116,0.0404,0.0101,0.0,0.0,0.0,0.0,0.0,0.0,0.0,0.0,0.0,0.0,0.0,0.0,0.0,0.0,0.0,0.0,0.0,0.0,0.0,0.0,0.0,0.0,0.0,0.0,0.0,0.0,0.0,1.9262,1.9401,1.9238,1.9233,1.9372,1.9651,1.9197,1.9067,1.9377,1.9245,1.918,1.9191,1.9692,1.9942,1.9953,2.0194,2.0587,2.099,2.0817,2.0856,0.0,0.0,1.9706,1.9609,1.9082,1.9133,1.9465,1.9372,1.9278,1.9175,1.8853,1.9123,1.9726,2.0241,2.0997,2.1897,2.2983,2.3464,2.3945,2.5358,2.5699,2.5825,2.6586,2.6407,2.5874,2.5341,2.4372,2.3299,2.208,2.0515,1.9122,1.8321,1.7637,1.7133,0.0,0.0,0.0,1.6627,1.6645,1.6509,0.0,1.5891,0.0,1.5891,1.5891,1.5891,0.0,1.4869,1.3948,1.3457,1.171,1.0616,1.0347,0.9631,0.9187,0.9086,0.842,0.7872,0.7441,0.6995,0.6492,0.5889,0.4632,0.3525,0.2418,0.0,0.0555,0.0,0.0,0.0,0.0,0.0,0.0,0.0,0.0,0.0,-0.0051,0.0,0.0,0.0,0.0,0.0,0.0,0.0,0.0,0.0,0.0,0.0,0.0,0.0,0.0,0.0,0.0,0.0,0.0,0.0,0.0,1.9322,1.8975,1.8721,1.856,1.8479,1.7975,1.7711,1.7711,1.7836,1.7912,1.7923,1.8316,1.8501,1.8501,1.8501,1.8774,1.92,1.8774,1.8565,1.8459,1.7689,1.732,1.7227,0.0,1.7913,1.8676,1.9056,1.9062,1.8924,1.8947,1.9569,2.0438,2.1161,2.2327,2.3555,2.3898,2.4543,2.5332,2.6353,2.6336,2.6338,2.7372,2.6749,2.5552,2.4385,2.3327,2.2135,2.0561,1.9356,1.8326,1.7552,1.6887,1.6296,1.5797,0.0,1.5977,1.569,1.5852,1.5998,1.5937,1.5891,1.5891,1.5891,1.5891,1.5891,1.5891,1.4702,1.3506,1.2472,1.1185,1.0122,0.9371,0.9191,0.8915,0.8602,0.8154,0.7698,0.7138,0.6892,0.6039,0.4784,0.3676,0.262,0.1563,0.0454,0.0,0.0,0.0,0.0,0.0,0.0,0.0,0.0,0.0,-0.0101,-0.0353,0.0,0.0,0.0,0.0,0.0,0.0,0.0,0.0,0.0,0.0,1.8432,1.8072,0.0,0.0,0.0,0.0,0.0,0.0,0.0,0.0,0.0,1.8756,1.8605,1.8306,1.7865,1.7767,1.7711,1.7711,1.7495,1.7426,1.7426,1.7514,1.7547,1.7547,1.7547,1.7791,1.825,1.8163,1.8115,1.8092,1.7947,1.7644,1.7329,1.773,0.0,0.0,1.8092,1.8032,1.8077,1.8957,1.9786,2.0597,2.1367,2.2483,2.3686,2.4812,2.5256,2.5543,2.6356,2.6525,2.6545,2.6781,2.5881,2.4748,2.3849,2.2199,0.0,1.9292,1.832,1.757,1.7097,1.7081,1.6852,1.6079,1.6142,1.6143,1.5591,1.5551,1.5698,0.0,1.5891,1.5891,1.5891,1.5891,0.0,0.0,0.0,1.2635,1.2417,1.054,0.9307,0.9018,0.8762,0.8438,0.8033,0.7546,0.7148,0.6842,0.6589,0.5887,0.4784,0.3676,0.262,0.1563,0.0454,0.0,0.0,0.0,0.0,0.0,0.0,0.0,0.0,0.0,-0.0555,-0.1361,0.0,0.0,0.0,0.0,0.0,0.0,0.0,1.8174,1.8459,1.8765,1.8541,1.8364,1.8364,1.8092,1.7929,0.0,0.0,0.0,0.0,0.0,0.0,1.8839,1.8632,1.8386,1.8116,1.7979,1.7772,1.7501,0.0,1.7306,1.7306,1.7306,1.7306,1.7306,1.7306,1.7437,1.7628,1.7628,1.7628,1.7628,1.7628,1.7486,1.7328,1.754,0.0,0.0,1.8166,1.8147,1.8174,1.8862,1.9734,2.0726,2.2172,2.3373,2.4345,2.5142,2.5571,2.5819,2.6205,2.6417,2.649,2.6059,2.5249,2.4015,2.2346,0.0,0.0,1.8064,1.7623,1.7423,1.7243,1.7481,0.0,1.6576,1.633,1.6064,1.5461,1.5316,1.539,1.5656,1.5807,1.5891,0.0,1.5891,0.0,0.0,0.0,1.2353,1.2413,1.0177,0.8828,0.8613,0.8323,0.8047,0.7702,0.7172,0.6905,0.6795,0.6539,0.5534,0.3927,0.3425,0.2318,0.0757,0.0202,0.0,0.0,0.0,0.0,0.0,0.0,0.0,0.0,0.0,-0.0656,-0.1714,0.0,0.0,0.0,0.0,0.0,0.0,0.0,1.8296,1.8636,1.8793,1.8697,1.8649,1.8793,1.8255,1.7902,0.0,0.0,0.0,0.0,0.0,0.0,0.0,0.0,0.0,1.8486,0.0,0.0,1.739,1.7334,0.0,0.0,0.0,0.0,0.0,1.7306,1.7306,1.7306,1.7306,1.7306,0.0,0.0,1.7306,1.7306,0.0,0.0,0.0,0.0,1.844,1.8496,1.8909,1.962,2.0606,2.2345,2.3671,2.4565,2.4785,2.5262,2.5764,2.5764,2.6013,2.6151,2.5427,2.4565,2.3308,2.1034,1.9815,1.8742,1.722,1.722,1.7487,1.7506,1.7732,1.7643,1.6722,1.6242,1.5777,1.5145,1.5054,1.5119,0.0,1.5644,0.0,1.5807,1.5807,0.0,0.0,0.0,0.0,1.1634,0.971,0.8497,0.8246,0.7936,0.7589,0.7355,0.6944,0.6692,0.6692,0.6487,0.5281,0.3224,0.3224,0.2016,0.0,0.0,0.0,0.0,0.0,0.0,0.0,0.0,0.0,-0.0051,-0.0252,-0.1059,-0.2216,0.0,0.0,0.0,0.0,0.0,0.0,0.0,1.7957,1.8174,1.8738,1.831,1.8187,1.8752,1.8255,1.7902,0.0,0.0,0.0,0.0,0.0,0.0,0.0,0.0,0.0,0.0,0.0,0.0,1.7656,1.7418,0.0,0.0,0.0,0.0,0.0,0.0,1.7306,1.7306,1.7306,0.0,0.0,0.0,0.0,0.0,0.0,0.0,0.0,0.0,1.8218,1.8683,1.9404,1.9629,1.9754,2.0676,2.2171,2.3544,2.3224,2.3996,2.4886,2.4886,2.5179,2.5381,2.4941,2.3941,2.2574,2.0906,1.9613,1.8412,1.7165,1.722,1.7506,1.7509,1.7491,1.7125,1.6055,1.549,1.5007,1.4469,1.4606,1.4853,1.5113,0.0,0.0,1.5535,1.5535,0.0,0.0,0.0,0.0,0.9097,0.8581,0.8249,0.8144,0.7498,0.7058,0.6862,0.6595,0.6437,0.6437,0.6437,0.5281,0.3224,0.3224,0.2016,0.0,0.0,0.0,0.0,0.0,0.0,0.0,0.0,0.0,-0.0101,-0.111,-0.2266,-0.3571,0.0,0.0,0.0,0.0,0.0,0.0,1.7902,1.8527,1.8948,1.8833,1.8907,1.8948,1.8799,1.8255,1.7902,1.7902,0.0,0.0,0.0,0.0,0.0,0.0,0.0,0.0,0.0,0.0,1.829,1.7952,1.7507,0.0,0.0,0.0,0.0,0.0,0.0,1.7306,1.7306,1.7306,0.0,0.0,0.0,0.0,0.0,0.0,0.0,0.0,0.0,0.0,1.7826,1.868,1.8663,1.8386,1.8764,1.9689,2.0799,2.187,2.2684,2.3464,2.4248,2.4569,2.4587,2.4134,2.2933,2.1484,2.0099,1.8843,1.777,1.7055,1.7422,1.7659,1.7018,1.7255,1.7138,1.5784,1.5071,1.4575,1.4231,1.4053,1.4147,1.457,1.4859,0.0,0.0,0.0,0.0,0.0,0.0,0.0,0.811,0.7957,0.7775,0.748,0.7061,0.6717,0.6539,0.6437,0.6387,0.6387,0.6387,0.5281,0.3224,0.3224,0.2016,0.0,0.0,0.0,0.0,0.0,0.0,0.0,0.0,-0.0101,-0.0353,-0.1462,-0.2667,-0.4022,0.0,0.0,0.0,0.0,0.0,1.7902,1.7902,1.8636,1.903,1.8581,1.9,1.913,1.8589,1.8269,1.8029,1.7902,1.7902,0.0,0.0,0.0,0.0,0.0,0.0,0.0,0.0,0.0,1.8789,1.8375,1.7826,1.7534,0.0,0.0,1.7306,1.7306,0.0,0.0,0.0,0.0,0.0,0.0,0.0,0.0,0.0,0.0,0.0,0.0,0.0,0.0,0.0,0.0,0.0,1.7625,1.7695,1.8003,1.8684,2.0223,2.1238,2.2153,2.3015,2.3519,2.3675,2.3096,2.1916,2.0622,1.9402,1.8284,1.7385,1.6991,1.7559,1.7774,1.6695,1.7052,1.6968,1.5379,1.4587,1.4106,1.386,1.3613,1.3652,0.0,0.0,1.4429,0.0,0.0,0.0,0.0,0.0,0.0,0.7406,0.7373,0.7279,0.7034,0.6723,0.6473,0.6387,0.6387,0.6387,0.6387,0.6387,0.5281,0.3224,0.3224,0.2016,0.0,0.0,0.0,0.0,0.0,0.0,0.0,-0.0101,-0.0404,-0.1009,-0.2164,-0.342,-0.4776,0.0,0.0,0.0,0.0,0.0,0.0,1.7902,1.7916,1.7916,1.7916,1.8268,1.8352,1.7942,1.8254,1.8338,1.7942,1.7902,0.0,0.0,0.0,0.0,0.0,0.0,0.0,0.0,0.0,1.8987,1.8987,1.8402,1.8093,1.8066,1.7562,1.7306,1.7306,0.0,0.0,0.0,0.0,0.0,0.0,0.0,0.0,0.0,0.0,0.0,0.0,0.0,0.0,0.0,0.0,0.0,0.0,0.0,1.7716,1.776,1.8055,1.9567,2.1126,2.1135,2.1989,2.2721,2.1916,2.1092,2.0209,1.899,1.8082,1.7385,1.6991,1.7559,1.7774,1.6695,1.6793,1.6453,1.4699,1.4006,1.3579,1.3173,1.335,1.3519,0.0,0.0,1.3584,0.0,0.0,0.0,0.0,0.0,0.0,0.6845,0.6798,0.6798,0.6795,0.6539,0.6387,0.6387,0.6387,0.6387,0.6387,0.6387,0.5281,0.3224,0.3224,0.2016,0.0,0.0,0.0,0.0,0.0,0.0,-0.0051,-0.0303,-0.1059,-0.2163,-0.347,-0.4826,-0.6129,0.0,0.0,0.0,0.0,0.0,0.0,0.0,1.8242,1.8364,1.7957,1.8608,1.8806,1.7983,1.8509,1.8606,1.7842,1.7842,0.0,0.0,0.0,0.0,0.0,0.0,0.0,0.0,0.0,1.8945,1.8945,1.8794,1.8509,1.8093,1.7941,1.7661,1.7306,1.7306,1.7306,0.0,0.0,0.0,0.0,0.0,0.0,0.0,0.0,0.0,0.0,0.0,0.0,0.0,0.0,0.0,0.0,0.0,0.0,0.0,1.7694,1.8425,1.9246,2.0081,2.0383,2.0424,2.0451,1.9646,1.8749,1.8394,1.7678,1.7055,1.6936,1.7107,1.6881,1.5564,1.5479,1.5042,1.3503,1.3124,1.2948,1.2825,0.0,0.0,1.2478,1.2194,1.1584,0.0,0.0,0.0,0.0,0.0,0.0,0.6795,0.6639,0.6539,0.6539,0.6437,0.6387,0.6387,0.6387,0.6387,0.6387,0.5634,0.458,0.3173,0.2418,0.1311,0.0,0.0,0.0,0.0,0.0,-0.0101,-0.0303,-0.0354,-0.1261,-0.2668,-0.387,-0.5127,-0.6434,0.0,0.0,0.0,0.0,0.0,0.0,0.0,1.8215,1.8323,1.7957,1.8721,1.8925,1.8003,1.8625,1.8721,1.7781,1.7781,0.0,0.0,0.0,0.0,0.0,0.0,0.0,1.8898,1.9114,1.9341,1.957,1.9404,1.9095,1.8738,1.8525,1.8143,1.7617,1.7617,1.7479,0.0,0.0,0.0,0.0,0.0,0.0,1.7306,0.0,0.0,0.0,0.0,0.0,0.0,0.0,0.0,0.0,0.0,0.0,0.0,0.0,1.7549,1.7899,1.8923,1.9274,1.9329,1.9399,1.8759,1.8045,1.7926,1.7376,1.6874,1.67,1.6634,1.6159,1.4721,1.4518,1.411,1.2776,1.2638,1.2705,1.2705,0.0,0.0,1.2005,0.0,0.0,0.0,0.0,0.0,0.0,0.0,0.0,0.6642,0.6487,0.6387,0.6387,0.6387,0.6387,0.6387,0.6387,0.6387,0.6387,0.5336,0.423,0.3173,0.2066,0.1009,0.0,0.0,-0.0051,0.0,-0.0152,-0.0303,-0.0606,-0.111,-0.2166,-0.3571,-0.4722,-0.5929,-0.7086,0.0,0.0,0.0,0.0,0.0,0.0,0.0,1.795,1.7902,1.7902,1.8567,1.876,1.7983,1.8606,1.8721,1.776,0.0,0.0,0.0,0.0,0.0,0.0,0.0,0.0,1.8832,1.9394,1.9982,2.0646,2.0054,1.9799,1.9798,1.9239,1.8682,1.8093,1.8066,1.776,0.0,0.0,0.0,0.0,0.0,0.0,0.0,0.0,0.0,0.0,0.0,0.0,0.0,0.0,0.0,0.0,0.0,0.0,0.0,0.0,0.0,0.0,0.0,1.8577,1.9045,1.8678,1.8311,1.7935,1.7541,1.713,0.0,1.6342,1.6108,1.5536,1.4103,1.3909,1.3587,1.2496,1.2542,1.2705,0.0,1.2828,0.0,0.0,0.9987,0.0,0.0,0.0,0.0,0.0,0.0,0.0,0.6437,0.6387,0.6387,0.6387,0.6387,0.6387,0.6387,0.6395,0.6395,0.6287,0.5186,0.413,0.3073,0.1966,0.0958,0.0,0.0,-0.0151,-0.0404,-0.0403,-0.0605,-0.096,-0.2267,-0.347,-0.457,-0.5929,-0.7089,-0.7988,0.0,0.0,0.0,0.0,0.0,0.0,0.0,0.0,0.0,0.0,1.8333,1.8417,1.7821,1.8567,1.8664,0.0,0.0,0.0,0.0,0.0,0.0,0.0,0.0,0.0,1.8283,1.8427,1.8989,2.0009,1.9874,1.981,1.9798,1.9239,1.8682,1.8066,1.7661,1.7407,0.0,0.0,0.0,0.0,0.0,0.0,0.0,0.0,0.0,0.0,1.7306,1.7756,0.0,0.0,0.0,0.0,0.0,0.0,0.0,0.0,1.6769,1.656,1.7064,0.0,1.7449,1.7358,1.7266,1.7165,0.0,1.6728,1.6307,1.5789,1.5182,1.45,1.3677,1.3265,1.299,1.2668,1.2662,1.2705,1.2705,0.0,0.0,1.1012,0.916,0.0,0.0,0.0,0.0,0.0,0.6487,0.6487,0.6387,0.6387,0.6387,0.6387,0.6387,0.6387,0.6387,0.6478,0.6073,0.5183,0.4079,0.3022,0.1916,0.0858,0.0252,0.0,-0.0199,-0.0349,-0.0404,-0.0597,-0.0847,-0.1212,-0.2368,-0.3571,-0.4824,-0.5982,-0.7089,-0.7988,0.0,0.0,0.0,0.0,0.0,0.0,0.0,0.0,0.0,0.0,0.0,1.8555,1.806,1.865,0.0,0.0,0.0,0.0,0.0,0.0,0.0,0.0,0.0,1.7591,1.8453,1.8466,1.9041,2.0216,2.0216,2.0225,2.0195,1.9926,1.9344,1.8483,1.7645,1.7434,0.0,0.0,0.0,0.0,1.7306,0.0,0.0,0.0,0.0,0.0,1.7306,1.7748,0.0,1.8048,1.7811,1.7627,0.0,0.0,0.0,0.0,1.6553,1.6404,1.6798,1.6908,1.6908,1.6908,1.6908,1.6908,1.6908,1.6726,1.6412,1.5754,1.4859,1.4004,1.3463,1.2818,1.2416,1.2499,1.2626,0.0,0.0,0.0,0.0,1.0524,0.8582,0.71,0.0,0.0,0.6539,0.6387,0.6387,0.6387,0.6387,0.6388,0.6361,0.6361,0.6361,0.6385,0.6387,0.6452,0.5944,0.4784,0.3695,0.2636,0.1543,0.0346,-0.0197,-0.0197,-0.0438,-0.0585,-0.0738,-0.0933,-0.1431,-0.2243,-0.331,-0.4475,-0.5672,-0.6668,-0.7434,-0.7978,0.0,0.0,0.0,0.0,0.0,0.0,0.0,0.0,0.0,0.0,0.0,0.0,0.0,0.0,0.0,0.0,0.0,0.0,0.0,0.0,0.0,0.0,1.7617,1.7826,1.8885,1.8911,1.9496,2.0699,2.062,2.062,2.0699,2.0599,1.9939,1.8827,1.7854,1.7634,0.0,0.0,0.0,0.0,1.7306,0.0,0.0,0.0,0.0,0.0,0.0,0.0,0.0,1.8458,1.7781,1.69,1.7573,0.0,0.0,0.0,0.0,0.0,1.678,1.6874,1.6839,1.6874,1.6908,1.6874,1.6839,1.676,1.6482,1.5613,0.0,1.3667,1.3196,1.2432,0.0,1.2324,0.0,0.0,1.2647,1.0918,0.9759,1.0051,0.8127,0.0,0.672,0.6517,0.6379,0.6363,0.6363,0.6352,0.6336,0.6293,0.6289,0.6289,0.6289,0.6287,0.6333,0.62,0.561,0.4562,0.3492,0.2388,0.1268,0.0096,-0.0429,-0.0477,0.0,0.0,-0.1098,-0.121,-0.1996,-0.3272,-0.436,-0.5431,-0.6468,-0.7434,-0.7862,-0.7904,0.0,0.0,0.0,0.0,0.0,0.0,0.0,0.0,0.0,0.0,0.0,0.0,0.0,0.0,0.0,0.0,0.0,0.0,0.0,0.0,0.0,1.81,1.8009,1.8257,1.8885,1.8911,1.9496,2.0699,2.0203,2.0203,2.0687,2.0182,1.9319,1.8228,1.805,1.776,1.7407,1.7334,0.0,0.0,1.7306,0.0,0.0,0.0,0.0,0.0,0.0,0.0,0.0,1.8086,1.7929,1.7604,1.7011,0.0,0.0,0.0,0.0,0.0,1.6697,1.6656,1.6482,1.6795,1.6908,1.6795,1.6491,1.6158,1.5578,0.0,0.0,0.0,0.0,1.2016,1.2042,0.0,0.0,1.1198,0.0,0.0,0.8666,0.8695,0.0,0.6718,0.6497,0.6421,0.6396,0.6301,0.6293,0.6249,0.6146,0.6124,0.6113,0.6113,0.6113,0.6121,0.6138,0.5412,0.4522,0.344,0.2363,0.1147,-0.0096,-0.0286,-0.0477,-0.0667,0.0,-0.1079,-0.1096,-0.1362,-0.2075,-0.3157,-0.4216,-0.5222,-0.6172,-0.7256,-0.7648,-0.7662,0.0,0.0,0.0,0.0,0.0,0.0,0.0,0.0,0.0,0.0,0.0,0.0,0.0,0.0,0.0,0.0,0.0,0.0,0.0,0.0,1.8076,1.8417,1.8495,1.8649,1.8898,1.9224,1.9812,2.0699,2.0412,2.0425,2.0687,2.0093,1.9527,1.9004,1.8363,1.7968,1.7717,1.7434,1.7306,0.0,0.0,0.0,0.0,0.0,0.0,0.0,0.0,0.0,0.0,0.0,1.7838,1.7164,1.7032,0.0,0.0,0.0,0.0,0.0,1.6688,1.6769,1.6551,1.6219,1.5974,1.5762,1.5586,1.518,1.4565,1.3673,0.0,0.0,0.0,0.0,1.2021,1.2426,0.0,1.098,1.0573,0.9195,0.8204,0.0,0.0,0.6551,0.6422,0.6424,0.6365,0.6363,0.6304,0.6292,0.6187,0.6059,0.5988,0.5988,0.5928,0.5601,0.5048,0.4059,0.3347,0.2938,0.1937,0.0749,-0.0563,-0.0696,-0.0831,-0.0922,0.0,-0.1281,-0.1293,-0.1987,-0.288,-0.3935,-0.4964,-0.5978,-0.6929,-0.7409,-0.7546,-0.7489,0.0,0.0,0.0,0.0,0.0,0.0,0.0,0.0,0.0,0.0,0.0,0.0,0.0,0.0,0.0,0.0,0.0,0.0,0.0,1.8513,1.8597,1.907,1.9186,1.9222,1.9107,1.9695,2.0242,2.0699,2.0699,2.0699,2.0687,2.0233,1.9862,1.9566,1.8685,1.8159,1.7897,1.7451,1.7306,0.0,0.0,0.0,0.0,0.0,0.0,0.0,0.0,0.0,0.0,0.0,0.0,0.0,0.0,0.0,0.0,1.552,1.5615,1.5845,1.6569,1.6697,1.6473,1.5754,1.5286,1.4974,1.4653,1.4207,1.373,1.3237,0.0,0.0,0.0,1.2305,0.0,1.1772,1.1232,1.0634,0.9978,0.8621,0.7686,0.7632,0.6825,0.6351,0.6336,0.638,0.6374,0.6265,0.6257,0.6248,0.6146,0.5871,0.5678,0.5678,0.5325,0.4732,0.3888,0.2702,0.214,0.2264,0.1295,0.0275,-0.078,-0.0994,-0.1121,-0.1166,-0.1345,-0.1524,-0.1795,-0.2598,-0.3621,-0.4858,-0.5627,-0.6551,-0.7492,-0.7492,-0.7417,-0.7378,0.0,0.0,0.0,0.0,0.0,0.0,0.0,0.0,0.0,0.0,0.0,0.0,0.0,0.0,0.0,0.0,0.0,0.0,0.0,1.9831,2.0168,2.0274,2.0288,2.0121,1.9734,2.0321,2.0673,2.0699,2.0699,2.0699,2.0699,2.0649,2.008,1.904,1.896,1.8344,1.7362,1.7306,1.7306,1.7306,1.7306,0.0,0.0,0.0,0.0,0.0,0.0,0.0,0.0,0.0,0.0,0.0,0.0,0.0,1.5761,1.5287,1.5404,1.579,1.6239,1.6101,1.5868,1.5798,1.5613,1.5144,1.389,1.3571,1.3273,1.2298,0.0,0.0,0.0,1.2318,1.206,1.0332,1.0088,0.9368,0.7352,0.0,0.668,0.646,0.6255,0.6142,0.6111,0.6214,0.6187,0.5958,0.604,0.6002,0.5739,0.53,0.5067,0.5067,0.3981,0.3355,0.327,0.1655,0.0905,0.1017,-0.0045,-0.0719,-0.1079,-0.1077,-0.1211,-0.1391,-0.1391,-0.1928,-0.2778,-0.2872,-0.3991,-0.5599,-0.5696,-0.6281,-0.7129,-0.7129,-0.7122,-0.7248,0.0,0.0,0.0,0.0,0.0,0.0,0.0,0.0,0.0,0.0,0.0,0.0,0.0,0.0,0.0,0.0,0.0,0.0,0.0,2.0816,2.0953,2.132,2.0775,2.056,2.0796,2.0729,2.0699,2.0699,2.0699,2.0699,2.0699,2.0699,2.0258,1.9474,1.9146,1.8548,1.7788,1.7434,1.7306,1.7306,1.7306,0.0,0.0,0.0,0.0,0.0,0.0,0.0,0.0,0.0,1.7529,1.7182,1.6528,1.6124,1.578,1.5249,1.5377,1.5739,1.5875,1.5782,1.5507,1.4974,1.4545,1.407,1.3288,1.2668,1.2111,1.1558,1.1632,0.0,0.0,0.0,1.1543,1.0671,0.953,0.8436,0.7429,0.6738,0.6297,0.6202,0.6113,0.6086,0.6086,0.6127,0.6116,0.6024,0.5709,0.5519,0.539,0.4414,0.3888,0.3888,0.2994,0.2189,0.1475,0.085,0.018,-0.0544,-0.081,-0.1076,-0.13,-0.13,-0.1345,-0.1436,-0.2062,-0.2491,-0.2809,-0.4033,-0.4868,-0.5494,-0.6096,-0.6525,-0.6878,-0.693,-0.7433,-0.8174,0.0,0.0,0.0,0.0,0.0,0.0,0.0,0.0,0.0,0.0,0.0,0.0,0.0,0.0,0.0,0.0,0.0,0.0,2.2044,2.1756,2.1856,2.2402,2.1327,2.0982,2.1599,2.1008,2.0699,2.0699,2.0699,2.0699,2.0699,2.0699,2.0385,1.9773,1.9251,1.8655,1.8066,1.7534,1.7306,1.7306,1.7306,1.7306,0.0,0.0,0.0,0.0,0.0,0.0,0.0,0.0,1.7562,1.722,1.6744,1.6271,1.5819,1.5432,1.5409,1.5512,1.5465,1.5428,1.5188,1.4258,1.3688,1.3178,1.2709,1.2128,1.16,1.13,1.1489,1.174,1.1712,0.0,0.0,0.0,0.8988,0.7896,0.727,0.6587,0.6123,0.6029,0.5996,0.5975,0.5975,0.6007,0.587,0.5457,0.5048,0.4645,0.4249,0.3199,0.2638,0.2638,0.1788,0.0939,0.0134,-0.0045,-0.0582,-0.1391,-0.1247,-0.1248,-0.139,-0.1381,-0.1554,-0.1819,-0.251,-0.3045,-0.3557,-0.4881,-0.5557,-0.5815,-0.6446,-0.6702,-0.6753,-0.7151,-0.7816,-0.8661,0.0,0.0,0.0,0.0,0.0,0.0,0.0,0.0,0.0,0.0,0.0,0.0,0.0,0.0,0.0,0.0,0.0,0.0,2.2748,2.2703,2.2987,2.3565,2.2074,2.1493,2.2091,2.1191,2.0699,2.0699,2.0699,2.0699,2.0699,2.0699,2.0385,1.9798,1.9239,1.8682,1.8066,1.7534,1.7306,1.7306,1.7306,1.7306,1.7306,0.0,0.0,0.0,0.0,0.0,0.0,0.0,1.7306,1.7222,1.6751,1.6285,1.5877,1.5827,1.5472,1.5096,1.4926,1.5028,1.4911,1.3781,1.3178,1.2716,1.215,1.2009,1.1908,1.155,1.191,1.2093,1.1407,1.1278,0.0,0.8528,0.8281,0.7898,0.6502,0.6276,0.6182,0.5947,0.5803,0.5688,0.5688,0.5788,0.5345,0.3979,0.4006,0.3515,0.2146,0.1654,0.1387,0.1387,0.0224,-0.0403,-0.0403,-0.1076,-0.139,-0.1389,-0.1404,-0.1406,-0.1389,-0.1403,-0.1865,-0.2598,-0.2627,-0.3644,-0.5311,-0.5311,-0.5856,-0.6698,-0.6698,-0.6695,-0.6819,-0.7835,-0.8205,-0.8487,0.0,0.0,0.0,0.0,0.0,0.0,0.0,0.0,0.0,0.0,0.0,0.0,0.0,0.0,0.0,0.0,0.0,0.0,2.3325,2.3325,2.34,2.3595,2.2476,2.1913,2.2105,2.1191,2.0699,2.0699,2.0699,2.0699,2.0699,2.0699,2.0599,2.041,1.9811,1.9462,1.924,1.8267,1.787,1.7843,1.7462,1.7306,1.7306,0.0,0.0,0.0,0.0,0.0,0.0,0.0,0.0,0.0,1.6751,1.6483,1.6257,1.5914,1.5665,1.5463,1.518,1.4566,0.0,1.376,0.0,0.0,0.0,1.1828,1.1678,0.0,1.1393,1.1035,1.1031,0.9957,0.0,0.8313,0.7388,0.6627,0.623,0.6009,0.5832,0.5784,0.571,0.5419,0.4792,0.4585,0.4047,0.2994,0.2472,0.2025,0.161,0.0671,0.0134,0.0134,-0.0672,-0.1113,-0.1097,-0.1316,-0.1393,-0.1331,-0.1957,-0.1931,-0.1402,-0.197,-0.2373,-0.2668,-0.3946,-0.4729,-0.5146,-0.5747,-0.6264,-0.6623,-0.6623,-0.7049,-0.7725,-0.8131,-0.9131,-1.0419,0.0,0.0,0.0,0.0,0.0,0.0,0.0,0.0,0.0,0.0,2.3595,0.0,0.0,0.0,0.0,0.0,0.0,0.0,0.0,2.3595,2.3595,2.3595,2.2838,2.2235,2.1837,2.1264,2.0898,2.0699,2.0699,2.0699,2.0699,2.0699,2.0699,2.0674,2.0067,1.9798,1.9721,1.8578,1.8093,1.8038,1.7507,1.7306,1.7306,0.0,0.0,0.0,0.0,0.0,0.0,0.0,0.0,0.0,1.6987,1.6597,1.6238,1.6129,1.5693,1.5144,1.4645,1.4067,0.0,1.2879,1.2365,1.1929,1.1706,0.0,0.0,0.0,1.0756,1.0173,0.9889,0.8931,0.0,0.7438,0.6653,0.6083,0.5952,0.5819,0.5555,0.5196,0.5151,0.4746,0.3669,0.3439,0.2893,0.1768,0.1247,0.0802,0.031,-0.0402,-0.0807,-0.0807,-0.1211,-0.1421,-0.1391,-0.1736,-0.1846,-0.1808,-0.2661,-0.2834,-0.2366,-0.2873,-0.3268,-0.3637,-0.5151,-0.5737,-0.5701,-0.6288,-0.6602,-0.6753,-0.7057,-0.7548,-0.8208,-0.8981,-1.0028,-1.113,0.0,0.0,0.0,0.0,0.0,0.0,0.0,0.0,0.0,0.0,2.3595,2.3595,0.0,0.0,0.0,0.0,0.0,0.0,0.0,2.3595,2.3595,2.3595,2.3157,2.2434,2.1423,2.1399,2.118,2.0699,2.0699,2.0699,2.0699,2.0699,2.0699,2.0687,2.0118,1.985,1.9721,1.8632,1.8147,1.8038,1.7507,1.7306,1.7306,1.7306,0.0,0.0,0.0,0.0,0.0,0.0,0.0,0.0,1.7294,1.6662,1.5988,1.6391,1.5564,1.4396,1.3759,1.3608,1.3244,1.1589,1.1558,0.0,1.1149,1.0678,1.0372,1.0474,0.0,0.9395,0.8372,0.8102,0.7574,0.6281,0.6057,0.5968,0.573,0.5636,0.5225,0.4421,0.4204,0.3662,0.249,0.2314,0.1724,0.039,0.0264,-0.0221,-0.1344,-0.1414,-0.1385,-0.1383,-0.1474,-0.1503,-0.1511,-0.2285,-0.2729,-0.2709,-0.3548,-0.3955,-0.3955,-0.3955,-0.44,-0.5239,-0.6191,-0.6637,-0.6641,-0.6826,-0.6942,-0.7092,-0.7851,-0.8232,-0.8575,-1.0222,-1.0858,-1.1087,0.0,0.0,0.0,0.0,0.0,0.0,0.0,0.0,0.0,0.0,0.0,0.0,0.0,0.0,0.0,0.0,0.0,0.0,0.0,2.3595,2.3595,2.3595,2.3157,2.2434,2.1423,2.1399,2.118,2.0699,2.0699,2.0699,2.0699,2.0699,2.0699,2.0699,2.0574,2.0233,1.9759,1.9081,1.8536,1.8038,1.7507,1.7306,1.7306,1.7306,1.7306,0.0,0.0,0.0,0.0,0.0,0.0,0.0,1.7233,1.6654,1.6044,1.6345,1.5262,1.3981,1.4086,1.328,0.0,1.1892,1.1558,1.1074,1.0331,0.9702,0.9463,1.0321,0.9333,0.8288,0.8091,0.7204,0.6362,0.6002,0.5721,0.5598,0.5708,0.4988,0.4409,0.4324,0.3452,0.2515,0.1495,0.1081,0.0433,-0.0637,-0.0851,-0.1065,-0.1315,-0.1384,-0.1389,-0.1325,-0.1994,-0.2357,-0.2347,-0.3125,-0.3535,-0.3572,-0.4535,-0.4995,-0.4995,-0.4995,-0.5545,-0.6521,-0.6725,-0.6826,-0.6826,-0.6865,-0.7357,-0.8075,-0.8266,-0.9216,-1.0507,-1.0881,-1.144,-1.1996,0.0,0.0,0.0,0.0,0.0,0.0,0.0,0.0,0.0,0.0,0.0,0.0,0.0,0.0,0.0,0.0,0.0,0.0,0.0,0.0,2.3595,2.3595,2.3157,2.2535,2.1756,2.1506,2.118,2.0699,2.0699,2.0699,2.0699,2.0699,2.0699,2.0687,2.041,2.0093,1.9747,1.891,1.8402,1.8038,1.7507,1.7306,1.7306,1.7306,1.7306,1.7306,1.7306,0.0,0.0,0.0,0.0,0.0,0.0,0.0,1.5688,1.5638,1.4815,1.3897,1.3705,1.3039,0.0,1.1706,0.0,1.0887,1.0067,0.9396,0.8946,0.9133,0.8102,0.7194,0.7186,0.6463,0.5808,0.5661,0.5535,0.5286,0.4978,0.4471,0.3798,0.2989,0.2284,0.142,0.0337,-0.0085,-0.0509,-0.112,-0.1256,-0.13,-0.1286,-0.1732,-0.1955,-0.1935,-0.2717,-0.3189,-0.3162,-0.4087,-0.4559,-0.4528,-0.5577,-0.6121,-0.6202,-0.6121,-0.6356,-0.6903,-0.7022,-0.7249,-0.7625,-0.7706,-0.8309,-0.9173,-0.9556,-1.0276,-1.1149,-1.1521,-1.1929,-1.2305,0.0,0.0,0.0,0.0,0.0,0.0,0.0,0.0,0.0,0.0,0.0,0.0,0.0,0.0,0.0,0.0,0.0,0.0,0.0,0.0,0.0,2.3595,2.3157,2.2649,2.2105,2.1636,2.118,2.0699,2.0699,2.0751,2.0831,2.0751,2.0649,2.0524,2.0118,1.9798,1.9449,1.8605,1.8147,1.7913,1.7479,1.7306,1.7306,1.7306,1.7306,1.7317,1.7394,1.7426,1.7448,1.7525,0.0,0.0,0.0,0.0,1.5522,1.5151,1.4579,1.3916,1.3244,1.2893,1.2489,1.1372,1.1111,0.0,1.0067,0.9366,0.864,0.7807,0.6968,0.6322,0.6235,0.5895,0.5564,0.5377,0.5364,0.5113,0.4397,0.4053,0.3252,0.1753,0.1089,0.0377,-0.0625,-0.0919,-0.112,-0.1297,-0.1318,-0.1362,-0.1498,-0.2186,-0.2665,-0.2861,-0.366,-0.4078,-0.4105,-0.5146,-0.565,-0.5577,-0.6511,-0.7138,-0.745,-0.7288,-0.7207,-0.7207,-0.7369,-0.7897,-0.8685,-0.8846,-0.9372,-1.0158,-1.0844,-1.1186,-1.1409,-1.204,-1.2305,-1.2335,0.0,0.0,0.0,0.0,0.0,0.0,0.0,0.0,0.0,0.0,2.3595,2.3595,0.0,0.0,0.0,0.0,0.0,0.0,2.3595,0.0,0.0,2.3595,2.3157,2.2649,2.2105,2.1636,2.118,2.0699,2.0699,2.0936,2.1381,2.0909,2.041,1.9939,2.0385,1.9747,1.8363,1.8709,1.8317,1.7407,1.7334,1.7306,1.7306,1.7306,1.7306,1.7361,1.7759,1.7912,1.7966,1.837,1.8412,0.0,0.0,0.0,1.6332,1.6154,1.5016,1.3805,1.3691,0.0,1.1966,0.0,1.1111,1.0887,0.0,0.0,0.8481,0.0,0.6809,0.6192,0.6003,0.5615,0.5328,0.5235,0.5129,0.5095,0.5214,0.3792,0.2606,0.232,0.0664,-0.058,-0.0836,-0.1091,-0.1255,-0.1305,-0.1307,-0.1623,-0.2287,-0.2496,-0.2986,-0.3872,-0.4746,-0.5223,-0.5377,-0.6232,-0.669,-0.6707,-0.7022,-0.7638,-0.8513,-0.847,-0.847,-0.847,-0.847,-0.896,-0.9701,-0.9744,-1.0201,-1.0962,-1.1074,-1.1521,-1.215,-1.2261,-1.2305,-1.2409,0.0,0.0,0.0,0.0,0.0,0.0,0.0,0.0,0.0,0.0,0.0,2.3595,0.0,0.0,0.0,2.3595,2.3595,2.3595,2.3595,2.3595,2.3486,2.3224,2.2717,2.2212,2.1708,2.1253,2.0923,2.0699,2.0699,2.0805,2.1053,2.1132,2.1173,2.1234,2.0861,2.009,1.9045,1.8654,1.8045,1.7306,1.7306,1.7403,1.7546,1.7654,1.7788,1.7951,1.8286,1.8392,1.8425,1.8622,1.8627,1.8446,1.7633,0.0,0.0,0.0,1.4732,1.3867,1.3425,1.2666,1.1855,0.0,1.1111,1.0775,0.9496,0.897,0.8307,0.6837,0.6192,0.5826,0.57,0.5371,0.511,0.5083,0.505,0.4695,0.3903,0.3039,0.2107,0.1035,0.0,-0.0724,-0.0866,-0.1546,-0.1985,-0.1963,-0.243,-0.2859,-0.321,-0.3789,-0.4302,-0.4766,-0.5716,-0.6269,-0.6321,-0.7276,-0.8037,-0.8571,-0.8689,-0.8955,-0.9372,-0.9372,-0.9372,-0.9372,-0.9372,-0.9825,-1.0576,-1.0576,-1.1068,-1.1781,-1.1781,-1.2003,-1.2305,-1.2305,-1.2592,-1.3025,0.0,0.0,0.0,0.0,0.0,0.0,0.0,0.0,0.0,0.0,0.0,0.0,0.0,0.0,0.0,0.0,2.3595,2.3595,2.3595,2.3595,2.3443,2.3091,2.2452,2.1931,2.1602,2.1008,2.0699,2.0699,2.0699,2.0856,2.1144,2.1538,2.2126,2.2778,2.1453,2.0459,1.9706,1.8828,1.8143,1.7639,1.761,1.7691,1.7887,1.7997,1.8194,1.8375,1.8718,1.8823,1.8833,1.8984,1.9028,1.8831,1.7787,1.6992,0.0,0.0,0.0,1.3909,0.0,0.0,1.1948,1.1279,1.1111,1.0738,0.0,0.0,0.8161,0.0,0.5825,0.5509,0.5411,0.5154,0.5018,0.5018,0.4818,0.4268,0.3012,0.2386,0.1566,0.0118,-0.0432,-0.0825,-0.1256,-0.2041,-0.2588,-0.2821,-0.3443,-0.3908,-0.4181,-0.4877,-0.5461,-0.5774,-0.6742,-0.7322,-0.7361,-0.8304,-0.9173,-0.9895,-0.9895,-1.0008,-1.0196,-1.0196,-1.0308,-1.0496,-1.0308,-1.0651,-1.1409,-1.1409,-1.1744,-1.2305,-1.2305,-1.2305,-1.2342,-1.2556,-1.3025,-1.3637,0.0,0.0,0.0,0.0,0.0,0.0,0.0,0.0,0.0,0.0,0.0,0.0,2.3595,2.3595,2.3595,2.3595,2.3595,2.3595,2.3595,2.3595,2.3595,2.3551,2.2634,0.0,2.2058,2.1166,2.0699,2.0699,2.0699,2.1262,2.2296,2.2335,2.2962,2.3923,2.2163,2.0746,1.9709,1.9521,1.9108,1.8611,1.843,1.836,1.8351,1.8221,1.8211,1.8286,1.8932,1.9156,1.9252,1.9824,1.9933,1.9792,1.953,1.8626,1.7503,0.0,0.0,0.0,0.0,1.2647,0.0,1.1304,1.1111,1.0887,0.0,0.0,0.8118,0.7053,0.6015,0.5246,0.5062,0.5021,0.5018,0.5018,0.4343,0.383,0.3752,0.2151,0.0862,0.0587,-0.0314,-0.1295,-0.2314,-0.247,-0.286,-0.3675,-0.3791,-0.4217,-0.519,-0.5267,-0.5851,-0.7065,-0.7893,-0.8423,-0.8585,-0.9405,-0.9852,-0.9895,-0.9895,-1.0314,-1.1037,-1.1037,-1.1446,-1.2114,-1.1372,-1.1484,-1.2224,-1.2224,-1.2261,-1.2305,-1.2305,-1.2305,-1.2409,-1.331,-1.3637,-1.3926,0.0,0.0,0.0,0.0,0.0,0.0,0.0,0.0,0.0,0.0,0.0,0.0,0.0,2.3595,2.3595,2.3595,2.3595,2.3595,2.3595,2.3595,2.3465,2.3157,2.2475,2.1955,2.166,2.1033,2.0699,2.0699,2.0699,2.0908,2.1328,2.1655,2.2014,2.2344,2.2065,2.151,2.0742,1.9876,1.9186,1.8687,1.8475,1.8536,1.8721,1.8658,1.8754,1.8944,1.9307,1.9468,1.949,1.9726,1.9747,1.9638,1.9208,1.8273,1.706,1.5789,1.4637,0.0,0.0,0.0,0.0,1.1333,1.0712,1.0061,0.9082,0.8214,0.7314,0.6289,0.567,0.5243,0.5054,0.5018,0.4818,0.4304,0.3988,0.3441,0.2348,0.1448,0.0627,-0.0078,-0.1098,-0.1922,-0.2431,-0.3485,-0.4224,-0.4535,-0.5082,-0.5628,-0.6089,-0.6244,-0.6815,-0.7931,-0.8389,-0.9112,-1.0244,-1.0545,-1.0913,-1.1434,-1.1434,-1.1589,-1.1855,-1.1855,-1.204,-1.2268,-1.2003,-1.204,-1.2305,-1.2305,-1.2305,-1.2342,-1.2879,-1.3135,-1.331,-1.4142,-1.4851,-1.549,0.0,0.0,0.0,0.0,0.0,0.0,0.0,0.0,0.0,2.3595,0.0,0.0,0.0,0.0,2.3595,2.3595,2.3595,2.3595,2.3595,2.3595,2.3399,2.2912,2.2397,2.1884,2.1423,2.0947,2.0699,2.0699,2.0699,2.0779,2.0975,2.1328,2.148,2.144,2.1774,2.1666,2.1227,2.0152,1.9507,1.9147,1.8898,1.8955,1.9137,1.9072,1.9111,1.9274,1.9506,1.9407,1.9131,1.9198,1.9054,1.8787,1.8375,1.7507,1.6366,1.4871,1.4045,0.0,1.3126,0.0,0.0,0.0,1.0551,0.9732,0.8465,0.0,0.7015,0.5738,0.5323,0.5168,0.5015,0.5018,0.474,0.3949,0.3558,0.2854,0.137,0.0705,0.0118,-0.0628,-0.1648,-0.2469,-0.2899,-0.4185,-0.5121,-0.5395,-0.6022,-0.649,-0.6676,-0.7038,-0.7764,-0.8958,-0.9153,-0.9853,-1.1209,-1.1209,-1.1463,-1.2004,-1.2004,-1.2064,-1.2158,-1.2231,-1.2321,-1.2415,-1.2739,-1.2666,-1.2305,-1.2378,-1.2556,-1.2842,-1.3426,-1.389,-1.4314,-1.5171,-1.5877,-1.6472,0.0,0.0,0.0,0.0,0.0,0.0,0.0,0.0,2.3595,2.3595,0.0,0.0,0.0,0.0,0.0,2.3595,2.3595,2.3595,2.3595,2.3595,2.3399,2.2912,2.2397,2.1884,2.1423,2.0947,2.0699,2.0699,2.0699,2.0962,2.1485,2.1459,2.1454,2.1443,2.1297,2.1165,2.1017,2.0388,2.0118,2.0085,1.9747,1.9615,1.9593,1.9351,1.9196,1.9139,1.9417,1.8931,1.8192,1.8375,1.7993,1.737,1.7145,1.6489,1.5555,1.4447,1.3846,0.0,0.0,0.0,0.0,0.0,0.0,0.0,0.8316,0.0,0.7203,0.5633,0.5129,0.5018,0.5018,0.4976,0.4696,0.3906,0.3049,0.2112,0.1018,0.0,-0.0668,-0.0864,-0.1884,-0.286,-0.3713,-0.453,-0.5389,-0.6251,-0.6479,-0.6661,-0.6888,-0.7551,-0.863,-1.0153,-1.0217,-1.0597,-1.1389,-1.1389,-1.1389,-1.143,-1.143,-1.1577,-1.1928,-1.2148,-1.2384,-1.2696,-1.3637,-1.3382,-1.2395,-1.2586,-1.3084,-1.3715,-1.3947,-1.4514,-1.5323,-1.628,-1.6636,-1.6784,0.0,0.0,0.0,0.0,0.0,2.3595,2.3595,2.3595,2.3595,0.0,0.0,0.0,2.3595,2.3595,2.3595,2.3595,2.3595,2.3595,2.3595,2.3595,2.3399,2.2912,2.2397,2.1884,2.1423,2.0947,2.0699,2.0699,2.0699,2.0791,2.0909,2.0476,2.0234,2.0207,1.9965,1.9821,1.9743,1.9998,2.0118,2.0085,1.9747,1.9818,1.9982,1.8809,1.8705,1.9041,1.8012,1.7647,1.7574,1.7414,1.7207,1.6932,1.6341,1.5617,1.4891,1.4267,1.3513,1.2806,1.25,0.0,0.0,0.0,0.0,0.0,0.0,0.0,0.6504,0.5397,0.5065,0.5018,0.5018,0.4519,0.3853,0.3009,0.2669,0.1918,0.0275,-0.0314,-0.0668,-0.0864,-0.239,-0.3521,-0.3791,-0.4961,-0.5899,0.0,-0.6252,-0.6372,-0.6664,-0.805,-0.9265,-1.0182,-1.077,-1.1183,-1.1389,-1.1389,-1.1464,-1.1635,-1.1635,-1.1984,-1.265,-1.3023,-1.3487,-1.4018,-1.4624,-1.4486,-1.3898,-1.3933,-1.3931,-1.3938,-1.4856,-1.5429,-1.5822,-1.6992,-1.7501,-1.7647,0.0,0.0,0.0,0.0,0.0,2.3595,2.3595,2.3595,2.3595,0.0,0.0,0.0,2.4403,2.4433,2.4433,2.4433,2.4178,2.4007,2.4007,2.3759,2.3275,2.2603,2.2267,2.1789,2.1106,2.0848,2.0699,2.0699,2.0699,2.0699,2.0687,2.0283,1.9941,1.9698,1.9626,1.9443,1.9232,1.9684,1.9878,1.9878,1.9572,1.9546,1.9579,1.8675,1.8476,1.8541,1.7597,1.7124,1.6874,1.6554,1.621,1.586,1.5444,1.4912,1.4388,1.4006,1.3362,1.2767,1.2498,1.1831,0.0,1.069,0.0,0.0,0.7555,0.6896,0.6245,0.0,0.4886,0.4866,0.4866,0.4243,0.342,0.2563,0.2106,0.1334,-0.0193,-0.0585,-0.0825,-0.1021,-0.2701,-0.3791,-0.3791,-0.5284,-0.6283,-0.6288,-0.6386,-0.6745,-0.7478,-0.8745,-0.973,-1.0363,-1.1056,-1.1485,-1.157,-1.1833,-1.2062,-1.2225,-1.2225,-1.2561,-1.3125,-1.3469,-1.3903,-1.4412,-1.507,-1.5119,-1.4701,-1.5029,-1.4887,-1.4584,-1.5537,-1.6166,-1.6622,-1.7484,-1.809,-1.8428,0.0,0.0,2.376,2.3616,2.367,2.3714,2.3714,2.3774,2.3819,0.0,2.4335,2.4933,2.5516,2.5615,2.5615,2.5615,2.5053,2.4686,2.4618,2.4037,2.3259,2.2268,2.2151,2.1708,2.0804,2.0738,2.0699,2.0699,2.0699,2.0688,2.0678,2.048,2.0138,1.9654,1.9821,1.9585,1.9157,1.9413,1.9506,1.9407,1.9241,1.9029,1.8804,1.8545,1.8184,1.7758,1.7451,1.6856,1.613,1.5784,1.5196,1.4605,1.4605,1.4359,1.4037,1.3688,1.3378,1.3036,1.2586,1.1799,1.1038,1.0841,0.99,0.0,0.7333,0.6818,0.6233,0.0,0.4679,0.4684,0.4671,0.409,0.3327,0.2525,0.1589,0.0585,-0.045,-0.0769,-0.1013,-0.1364,-0.2797,-0.3801,-0.3915,-0.5487,-0.6497,-0.6426,-0.6838,-0.7588,-0.8801,-0.9448,-1.0033,-1.0694,-1.124,-1.1663,-1.1896,-1.252,-1.2887,-1.3009,-1.3009,-1.3205,-1.3542,-1.375,-1.4047,-1.4466,-1.5321,-1.5473,-1.5096,-1.5951,-1.5937,-1.5464,-1.6028,-1.6769,-1.7563,-1.7953,-1.8529,-1.911,0.0,2.3818,2.376,2.3616,2.4059,2.4395,2.4395,2.4859,2.5211,2.5211,2.5307,2.5442,2.56,2.5615,2.5615,2.5615,2.5495,2.5195,2.4699,2.4558,2.4012,2.2963,2.2499,2.1978,2.1367,2.0923,2.0699,2.0699,2.0699,2.0655,2.0529,2.0079,1.9681,1.9365,1.9186,1.8956,1.8743,1.9043,1.8854,1.8307,1.8385,1.86,1.8685,1.7031,1.6729,1.6995,1.5688,1.5284,1.5348,1.4977,1.4748,1.4605,1.4605,1.4359,1.4037,1.3688,1.3537,1.3245,1.1981,1.1553,1.1202,1.0003,0.9361,0.0,0.6902,0.6562,0.6199,0.0,0.4618,0.466,0.4558,0.3942,0.3356,0.3076,0.1667,0.032,-0.0476,-0.0774,-0.1183,-0.1921,-0.2915,-0.3834,-0.4528,-0.5418,-0.6292,-0.7121,-0.7822,-0.852,-0.9312,-0.95,-1.0117,-1.1303,-1.1593,-1.202,-1.2612,-1.2856,-1.3039,-1.3161,-1.3161,-1.3558,-1.4288,-1.4664,-1.5164,-1.5761,-1.628,-1.6247,-1.5962,-1.7022,-1.6889,-1.5975,-1.6417,-1.7276,-1.825,-1.8657,-1.9276,-1.9901,2.3839,2.3797,2.376,2.3616,2.4141,2.4605,2.4605,2.5173,2.5615,2.5615,2.5899,2.6228,2.6557,2.6342,2.6154,2.6154,2.5598,2.512,2.4818,2.4494,2.3946,2.3134,2.285,2.2442,2.1956,2.1695,2.1264,2.0694,2.0937,2.0556,1.9602,1.9757,1.9408,1.8613,1.8945,1.8821,1.8438,1.8905,1.8654,1.8003,1.807,1.7902,1.7502,1.6428,1.6176,1.622,1.5241,1.4911,1.4887,1.4668,1.4605,1.4605,1.4605,1.4147,1.3696,1.38,1.3517,1.2978,1.224,1.1764,1.1223,1.008,0.9219,0.0,0.0,0.651,0.597,0.499,0.4637,0.4473,0.4317,0.3765,0.3256,0.3134,0.1649,0.0379,0.0,-0.0645,-0.1348,-0.211,-0.2982,-0.3851,-0.4712,-0.5587,-0.6495,-0.7466,-0.8455,-0.9134,-0.9486,-0.9901,-1.0598,-1.1624,-1.2143,-1.2757,-1.3485,-1.3893,-1.4163,-1.4302,-1.4302,-1.4519,-1.4951,-1.515,-1.5604,-1.6206,-1.6407,-1.6585,-1.679,-1.7352,-1.7448,-1.7265,-1.7823,-1.8386,-1.8966,-1.9447,-2.0117,-2.0773,2.3797,2.376,2.3762,2.3796,2.4335,2.4844,2.4963,2.5555,2.5989,2.5989,2.6355,2.6827,2.7363,2.6878,2.6537,2.6537,2.5641,2.5027,2.4921,2.4408,2.3883,2.3339,2.3192,2.2924,2.2557,2.2453,2.1856,2.0788,2.1147,2.0493,1.89,1.9602,1.9324,1.8207,1.8821,1.8731,1.8172,1.8519,1.8172,1.7404,1.7404,1.6915,1.6189,1.5926,1.563,1.5284,1.4912,1.4558,1.4281,1.4425,1.4461,1.4453,1.4569,1.3945,1.3286,1.3785,1.3305,1.2577,1.2409,1.1833,1.1108,1.0156,0.9108,0.8082,0.0,0.0,0.0,0.5219,0.4761,0.4392,0.0,0.0,0.0,0.0,0.0,0.0,0.0,-0.0418,0.0,-0.2114,-0.2936,-0.3792,-0.4714,-0.6026,-0.709,-0.7793,-0.9022,-0.9773,-0.9926,-1.0598,-1.1382,-1.2197,-1.2879,-1.3606,-1.4371,-1.4961,-1.5284,-1.541,-1.5526,-1.5575,-1.5575,-1.5719,-1.6054,-1.65,-1.6528,-1.6894,-1.7473,-1.7673,-1.8053,-1.8559,-1.9127,-1.9474,-1.9732,-2.0348,-2.1017,-2.1683,2.3653,2.3616,2.3811,2.438,2.5038,2.5689,2.6273,2.6941,2.7375,2.7375,2.6964,2.6727,2.68,2.6256,2.5906,2.5906,2.5781,2.5507,2.5009,2.4926,2.4605,2.4003,2.3478,2.3147,2.3104,2.265,2.1955,2.1051,2.1113,2.0608,1.9585,1.9702,1.9519,1.9117,1.858,1.8206,1.7969,1.7413,1.6428,1.5253,1.5253,1.5471,1.5716,1.4537,1.4053,1.3938,1.3367,1.3148,1.3185,1.3724,1.3905,1.3977,1.4461,1.3947,1.3201,1.3294,1.2835,1.2154,1.1335,1.1064,1.0717,0.9233,0.86,0.8015,0.6981,0.0,0.6313,0.5319,0.0,0.4815,0.4204,0.0,0.0,0.0,0.0,0.0,0.0941,-0.0233,-0.1356,-0.2032,-0.2774,-0.365,-0.4694,-0.6915,-0.8294,-0.8403,-0.9702,-1.0793,-1.1485,-1.1648,-1.232,-1.3726,-1.3936,-1.4401,-1.5088,-1.5284,-1.5391,-1.541,-1.594,-1.6197,-1.6226,-1.6877,-1.7213,-1.7268,-1.7385,-1.7495,-1.7667,-1.8675,-1.913,-1.9179,-1.9154,-1.9742,-2.0729,-2.1241,-2.192,-2.2555,2.3814,2.3968,2.4261,2.456,2.5495,2.6042,2.5673,2.5889,2.6104,2.6104,2.6134,2.6176,2.6176,2.566,2.5189,2.4797,2.4427,2.4137,2.3917,2.3901,2.3943,2.4083,2.3489,2.3131,2.3131,2.2464,2.1592,2.0529,2.0703,2.006,1.8674,1.9201,1.8984,1.8137,1.8097,1.7833,1.7345,1.7035,1.6332,1.5384,1.5048,1.4807,1.4545,1.3615,1.3295,1.3258,1.3003,1.29,1.2893,1.2908,1.3091,1.3251,1.2974,1.2572,1.2158,1.2152,1.1804,1.1335,1.0816,1.0337,0.9805,0.8918,0.8194,0.7479,0.6838,0.6445,0.6017,0.5253,0.0,0.0,0.0,0.0,0.0,0.0,0.2032,0.1084,0.0,0.0,-0.1297,0.0,0.0,0.0,-0.5477,-0.7022,-0.8069,-0.8458,-0.9518,-1.0629,-1.1741,-1.1989,-1.2718,-1.4055,-1.4282,-1.4677,-1.5313,-1.5362,-1.5604,-1.6036,-1.6283,-1.6641,-1.7052,-1.7357,-1.7699,-1.8038,-1.8108,-1.8379,-1.8804,-1.9284,-1.9715,-2.007,-2.0335,-2.0832,-2.1427,-2.1747,-2.2508,-2.3352,2.4487,2.4657,2.4828,2.4713,2.55,2.585,2.5065,2.4967,2.5047,2.5216,2.5435,2.5577,2.5577,2.4908,2.4266,2.379,2.3182,2.2847,2.2847,2.2997,2.322,2.3497,2.325,2.2955,2.2683,2.2175,2.1346,2.0146,2.0379,1.9725,1.8249,1.8928,1.8724,1.7774,1.7721,1.7413,1.6862,1.6298,1.564,1.4939,1.4343,1.3542,1.2689,1.2439,1.2224,1.204,1.1768,1.1657,1.165,1.144,1.1551,1.1749,1.1329,1.0889,1.0562,1.0664,1.0347,0.9884,0.986,0.9295,0.8718,0.8493,0.768,0.689,0.6747,0.628,0.5723,0.509,0.4661,0.0,0.0,0.0,0.3359,0.2944,0.0,0.097,0.0,-0.0287,0.0,0.0,0.0,0.0,0.0,-0.6917,-0.7809,-0.8511,-0.935,-1.0535,-1.2104,-1.242,-1.3152,-1.4481,-1.4667,-1.4971,-1.541,-1.5613,-1.5979,-1.6492,-1.6877,-1.7341,-1.7852,-1.807,-1.8379,-1.8818,-1.9004,-1.9371,-1.9888,-2.0029,-2.0371,-2.0873,-2.1245,-2.1613,-2.1971,-2.2442,-2.3144,-2.3911,2.5834,2.5718,2.5405,2.4975,2.4922,2.4953,2.4994,2.5003,2.5202,2.5712,2.5342,2.5033,2.5033,2.3901,2.3148,2.3148,2.2531,2.2132,2.2132,2.2743,2.2756,2.2002,2.2695,2.2652,2.1678,2.1815,2.1353,2.0279,2.029,1.9879,1.9056,1.9088,1.9098,1.8977,1.7584,1.6932,1.6759,1.4752,1.3542,1.2936,1.2335,1.126,1.0105,1.0645,1.0501,0.9879,0.8879,0.8533,0.8604,0.8916,0.9062,0.9213,0.9691,0.9203,0.8462,0.8864,0.8315,0.769,0.8069,0.7766,0.7423,0.7753,0.7031,0.6329,0.6618,0.628,0.5657,0.4791,0.4592,0.4325,0.3389,0.2954,0.2696,0.2625,0.1481,0.0,0.0,0.0,0.0,0.0,0.0,0.0,0.0,-0.6757,-0.7892,-0.865,-0.9457,-1.0861,-1.3045,-1.3161,-1.3846,-1.5323,-1.5381,-1.5381,-1.541,-1.6122,-1.6492,-1.6521,-1.7809,-1.8444,-1.8498,-1.92,-1.9565,-1.9604,-2.0258,-2.056,-2.061,-2.114,-2.1345,-2.1369,-2.1396,-2.1727,-2.2327,-2.3501,-2.3946,-2.4095,2.5437,2.5429,2.5239,2.4956,2.4609,2.423,2.3863,2.3811,2.3697,2.3448,2.3612,2.3564,2.3135,2.2713,2.2255,2.1834,2.1585,2.1439,2.1439,2.1647,2.1803,2.1908,2.1753,2.1428,2.0942,2.0452,2.0009,1.9649,1.9551,1.9353,1.9108,1.9108,1.8831,1.8341,1.7345,1.6402,1.5508,1.4322,1.3433,1.2783,1.165,1.0689,0.9841,0.9405,0.9102,0.8841,0.8385,0.8194,0.819,0.8028,0.8176,0.8333,0.7986,0.7833,0.7736,0.7472,0.6836,0.6228,0.6264,0.5513,0.4919,0.5791,0.5427,0.5018,0.5519,0.5322,0.4858,0.4192,0.3859,0.3493,0.2956,0.2748,0.2445,0.1904,0.1078,0.0343,0.0,-0.1336,-0.212,-0.2131,-0.3402,0.0,0.0,0.0,-0.7809,-0.8957,-0.994,-1.1361,-1.3351,-1.3841,-1.446,-1.5381,-1.5864,-1.6122,-1.6122,-1.6866,-1.7468,-1.7961,-1.8421,-1.8886,-1.9371,-2.0003,-2.0258,-2.0308,-2.0968,-2.1248,-2.1272,-2.1524,-2.1795,-2.2128,-2.2128,-2.2464,-2.2983,-2.345,-2.4076,-2.4876,2.5237,2.4975,2.4648,2.4631,2.3984,2.3342,2.2976,2.2874,2.2764,2.2535,2.2653,2.2561,2.2132,2.1896,2.1585,2.1123,2.088,2.0752,2.0752,2.0912,2.104,2.1092,2.0912,2.0452,1.9705,1.9419,1.9142,1.8831,1.8998,1.9108,1.9098,1.8831,1.8452,1.7969,1.6932,1.5913,1.4827,1.389,1.2952,1.199,1.0222,0.9248,0.8732,0.7693,0.7579,0.7884,0.7314,0.7122,0.7046,0.6738,0.658,0.6496,0.5964,0.5764,0.5662,0.5243,0.4854,0.4488,0.4524,0.3784,0.3244,0.426,0.3963,0.3526,0.403,0.3816,0.3316,0.2613,0.2449,0.2181,0.1237,0.1486,0.157,0.0751,0.0287,-0.0281,0.0,-0.1941,-0.2509,-0.2669,-0.377,-0.4833,0.0,-0.6686,-0.7952,-0.9404,-1.0341,-1.1684,-1.3561,-1.4191,-1.4913,-1.5748,-1.6265,-1.6624,-1.6894,-1.7633,-1.8221,-1.8715,-1.9164,-1.9644,-2.0169,-2.0721,-2.0968,-2.1028,-2.1657,-2.1917,-2.1941,-2.217,-2.246,-2.2777,-2.2777,-2.3001,-2.3356,-2.3867,-2.4813,-2.5989,2.5191,2.4418,2.3732,2.3892,2.3069,2.24,2.24,2.2311,2.2439,2.2922,2.2439,2.2051,2.2021,2.1428,2.104,2.104,2.0453,2.0042,2.0042,2.0485,2.0377,1.9506,2.0085,1.9639,1.7969,1.8764,1.8798,1.7935,1.8654,1.8998,1.8965,1.8273,1.7935,1.7823,1.6376,1.5392,1.472,1.339,1.199,1.0484,0.8147,0.7049,0.6707,0.5667,0.5973,0.6815,0.5664,0.5204,0.5126,0.4935,0.4382,0.3752,0.3752,0.3168,0.2503,0.25,0.246,0.2511,0.2901,0.2574,0.2329,0.3115,0.2507,0.181,0.2174,0.1841,0.1172,0.0134,0.0469,0.0369,-0.1567,-0.0635,0.0134,-0.0735,-0.0883,-0.1273,-0.2353,-0.2525,-0.2734,-0.3188,-0.4275,-0.5118,-0.5479,-0.6803,-0.8335,-1.0002,-1.0648,-1.1789,-1.3724,-1.4309,-1.5167,-1.6454,-1.6578,-1.695,-1.766,-1.8421,-1.8794,-1.8821,-2.0055,-2.0734,-2.087,-2.1393,-2.169,-2.1781,-2.23,-2.2558,-2.2581,-2.3105,-2.3319,-2.3319,-2.3341,-2.3393,-2.3622,-2.4781,-2.6056,-2.7233,2.3375,2.3393,2.2918,2.1658,2.1976,2.2368,2.2264,2.261,2.2565,2.1717,2.1459,2.1155,2.0667,2.0453,2.0356,2.0356,1.9813,1.9408,1.9144,1.89,1.8455,1.776,1.791,1.775,1.7173,1.7413,1.7423,1.7173,1.7379,1.7448,1.7448,1.7276,1.6897,1.6315,1.5517,1.4486,1.3317,1.1946,1.0447,0.8908,0.7544,0.6538,0.5832,0.4802,0.4219,0.3943,0.4142,0.3754,0.3207,0.3169,0.3012,0.2815,0.2815,0.2699,0.2495,0.2488,0.2095,0.159,0.1539,0.0608,-0.0246,0.0381,-0.0102,-0.0534,0.01,-0.01,-0.05,-0.09,-0.1067,-0.1334,-0.1933,-0.1215,-0.0811,-0.1619,-0.1935,-0.2146,-0.2378,-0.3073,-0.3555,-0.3649,-0.5149,-0.607,-0.5814,-0.7167,-0.8705,-1.0336,-1.1305,-1.2502,-1.4152,-1.5157,-1.6015,-1.6698,-1.7633,-1.8221,-1.8421,-1.9554,-2.0156,-2.0283,-2.1004,-2.1379,-2.1496,-2.2021,-2.2291,-2.2337,-2.2957,-2.3253,-2.3275,-2.3458,-2.3508,-2.3566,-2.3909,-2.4881,-2.6007,-2.552,-2.6267,-2.7499,2.2378,2.2189,2.1776,2.1026,2.1238,2.1584,2.1797,2.2049,2.1959,2.1187,2.0645,2.0161,1.9791,1.9528,1.9396,1.9396,1.8977,1.8633,1.8465,1.7915,1.7463,1.7101,1.7042,1.6819,1.642,1.6733,1.6733,1.642,1.6576,1.6631,1.6621,1.5965,1.5471,1.5158,1.423,1.3359,1.2378,1.0527,0.8742,0.7099,0.6079,0.5107,0.0,0.3634,0.2895,0.2152,0.2149,0.2305,0.2503,0.2503,0.227,0.1957,0.1957,0.1448,0.0856,0.0911,0.0302,-0.0412,-0.0469,-0.12,-0.1844,-0.1615,-0.1862,-0.2072,-0.1768,-0.1935,-0.2335,-0.3027,-0.3158,-0.3489,-0.4578,-0.3575,-0.2704,-0.3004,-0.3196,-0.3373,-0.3576,-0.4305,-0.4808,-0.4819,-0.6151,-0.7071,-0.7037,-0.795,-0.9212,-1.083,-1.1671,-1.2907,-1.4736,-1.5648,-1.6564,-1.7594,-1.8611,-1.9244,-1.9529,-2.0557,-2.1088,-2.1151,-2.1728,-2.2044,-2.2146,-2.2694,-2.2957,-2.3009,-2.3588,-2.3839,-2.3861,-2.4084,-2.4173,-2.4224,-2.4803,-2.5832,-2.6971,-2.6694,-2.7294,-2.8262,2.1733,2.1113,2.0757,2.1188,2.0754,2.0523,2.0958,2.0942,2.0858,2.0762,1.9857,1.921,1.921,1.8777,1.8465,1.8442,1.8104,1.7823,1.7755,1.7111,1.6722,1.6688,1.6463,1.6097,1.5436,1.6062,1.6097,1.5551,1.5728,1.5829,1.5887,1.4438,1.3879,1.4048,1.2781,1.1814,1.1033,0.8926,0.6946,0.517,0.4256,0.3285,0.2347,0.2228,0.1682,0.0861,0.0,0.0664,0.1994,0.1876,0.1369,0.0783,0.0783,-0.0234,-0.1436,-0.1324,-0.1909,-0.2588,-0.2502,-0.2743,-0.3034,-0.3196,-0.3376,-0.3575,-0.3744,-0.3946,-0.4444,-0.5694,-0.5581,-0.5873,-0.7864,-0.6661,-0.5209,-0.48,-0.4806,-0.5049,-0.5627,-0.6135,-0.6467,-0.6563,-0.7481,0.0,-0.8791,-0.8956,-0.971,-1.135,-1.185,-1.3067,-1.5329,-1.5902,-1.6982,-1.8676,-1.9452,-2.0105,-2.061,-2.1414,-2.1795,-2.1752,-2.2337,-2.2694,-2.2844,-2.3348,-2.3646,-2.3724,-2.4183,-2.4385,-2.4405,-2.4759,-2.5005,-2.5191,-2.583,-2.6581,-2.7386,-2.805,-2.872,-2.9257,2.0704,2.094,2.1015,2.0561,2.0412,2.0157,1.9727,1.9727,1.9574,1.9023,1.8767,1.8633,1.8633,1.8566,1.8408,1.8104,1.7584,1.7001,1.6393,1.5376,1.4681,1.4394,1.3897,1.3542,1.3397,1.3535,1.3789,1.415,1.3494,1.3434,1.3877,1.2916,1.2458,1.2441,1.116,0.9204,0.6771,0.6304,0.5018,0.3242,0.2932,0.227,0.1449,0.0703,-0.0078,-0.094,-0.176,-0.1448,-0.0744,-0.1407,-0.172,-0.1838,-0.1838,-0.2083,-0.2379,-0.2357,-0.2484,-0.2705,-0.2792,-0.3737,-0.47,-0.4836,-0.5884,-0.6878,-0.6911,-0.7074,-0.7302,-0.7655,-0.7683,-0.778,-0.8355,-0.8313,-0.7913,-0.715,-0.738,-0.788,-0.8417,-0.863,-0.8795,-0.9032,-0.9826,-1.039,-1.0535,-0.9813,-1.0028,-1.1685,-1.1929,-1.3076,-1.5508,-1.6255,-1.7308,-1.8898,-2.0042,-2.0671,-2.0746,-2.1846,-2.2406,-2.2512,-2.3061,-2.337,-2.3465,-2.3931,-2.4177,-2.4198,-2.4619,-2.4784,-2.4799,-2.4863,-2.5452,-2.6331,-2.6441,-2.7501,-2.8997,-2.9266,-2.972,-3.0135,2.0433,2.06,2.0591,1.9997,1.9597,1.9156,1.8566,1.7973,1.7794,1.8432,1.8273,1.807,1.807,1.7482,1.6991,1.6715,1.5869,1.5163,1.4736,1.3998,1.3513,1.3324,1.3039,1.29,1.29,1.29,1.3039,1.3331,1.2607,1.2373,1.2635,1.1643,1.1035,1.0739,0.9182,0.7496,0.5768,0.5065,0.3779,0.2115,0.1485,0.0704,-0.0157,-0.0977,-0.1564,-0.2035,-0.2854,-0.2873,-0.2503,-0.2493,-0.2503,-0.2503,-0.2621,-0.2923,-0.3226,-0.3289,-0.3914,-0.4568,-0.4579,-0.5401,-0.6326,-0.6515,-0.7144,-0.78,-0.8237,-0.849,-0.8837,-0.9591,-0.9901,-1.0065,-1.0267,-1.0153,-0.9844,-0.9385,-0.9271,-0.9518,-1.0377,-1.0992,-1.1471,-1.1695,-1.2318,-1.2607,-1.2365,-1.1633,-1.1573,-1.2594,-1.2735,-1.3907,-1.6493,-1.7291,-1.8387,-1.9889,-2.1137,-2.1752,-2.168,-2.2612,-2.3187,-2.3428,-2.376,-2.4036,-2.4277,-2.4517,-2.4599,-2.4655,-2.5098,-2.531,-2.5378,-2.6019,-2.662,-2.7184,-2.796,-2.8804,-2.9662,-3.0106,-3.0453,-3.063,2.0053,2.0049,1.9925,1.938,1.8763,1.8138,1.756,1.6524,1.6315,1.7745,1.7413,1.7035,1.7001,1.6132,1.5436,1.5108,1.4243,1.36,1.339,1.2959,1.2709,1.2709,1.2599,1.2526,1.2526,1.2342,1.2301,1.2424,1.1712,1.1424,1.1519,1.0406,0.945,0.8578,0.717,0.5939,0.4865,0.3687,0.2339,0.0901,-0.0117,-0.0938,-0.1644,-0.2464,-0.2776,-0.2891,-0.3885,-0.4177,-0.4009,-0.3599,-0.3394,-0.3368,-0.3621,-0.4133,-0.4675,-0.4704,-0.5567,-0.6519,-0.6411,-0.6994,-0.7712,-0.8054,-0.828,-0.8629,-0.9432,-0.9775,-1.0185,-1.1255,-1.1727,-1.1981,-1.2166,-1.2028,-1.1797,-1.1628,-1.1483,-1.1683,-1.2591,-1.3348,-1.3963,-1.4317,-1.4442,-1.4434,-1.424,-1.3596,-1.3456,-1.403,-1.3763,-1.4785,-1.758,-1.8268,-1.9321,-2.0939,-2.2105,-2.2649,-2.2535,-2.3341,-2.3888,-2.4141,-2.4328,-2.4599,-2.4906,-2.502,-2.5079,-2.5118,-2.5647,-2.5866,-2.5952,-2.6946,-2.7458,-2.7727,-2.9127,-2.9768,-3.0022,-3.0847,-3.1157,-3.1117,1.886,1.9125,1.9236,1.8673,1.8142,1.7526,1.681,1.6202,1.5868,1.6035,1.5384,1.4807,1.4621,1.4665,1.443,1.3745,1.3709,1.3499,1.3003,1.2415,1.2077,1.2077,1.1558,1.126,1.126,1.055,1.0393,1.0833,0.9844,0.9599,1.0001,0.9098,0.7536,0.5511,0.5464,0.4081,0.1667,0.0967,0.0,-0.1096,-0.1917,-0.2308,-0.2464,-0.3361,-0.3675,-0.3859,-0.522,-0.5701,-0.578,-0.6379,-0.6353,-0.6114,-0.6483,-0.7,-0.7376,-0.7155,-0.7172,-0.7279,-0.7293,-0.7842,-0.8576,-0.9322,-1.0116,-1.0916,-1.1788,-1.2097,-1.222,-1.2351,-1.2543,-1.2726,-1.2879,-1.39,-1.4543,-1.3978,-1.5013,-1.5924,-1.6053,-1.5774,-1.5877,-1.6766,-1.5663,-1.5209,-1.6135,-1.5203,-1.5005,-1.6198,-1.4733,-1.5149,-1.8331,-1.8441,-1.9389,-2.155,-2.2323,-2.2694,-2.2672,-2.3702,-2.424,-2.4281,-2.4659,-2.4902,-2.5024,-2.5424,-2.5666,-2.5742,-2.6224,-2.6433,-2.6433,-2.6552,-2.6971,-2.7642,-2.8813,-2.967,-3.039,-3.1566,-3.195,-3.1896,1.8578,1.8688,1.8643,1.8104,1.7482,1.6819,1.6202,1.5144,1.443,1.443,1.453,1.4565,1.4494,1.4178,1.3663,1.2971,1.2491,1.1993,1.1365,1.1261,1.1016,1.0529,1.0433,1.0137,0.9679,0.9344,0.9261,0.9458,0.8901,0.8709,0.8861,0.7709,0.6181,0.4326,0.3351,0.2068,0.0656,-0.0273,-0.1174,-0.2113,-0.2934,-0.3219,-0.3293,-0.4589,-0.4997,-0.5075,-0.6091,-0.6438,-0.6549,-0.7285,-0.7209,-0.6845,-0.7241,-0.7456,-0.7552,-0.7573,-0.7807,-0.8069,-0.8069,-0.8962,-0.9977,-1.0375,-1.1135,-1.2012,-1.2826,-1.307,-1.3252,-1.3734,-1.4323,-1.4825,-1.4953,-1.5429,-1.5889,-1.6081,-1.6334,-1.6791,-1.7632,-1.792,-1.8312,-1.9105,-1.8684,-1.8385,-1.8589,-1.7513,-1.7222,-1.8262,-1.6695,-1.6631,-1.8907,-1.9895,-2.0954,-2.2257,-2.3427,-2.3891,-2.3659,-2.4333,-2.4819,-2.5134,-2.5307,-2.5554,-2.5903,-2.6082,-2.633,-2.659,-2.6792,-2.6989,-2.7247,-2.7696,-2.8316,-2.9075,-2.9988,-3.082,-3.155,-3.2039,-3.2196,-3.2196,1.7504,1.7504,1.7419,1.6888,1.6358,1.5799,1.5215,1.4214,1.339,1.3086,1.3309,1.3545,1.3703,1.3193,1.2486,1.1695,1.1124,1.0485,0.9736,0.9854,0.9694,0.915,0.9348,0.921,0.8647,0.8383,0.8158,0.7908,0.7633,0.7354,0.7021,0.5997,0.4558,0.2738,0.1506,0.0382,-0.0586,-0.1553,-0.2285,-0.2902,-0.395,-0.4317,-0.4365,-0.5661,-0.611,-0.6115,-0.6777,-0.709,-0.7235,-0.7956,-0.8102,-0.7975,-0.8058,-0.8103,-0.8184,-0.8448,-0.8777,-0.9128,-0.941,-1.0262,-1.1173,-1.1578,-1.2281,-1.3083,-1.3885,-1.4213,-1.456,-1.5255,-1.5892,-1.6418,-1.6539,-1.6733,-1.7058,-1.7539,-1.7643,-1.7978,-1.8962,-1.9492,-2.0042,-2.0729,-2.0566,-2.0404,-2.0465,-1.9282,-1.8971,-2.0005,-1.8804,-1.868,-2.0232,-2.1161,-2.2168,-2.331,-2.4369,-2.4784,-2.4513,-2.4942,-2.5349,-2.5721,-2.5866,-2.6136,-2.6537,-2.6657,-2.6908,-2.7276,-2.7276,-2.7446,-2.7736,-2.8248,-2.8947,-2.9769,-3.0607,-3.143,-3.2168,-3.2593,-3.2747,-3.2795,1.5095,1.5134,1.5271,1.4736,1.4637,1.4386,1.3644,1.3491,1.3129,1.2053,1.1287,1.1036,1.1585,1.1373,1.0783,0.9625,0.9596,0.9241,0.8272,0.8242,0.8242,0.8207,0.8418,0.8497,0.8502,0.7651,0.6818,0.6029,0.5773,0.5074,0.4037,0.3814,0.245,0.015,0.0113,-0.084,-0.2499,-0.3244,-0.359,-0.3695,-0.5098,-0.5659,-0.5764,-0.652,-0.6801,-0.6849,-0.7401,-0.7734,-0.8,-0.8744,-0.9556,-1.0155,-0.9498,-0.956,-0.9952,-1.0354,-1.046,-1.0667,-1.1524,-1.1764,-1.202,-1.3017,-1.3717,-1.4385,-1.5196,-1.595,-1.6578,-1.6888,-1.6983,-1.7028,-1.7174,-1.7765,-1.8255,-1.819,-1.9426,-2.0333,-2.0293,-2.0406,-2.0754,-2.15,-2.0597,-2.035,-2.1481,-2.0189,-1.9886,-2.1367,-2.0955,-2.1237,-2.259,-2.1924,-2.2543,-2.4796,-2.4965,-2.5005,-2.4989,-2.5521,-2.5779,-2.5797,-2.6259,-2.6537,-2.6606,-2.7006,-2.7384,-2.7683,-2.7683,-2.7701,-2.7701,-2.7701,-2.819,-2.9024,-3.0101,-3.1005,-3.1882,-3.3259,-3.3775,-3.3815,1.4733,1.4762,1.4799,1.4637,1.4178,1.3781,1.3535,1.2437,1.1484,1.1084,1.0044,0.9376,0.9399,0.9627,0.9443,0.8622,0.8572,0.8307,0.7688,0.7811,0.7681,0.7134,0.6911,0.6537,0.5926,0.5177,0.4681,0.4419,0.4199,0.3199,0.1469,0.1404,0.0341,-0.1547,-0.1547,-0.214,-0.3126,-0.336,-0.4079,-0.5064,-0.5528,-0.5948,-0.6375,-0.7073,-0.73,-0.7377,-0.8146,-0.8799,-0.9394,-0.9766,-1.0426,-1.108,-1.086,-1.0898,-1.1023,-1.1146,-1.1281,-1.1461,-1.1703,-1.2297,-1.3,-1.3738,-1.4462,-1.5216,-1.5979,-1.6521,-1.686,-1.6983,-1.739,-1.7891,-1.8386,-1.902,-1.9632,-2.0155,-2.0632,-2.1115,-2.1524,-2.1633,-2.1908,-2.254,-2.2295,-2.24,-2.3223,-2.2437,-2.2224,-2.301,-2.2611,-2.2574,-2.3093,-2.3437,-2.4033,-2.4934,-2.5575,-2.5779,-2.5556,-2.603,-2.6294,-2.6348,-2.6725,-2.7053,-2.7353,-2.7491,-2.7713,-2.7964,-2.7964,-2.8093,-2.8304,-2.8304,-2.8873,-2.9743,-3.0093,-3.1177,-3.2566,-3.3025,-3.3562,-3.4086,1.381,1.3745,1.3629,1.3332,1.2901,1.2462,1.2081,1.104,1.0162,0.9892,0.8904,0.8097,0.7803,0.7783,0.7743,0.7578,0.7502,0.7114,0.6305,0.6401,0.6154,0.5342,0.5129,0.4779,0.4217,0.3742,0.337,0.3116,0.2233,0.1163,-0.0113,-0.0455,-0.1359,-0.2719,-0.2719,-0.3283,-0.4244,-0.4201,-0.4894,-0.6061,-0.6278,-0.6603,-0.7008,-0.7688,-0.8098,-0.8425,-0.8979,-0.9741,-1.0521,-1.0647,-1.1205,-1.1888,-1.1888,-1.2104,-1.232,-1.2074,-1.2081,-1.232,-1.2923,-1.3545,-1.4183,-1.4827,-1.5574,-1.6368,-1.7196,-1.7683,-1.7984,-1.8027,-1.8608,-1.923,-1.9658,-2.0131,-2.0683,-2.1382,-2.1551,-2.1803,-2.244,-2.2532,-2.276,-2.3385,-2.3487,-2.3717,-2.4333,-2.3785,-2.3705,-2.4451,-2.401,-2.3933,-2.4481,-2.4598,-2.4951,-2.554,-2.6244,-2.6487,-2.6298,-2.6725,-2.6973,-2.7022,-2.7228,-2.7504,-2.784,-2.784,-2.801,-2.8299,-2.8299,-2.8409,-2.86,-2.8712,-2.9278,-3.0118,-3.0201,-3.1344,-3.2911,-3.3015,-3.3601,-3.4351,1.2372,1.2187,1.1929,1.1111,1.0981,1.0665,0.9723,0.9395,0.9088,0.8559,0.7794,0.7088,0.6576,0.5906,0.5774,0.6392,0.6326,0.5672,0.432,0.422,0.3918,0.3215,0.3263,0.3309,0.3309,0.307,0.2586,0.1823,0.0,-0.0913,-0.0984,-0.1798,-0.2687,-0.3551,-0.3551,-0.4375,-0.5755,-0.5613,-0.6002,-0.6703,-0.7268,-0.7521,-0.7657,-0.8284,-0.9049,-0.9805,-0.9837,-1.049,-1.1361,-1.1368,-1.1919,-1.2604,-1.2626,-1.323,-1.3731,-1.3078,-1.2926,-1.3274,-1.4776,-1.5235,-1.5459,-1.6197,-1.6961,-1.7776,-1.8652,-1.9277,-1.9708,-1.9824,-2.0371,-2.082,-2.087,-2.1091,-2.1431,-2.1959,-2.2184,-2.2463,-2.3045,-2.3149,-2.3385,-2.4063,-2.4126,-2.4354,-2.4883,-2.4376,-2.4476,-2.5589,-2.5157,-2.5321,-2.6402,-2.5528,-2.5477,-2.6503,-2.6924,-2.7133,-2.7133,-2.7504,-2.7716,-2.7745,-2.7745,-2.7869,-2.8129,-2.8129,-2.8295,-2.86,-2.8612,-2.8625,-2.865,-2.891,-2.9419,-3.0104,-3.0406,-3.1496,-3.2887,-3.3214,-3.3872,-3.4647,1.1354,1.1168,1.087,0.99,0.9638,0.9479,0.9259,0.8456,0.7783,0.7495,0.6608,0.5719,0.4948,0.4716,0.445,0.4077,0.4514,0.4414,0.3518,0.3451,0.3382,0.3215,0.27,0.237,0.2268,0.1176,0.0106,-0.0864,-0.1333,-0.1981,-0.2774,-0.3007,-0.377,-0.4993,-0.4993,-0.5452,-0.622,-0.6215,-0.6597,-0.7292,-0.7447,-0.7819,-0.8284,-0.8608,-0.9177,-0.9837,-1.0085,-1.0986,-1.2081,-1.2174,-1.2795,-1.3563,-1.4016,-1.4403,-1.451,-1.3782,-1.4073,-1.4717,-1.5108,-1.5594,-1.6226,-1.6961,-1.8108,-1.9148,-1.9356,-1.9901,-2.0409,-2.0535,-2.0696,-2.1006,-2.1589,-2.1769,-2.2006,-2.2592,-2.2797,-2.3031,-2.3493,-2.3659,-2.3921,-2.4507,-2.4567,-2.4772,-2.5313,-2.5209,-2.5171,-2.5308,-2.5984,-2.63,-2.6136,-2.6695,-2.7006,-2.6973,-2.7257,-2.7454,-2.7567,-2.7657,-2.7815,-2.8006,-2.8006,-2.8174,-2.8492,-2.8492,-2.8518,-2.8612,-2.8815,-2.8899,-2.8922,-2.9141,-2.9425,-2.9791,-3.0515,-3.1505,-3.26,-3.3337,-3.416,-3.4898,1.0458,1.0267,0.9932,0.8978,0.8675,0.8376,0.7821,0.6878,0.615,0.5947,0.51,0.4314,0.3851,0.3785,0.3516,0.2748,0.3382,0.3482,0.2748,0.2681,0.2547,0.2248,0.1442,0.0973,0.0906,-0.034,-0.1279,-0.1929,-0.2279,-0.2734,-0.333,-0.3955,-0.4683,-0.543,-0.5768,-0.6289,-0.6896,-0.6896,-0.7451,-0.8333,-0.849,-0.8909,-0.9454,-0.9709,-1.0268,-1.0961,-1.1149,-1.1927,-1.2856,-1.3039,-1.3593,-1.4282,-1.4678,-1.508,-1.5371,-1.4982,-1.5216,-1.568,-1.6016,-1.662,-1.7446,-1.8504,-1.9373,-1.9978,-2.0029,-2.0585,-2.108,-2.1153,-2.1458,-2.1841,-2.2292,-2.2385,-2.2601,-2.3172,-2.3068,-2.3202,-2.4034,-2.3923,-2.4093,-2.496,-2.5067,-2.5275,-2.5775,-2.5979,-2.6062,-2.5983,-2.6713,-2.7065,-2.6792,-2.7833,-2.8094,-2.74,-2.7616,-2.7805,-2.7883,-2.8027,-2.8179,-2.8326,-2.8326,-2.8422,-2.86,-2.8737,-2.8779,-2.8791,-2.9034,-2.9144,-2.9166,-2.9397,-2.9786,-3.0301,-3.0853,-3.1877,-3.3094,-3.3568,-3.4289,-3.5057,0.9473,0.9274,0.8958,0.8042,0.7595,0.7034,0.6004,0.5113,0.4505,0.4338,0.3671,0.3149,0.3049,0.3049,0.2681,0.1844,0.2345,0.2512,0.198,0.1846,0.151,0.0908,0.0034,-0.047,-0.0537,-0.1576,-0.2246,-0.2579,-0.3213,-0.358,-0.3713,-0.4908,-0.554,-0.5672,-0.6297,-0.6961,-0.7657,-0.7782,-0.8425,-0.9402,-0.9805,-1.0205,-1.0609,-1.0923,-1.1578,-1.2297,-1.2358,-1.2887,-1.3601,-1.3881,-1.4341,-1.4825,-1.5109,-1.5689,-1.6291,-1.6415,-1.6489,-1.6676,-1.7219,-1.7938,-1.8826,-2.008,-2.0471,-2.0584,-2.0734,-2.1264,-2.1746,-2.1851,-2.2431,-2.2917,-2.3007,-2.3082,-2.3253,-2.358,-2.3271,-2.3381,-2.4492,-2.4209,-2.4322,-2.5456,-2.5652,-2.5834,-2.624,-2.6657,-2.6906,-2.6985,-2.7344,-2.7616,-2.7757,-2.8678,-2.8774,-2.7847,-2.8172,-2.8295,-2.817,-2.8466,-2.86,-2.86,-2.8612,-2.8637,-2.8669,-2.891,-2.9019,-2.9075,-2.9277,-2.9359,-2.9379,-2.9784,-3.038,-3.1095,-3.1504,-3.2542,-3.3817,-3.3951,-3.4473,-3.5129,0.8015,0.7748,0.7375,0.6489,0.5597,0.4973,0.4781,0.4015,0.3437,0.3406,0.3293,0.2948,0.2347,0.228,0.1744,0.0436,0.0436,0.0705,0.1209,0.0671,0.0201,-0.0067,-0.0772,-0.1307,-0.1643,-0.2547,-0.358,-0.4809,-0.4908,-0.5305,-0.5903,-0.6133,-0.6564,-0.7158,-0.7293,-0.7722,-0.8382,-0.9139,-0.955,-0.9773,-1.0521,-1.086,-1.0954,-1.1173,-1.1703,-1.2336,-1.2612,-1.3169,-1.3851,-1.451,-1.4894,-1.5303,-1.634,-1.6849,-1.7174,-1.7843,-1.8348,-1.862,-1.8182,-1.9022,-2.0105,-2.0345,-2.082,-2.1288,-2.141,-2.1864,-2.2449,-2.3009,-2.3209,-2.3465,-2.3967,-2.4126,-2.3999,-2.3456,-2.3945,-2.4383,-2.4348,-2.485,-2.5427,-2.6026,-2.6331,-2.6556,-2.6691,-2.7019,-2.727,-2.7389,-2.7736,-2.7968,-2.8034,-2.8465,-2.8631,-2.8471,-2.9168,-2.9199,-2.8536,-2.8574,-2.86,-2.86,-2.8662,-2.8773,-2.8936,-2.9038,-2.9191,-2.9358,-2.9542,-2.9652,-2.9698,-3.066,-3.114,-3.1388,-3.2858,-3.357,-3.3894,-3.4636,-3.5024,-3.5198,0.6999,0.6393,0.5929,0.5421,0.4539,0.3892,0.3801,0.3109,0.2614,0.2614,0.2281,0.1779,0.104,0.0973,0.0537,-0.0504,-0.0671,-0.057,-0.0201,-0.0503,-0.0738,-0.0839,-0.1708,-0.2678,-0.3711,-0.411,-0.4842,-0.5903,-0.5903,-0.6067,-0.64,-0.6798,-0.7223,-0.7647,-0.8388,-0.8941,-0.9364,-1.0117,-1.0616,-1.093,-1.1485,-1.1834,-1.2128,-1.2389,-1.2734,-1.3139,-1.3268,-1.3803,-1.4451,-1.4923,-1.5565,-1.6293,-1.6905,-1.7363,-1.7831,-1.8614,-1.9054,-1.9371,-1.9723,-2.0319,-2.093,-2.1272,-2.166,-2.1949,-2.202,-2.2503,-2.3024,-2.3341,-2.3659,-2.3979,-2.4313,-2.4384,-2.4418,-2.4425,-2.4465,-2.4673,-2.5232,-2.529,-2.5583,-2.6384,-2.664,-2.6841,-2.7051,-2.7439,-2.7692,-2.7747,-2.8106,-2.8344,-2.8383,-2.8928,-2.9246,-2.9246,-2.9621,-2.9621,-2.9246,-2.9681,-2.9984,-3.0167,-3.0186,-3.0102,-2.9914,-3.0051,-2.9917,-2.9607,-3.0307,-3.0352,-3.0029,-3.1462,-3.2054,-3.2168,-3.3416,-3.4179,-3.4598,-3.5009,-3.5226,-3.5315,0.5946,0.5151,0.4575,0.4474,0.3714,0.3058,0.296,0.2347,0.1879,0.1879,0.1276,0.0605,0.0,-0.0201,-0.0604,-0.1412,-0.1576,-0.1709,-0.1877,-0.2076,-0.2041,-0.1708,-0.2878,-0.4079,-0.5276,-0.5474,-0.5903,-0.6662,-0.6662,-0.6761,-0.699,-0.7707,-0.8096,-0.8285,-0.9538,-1.0148,-1.0268,-1.1017,-1.1547,-1.1958,-1.2389,-1.2803,-1.3164,-1.345,-1.367,-1.383,-1.4061,-1.449,-1.5031,-1.5507,-1.6283,-1.7112,-1.7379,-1.7886,-1.8479,-1.9107,-1.9553,-2.0055,-2.0955,-2.131,-2.1551,-2.21,-2.2417,-2.2563,-2.2609,-2.3113,-2.3601,-2.3715,-2.4147,-2.4533,-2.4688,-2.4732,-2.4882,-2.5234,-2.4987,-2.5035,-2.5836,-2.5677,-2.5782,-2.6623,-2.6906,-2.7164,-2.7424,-2.7869,-2.8124,-2.8138,-2.8427,-2.86,-2.86,-2.9192,-2.9557,-2.9602,-2.9784,-2.9888,-2.9926,-3.0578,-3.1139,-3.1594,-3.1605,-3.1325,-3.0808,-3.0959,-3.0595,-2.9891,-3.0959,-3.1039,-3.0562,-3.229,-3.3005,-3.3081,-3.3949,-3.4679,-3.5246,-3.5246,-3.5333,-3.5451,0.4657,0.3939,0.3362,0.3479,0.2771,0.2185,0.2181,0.1612,0.1176,0.1176,0.0538,0.0,-0.0235,-0.0838,-0.1575,-0.2485,-0.2584,-0.2885,-0.3556,-0.4386,-0.4251,-0.2947,-0.4309,-0.5176,-0.5309,-0.5968,-0.6695,-0.7423,-0.7423,-0.7819,-0.8635,-0.9332,-0.9703,-0.9856,-1.0577,-1.0923,-1.0986,-1.1826,-1.2235,-1.2328,-1.3108,-1.342,-1.348,-1.37,-1.3799,-1.3911,-1.4795,-1.5147,-1.5362,-1.6641,-1.7118,-1.7324,-1.8073,-1.8667,-1.9186,-1.9474,-2.0359,-2.124,-2.1213,-2.1647,-2.2184,-2.2347,-2.2723,-2.3105,-2.3275,-2.3702,-2.4188,-2.4684,-2.4918,-2.515,-2.5535,-2.5756,-2.5671,-2.5034,-2.5567,-2.5852,-2.5259,-2.5983,-2.6623,-2.6774,-2.7352,-2.7786,-2.7926,-2.8264,-2.8479,-2.8549,-2.8587,-2.86,-2.86,-2.8654,-2.8797,-2.9049,-2.9715,-3.013,-3.0266,-3.0505,-3.1046,-3.1869,-3.1919,-3.1646,-3.1078,-3.1157,-3.0809,-3.0202,-3.1114,-3.1458,-3.1534,-3.3203,-3.3899,-3.3968,-3.4808,-3.5209,-3.5385,-3.5385,-3.547,-3.5593,0.3702,0.3072,0.2523,0.2585,0.196,0.1478,0.1478,0.0873,0.0403,0.0403,-0.0235,-0.0907,-0.1544,-0.1846,-0.2347,-0.3288,-0.3458,-0.3823,-0.4556,-0.4984,-0.5176,-0.5104,-0.5668,-0.6199,-0.6662,-0.6929,-0.7489,-0.8306,-0.8306,-0.8727,-0.955,-0.9805,-1.0237,-1.0836,-1.1516,-1.1857,-1.1981,-1.2726,-1.3039,-1.3078,-1.3381,-1.3571,-1.37,-1.3769,-1.4151,-1.4706,-1.5079,-1.5738,-1.6528,-1.7118,-1.7611,-1.8061,-1.8789,-1.9148,-1.9475,-2.0333,-2.1213,-2.1959,-2.2282,-2.2342,-2.2417,-2.2746,-2.3046,-2.3377,-2.3745,-2.4235,-2.4664,-2.4958,-2.525,-2.557,-2.583,-2.5956,-2.5928,-2.5752,-2.5986,-2.6175,-2.6101,-2.6488,-2.6923,-2.7367,-2.7728,-2.8027,-2.8291,-2.8466,-2.8574,-2.86,-2.86,-2.86,-2.86,-2.8761,-2.895,-2.9191,-2.9624,-3.0035,-3.0412,-3.1049,-3.1589,-3.2099,-3.2656,-3.2637,-3.2113,-3.267,-3.25,-3.1801,-3.2669,-3.2785,-3.2499,-3.4182,-3.4602,-3.4263,-3.5117,-3.5476,-3.5519,-3.5519,-3.5574,-3.5669,0.2848,0.2265,0.1762,0.1776,0.12,0.0765,0.0738,0.0134,-0.0336,-0.0336,-0.1008,-0.1746,-0.2417,-0.2751,-0.3286,-0.4187,-0.4356,-0.4722,-0.5448,-0.5807,-0.61,-0.6396,-0.6629,-0.699,-0.7549,-0.7787,-0.8339,-0.9177,-0.9177,-0.9614,-1.0426,-1.0616,-1.1048,-1.1703,-1.2389,-1.2734,-1.2848,-1.329,-1.3511,-1.3511,-1.3571,-1.3782,-1.4082,-1.4201,-1.4756,-1.5507,-1.5728,-1.6443,-1.7341,-1.782,-1.8294,-1.8815,-1.9501,-1.985,-2.0207,-2.1224,-2.1874,-2.2394,-2.2949,-2.2904,-2.2822,-2.3304,-2.3623,-2.3906,-2.4271,-2.4764,-2.5192,-2.5266,-2.557,-2.5846,-2.5974,-2.6026,-2.6133,-2.6329,-2.6364,-2.6469,-2.6808,-2.7004,-2.7305,-2.7771,-2.8027,-2.8264,-2.8523,-2.8574,-2.86,-2.86,-2.86,-2.8637,-2.8724,-2.8962,-2.9191,-2.9418,-2.9626,-2.9934,-3.0368,-3.1495,-3.2288,-3.2765,-3.3362,-3.3316,-3.2718,-3.307,-3.2909,-3.2398,-3.3286,-3.353,-3.3452,-3.4886,-3.5152,-3.4767,-3.538,-3.5609,-3.564,-3.564,-3.5683,-3.5756,0.2079,0.1513,0.101,0.107,0.0492,0.0,0.0,-0.0638,-0.1109,-0.1109,-0.188,-0.2484,-0.2686,-0.3491,-0.4356,-0.5243,-0.5309,-0.5639,-0.6367,-0.7092,-0.719,-0.6465,-0.7125,-0.7587,-0.7707,-0.8436,-0.921,-1.0021,-1.0021,-1.0458,-1.1329,-1.1989,-1.2389,-1.2543,-1.3199,-1.3511,-1.3511,-1.3511,-1.3511,-1.3511,-1.3731,-1.4172,-1.4728,-1.5079,-1.5565,-1.6205,-1.695,-1.7285,-1.76,-1.8804,-1.9279,-1.9527,-2.0194,-2.087,-2.152,-2.2067,-2.2301,-2.2509,-2.2994,-2.3268,-2.3515,-2.3979,-2.442,-2.4732,-2.4867,-2.5326,-2.5701,-2.5701,-2.5864,-2.5992,-2.5992,-2.6115,-2.6311,-2.6641,-2.6708,-2.6825,-2.7149,-2.7552,-2.7815,-2.7897,-2.8264,-2.8536,-2.8587,-2.86,-2.86,-2.86,-2.86,-2.8724,-2.8991,-2.9183,-2.9427,-2.9689,-2.9777,-2.9902,-3.0101,-3.1749,-3.3058,-3.3975,-3.3975,-3.3528,-3.2661,-3.1885,-3.1563,-3.1671,-3.255,-3.345,-3.4385,-3.5245,-3.5607,-3.5593,-3.5593,-3.5636,-3.5698,-3.5698,-3.579,-3.5908,0.1345,0.0758,0.0298,0.0327,-0.0296,-0.0798,-0.0905,-0.1543,-0.2048,-0.2216,-0.2885,-0.3654,-0.432,-0.4622,-0.5117,-0.6001,-0.6067,-0.6429,-0.7246,-0.8009,-0.856,-0.8918,-0.8592,-0.8689,-0.9308,-0.9544,-1.0047,-1.0892,-1.0892,-1.1329,-1.2143,-1.2358,-1.2696,-1.3199,-1.342,-1.3571,-1.37,-1.37,-1.3761,-1.3881,-1.4371,-1.4746,-1.5099,-1.5642,-1.6262,-1.6912,-1.724,-1.7918,-1.875,-1.9317,-1.976,-2.0244,-2.0993,-2.1636,-2.2217,-2.274,-2.2942,-2.315,-2.3996,-2.4266,-2.4348,-2.4486,-2.4688,-2.4946,-2.5365,-2.5589,-2.5738,-2.5883,-2.5956,-2.61,-2.6435,-2.6521,-2.6657,-2.7005,-2.7053,-2.7181,-2.7582,-2.7771,-2.7986,-2.8291,-2.8466,-2.8574,-2.86,-2.86,-2.86,-2.86,-2.8767,-2.9064,-2.9474,-2.9561,-2.9697,-2.9977,-3.0,-3.0053,-3.0171,-3.0667,-3.1057,-3.1338,-3.1943,-3.2448,-3.2858,-3.3178,-3.3724,-3.4428,-3.4673,-3.499,-3.5294,-3.5562,-3.5736,-3.581,-3.581,-3.5824,-3.584,-3.584,-3.5875,-3.5908,0.023,-0.013,-0.039,-0.0425,-0.1075,-0.1603,-0.1704,-0.2394,-0.3049,-0.348,-0.3987,-0.4622,-0.5418,-0.558,-0.5939,-0.6765,-0.7405,-0.8049,-0.8763,-0.9352,-0.9926,-1.049,-1.0053,-1.0021,-1.049,-1.0514,-1.0923,-1.1764,-1.1764,-1.2166,-1.2917,-1.2917,-1.3161,-1.361,-1.361,-1.3842,-1.4222,-1.4222,-1.443,-1.4756,-1.5206,-1.5584,-1.5968,-1.6415,-1.7191,-1.8027,-1.8135,-1.8821,-1.9734,-2.0118,-2.0658,-2.1272,-2.1756,-2.2184,-2.2563,-2.3054,-2.3238,-2.35,-2.4435,-2.4788,-2.4902,-2.5063,-2.5157,-2.5326,-2.5682,-2.5809,-2.5848,-2.5974,-2.6154,-2.6349,-2.6641,-2.6808,-2.7021,-2.7384,-2.7446,-2.7582,-2.7975,-2.8101,-2.8219,-2.8466,-2.8562,-2.86,-2.86,-2.87,-2.8791,-2.8868,-2.9141,-2.9395,-2.9672,-2.9794,-2.9937,-3.0101,-3.0123,-3.0164,-3.0211,-3.0211,-3.0357,-3.0682,-3.1613,-3.2339,-3.2929,-3.3459,-3.424,-3.5156,-3.5156,-3.54,-3.5787,-3.5787,-3.5833,-3.5908,-3.5908,-3.5908,-3.5908,-3.5908,-3.5908,-3.5908,-0.0959,-0.1119,-0.1131,-0.1224,-0.1889,-0.2461,-0.253,-0.322,-0.401,-0.4734,-0.505,-0.5481,-0.6141,-0.64,-0.6826,-0.7652,-0.9064,-1.0085,-1.0553,-1.086,-1.1142,-1.1392,-1.1399,-1.1423,-1.1485,-1.1423,-1.1795,-1.2604,-1.2604,-1.2917,-1.3541,-1.3541,-1.3662,-1.3881,-1.3881,-1.4312,-1.5002,-1.5002,-1.5323,-1.5872,-1.6091,-1.6557,-1.714,-1.7446,-1.8282,-1.9305,-1.9449,-1.9927,-2.0546,-2.1126,-2.1803,-2.2394,-2.2417,-2.2532,-2.2746,-2.3187,-2.3413,-2.3715,-2.4572,-2.4962,-2.5246,-2.5626,-2.5738,-2.5756,-2.5881,-2.599,-2.6046,-2.6064,-2.6418,-2.6758,-2.6791,-2.7053,-2.7384,-2.7789,-2.7847,-2.7975,-2.8353,-2.8458,-2.8492,-2.8505,-2.8587,-2.8637,-2.8637,-2.8875,-2.9108,-2.9314,-2.9561,-2.9717,-2.9716,-2.9969,-3.0101,-3.0109,-3.0171,-3.0223,-3.03,-3.032,-3.0684,-3.1429,-3.2346,-3.2864,-3.3043,-3.3179,-3.3744,-3.4637,-3.4637,-3.5104,-3.5892,-3.5911,-3.5914,-3.5914,-3.5914,-3.5914,-3.5914,-3.5914,-3.5911,-3.5892,-0.1033,-0.1587,-0.2063,-0.223,-0.2932,-0.3506,-0.3651,-0.4301,-0.4887,-0.514,-0.5738,-0.64,-0.7129,-0.7228,-0.7804,-0.9192,-1.0174,-1.086,-1.1111,-1.1173,-1.1547,-1.2197,-1.2228,-1.2481,-1.3009,-1.2512,-1.2665,-1.3519,-1.3519,-1.364,-1.3881,-1.3881,-1.4172,-1.4649,-1.4649,-1.5119,-1.5833,-1.5833,-1.5987,-1.6244,-1.6754,-1.7346,-1.7993,-1.8593,-1.9293,-2.0004,-2.0156,-2.0546,-2.1151,-2.1898,-2.2263,-2.2454,-2.2644,-2.2955,-2.3334,-2.3909,-2.4313,-2.4708,-2.531,-2.5535,-2.5626,-2.5866,-2.5937,-2.5937,-2.5956,-2.6191,-2.6419,-2.6539,-2.6841,-2.7181,-2.7428,-2.7597,-2.7789,-2.8132,-2.8246,-2.8327,-2.8471,-2.8479,-2.8505,-2.8574,-2.8785,-2.891,-2.891,-2.9108,-2.9314,-2.9523,-2.9635,-2.9787,-3.0007,-3.0064,-3.0116,-3.0171,-3.0185,-3.0491,-3.114,-3.1232,-3.1372,-3.1565,-3.1788,-3.2673,-3.4145,-3.4186,-3.4703,-3.5599,-3.5591,-3.5702,-3.5907,-3.5955,-3.5977,-3.5977,-3.5977,-3.5977,-3.5977,-3.5977,-3.5953,-3.5904,-0.2558,-0.3105,-0.3587,-0.4094,-0.4537,-0.4876,-0.4978,-0.5353,-0.5784,-0.6289,-0.6695,-0.7288,-0.8269,-0.849,-0.9186,-1.0647,-1.1298,-1.1772,-1.2097,-1.2266,-1.2543,-1.2948,-1.3078,-1.329,-1.364,-1.3636,-1.3837,-1.4222,-1.4282,-1.4519,-1.4874,-1.4874,-1.507,-1.5458,-1.5458,-1.5948,-1.6726,-1.6726,-1.6978,-1.7462,-1.8015,-1.8463,-1.8862,-1.9503,-2.0156,-2.0683,-2.082,-2.1261,-2.1851,-2.2263,-2.2477,-2.2652,-2.2978,-2.326,-2.3638,-2.4374,-2.4779,-2.5095,-2.5572,-2.5775,-2.5883,-2.5974,-2.6171,-2.6331,-2.6331,-2.647,-2.6657,-2.6873,-2.7213,-2.7507,-2.7716,-2.7904,-2.8119,-2.8349,-2.8414,-2.8471,-2.8549,-2.8549,-2.8612,-2.8767,-2.891,-2.9082,-2.9262,-2.9385,-2.9532,-2.9725,-2.983,-2.994,-3.0095,-3.0528,-3.0584,-3.0204,-3.1033,-3.1488,-3.1507,-3.2041,-3.2535,-3.2977,-3.2977,-3.3513,-3.4513,-3.4964,-3.5446,-3.5899,-3.5931,-3.5958,-3.5958,-3.5984,-3.6005,-3.6005,-3.6005,-3.6005,-3.6005,-3.6005,-3.5981,-3.5955,-0.4426,-0.4778,-0.5093,-0.5831,-0.6,-0.6073,-0.615,-0.6306,-0.6708,-0.7525,-0.7717,-0.8236,-0.9396,-0.9926,-1.0679,-1.1795,-1.2266,-1.2681,-1.3072,-1.3368,-1.3511,-1.3541,-1.3812,-1.3971,-1.4001,-1.4708,-1.4992,-1.4796,-1.4992,-1.5371,-1.5872,-1.5872,-1.6044,-1.6319,-1.6319,-1.681,-1.7611,-1.7611,-1.805,-1.8762,-1.9226,-1.9527,-1.9773,-2.032,-2.0868,-2.1382,-2.1506,-2.1926,-2.2417,-2.2454,-2.2652,-2.297,-2.3312,-2.3601,-2.3964,-2.4724,-2.5056,-2.5285,-2.5645,-2.5903,-2.6083,-2.6118,-2.6453,-2.6808,-2.6874,-2.6874,-2.6939,-2.7228,-2.7567,-2.7818,-2.7876,-2.8132,-2.838,-2.8479,-2.8505,-2.8543,-2.865,-2.8675,-2.8755,-2.9026,-2.9075,-2.9241,-2.9617,-2.9653,-2.98,-3.0105,-3.0239,-3.0369,-3.0529,-3.1305,-3.1412,-3.0673,-3.2141,-3.2657,-3.2066,-3.2914,-3.3798,-3.4703,-3.4738,-3.4745,-3.4768,-3.5555,-3.5909,-3.5912,-3.5984,-3.6007,-3.6007,-3.6009,-3.599,-3.599,-3.599,-3.599,-3.6009,-3.6007,-3.6009,-3.6009,-0.5381,-0.5544,-0.5613,-0.6069,-0.6274,-0.6339,-0.6363,-0.6907,-0.7516,-0.8049,-0.8646,-0.939,-1.0237,-1.1298,-1.202,-1.2235,-1.2917,-1.3351,-1.342,-1.348,-1.3571,-1.3739,-1.4273,-1.4649,-1.4737,-1.5516,-1.5671,-1.5138,-1.5671,-1.6044,-1.6216,-1.6216,-1.6585,-1.7213,-1.7213,-1.7694,-1.8452,-1.8452,-1.8777,-1.9293,-1.9371,-2.0029,-2.0979,-2.1053,-2.1503,-2.2077,-2.2091,-2.2231,-2.2454,-2.2666,-2.3,-2.3355,-2.3508,-2.411,-2.4764,-2.5013,-2.5326,-2.5682,-2.5901,-2.6191,-2.6471,-2.659,-2.6874,-2.7213,-2.7489,-2.755,-2.758,-2.7609,-2.7947,-2.8214,-2.8214,-2.8362,-2.8479,-2.851,-2.8549,-2.8675,-2.891,-2.8945,-2.9019,-2.923,-2.9415,-2.9617,-2.9839,-2.9864,-3.021,-3.1062,-3.1129,-3.1462,-3.2225,-3.2555,-3.2667,-3.2532,-3.2875,-3.3344,-3.3919,-3.418,-3.4726,-3.5546,-3.5655,-3.5711,-3.5702,-3.5846,-3.5934,-3.5984,-3.5994,-3.5997,-3.5999,-3.6006,-3.6009,-3.6009,-3.6009,-3.6009,-3.6007,-3.6001,-3.6002,-3.6007,-0.6154,-0.6415,-0.6666,-0.7377,-0.7524,-0.7587,-0.7587,-0.8107,-0.8651,-0.9058,-0.9602,-1.03,-1.1142,-1.2089,-1.2781,-1.2948,-1.3532,-1.3881,-1.3881,-1.4321,-1.4608,-1.4677,-1.5206,-1.5516,-1.5574,-1.6404,-1.6698,-1.6425,-1.6698,-1.6989,-1.7307,-1.749,-1.7722,-1.7952,-1.8363,-1.8765,-1.9186,-1.9475,-1.9786,-2.0093,-2.0396,-2.0833,-2.1348,-2.1636,-2.1945,-2.2208,-2.2278,-2.2586,-2.2979,-2.3098,-2.348,-2.3958,-2.4235,-2.4583,-2.4962,-2.5326,-2.5607,-2.5883,-2.6191,-2.6436,-2.6674,-2.6923,-2.7244,-2.7522,-2.7672,-2.7876,-2.8049,-2.8049,-2.8174,-2.8327,-2.8406,-2.8453,-2.8556,-2.8755,-2.9168,-2.9563,-2.9799,-3.0261,-3.0646,-3.0839,-3.1036,-3.1192,-3.129,-3.1299,-3.1476,-3.1944,-3.2004,-3.2233,-3.2685,-3.3249,-3.3397,-3.3015,-3.4008,-3.4505,-3.4413,-3.4982,-3.546,-3.5807,-3.5864,-3.5904,-3.5909,-3.5936,-3.5964,-3.5994,-3.6002,-3.6007,-3.6007,-3.5991,-3.5992,-3.5992,-3.5992,-3.5992,-3.5992,-3.6007,-3.598,-3.5933]},{"header":{"parameterUnit":"m.s-1","parameterCategory":1,"la1":30.6,"la2":28.766,"lo1":-90.7593,"lo2":-88.6598,"dy":0.0162,"dx":0.0183,"nx":116,"ny":114,"refTime":"2023-08-29T12:00:00:Z","depth":0,"parameterNumber":3,"parameterNumberName":"V-component_of_WINDS"},"data":[0.0,0.0,0.0,0.0,0.0,0.0,0.0,0.0,0.0,0.0,0.0,0.0,0.0,0.0,0.0,0.0,0.0,0.0,0.0,0.0,0.0,0.0,0.0,0.0,0.0,0.0,0.0,0.0,0.0,0.0,0.0,0.0,0.0,0.0,0.0,0.0,0.0,0.0,0.0,0.0,0.0,0.0,0.0,0.0,0.0,0.0,0.0,0.0,0.0,0.0,0.0,0.0,0.0,0.0,0.0,0.0,0.0,0.0,0.0,0.0,0.0,0.0,0.0,0.0,0.0,0.0,0.0,0.0,0.0,0.0,0.0,0.0,0.0,0.0,0.0,0.0,0.0,0.0,0.0,0.0,0.0,0.0,0.0,0.0,0.0,0.0,0.0,0.0,0.0,0.0,0.0,0.0,0.0,0.0,0.0,0.0,0.0,0.0,0.0,0.0,0.0,0.0,0.0,0.0,0.0,0.0,0.0,0.0,0.0,0.0,0.0,0.0,0.0,0.0,0.0,0.0,0.0,0.0,0.0,0.0,0.0,0.0,0.0,0.0,0.0,0.0,0.0,0.0,0.0,0.0,0.0,0.0,0.0,0.0,0.0,0.0,0.0,0.0,0.0,0.0,0.0,0.0,0.0,0.0,0.0,0.0,0.0,0.0,0.0,0.0,0.0,0.0,0.0,0.0,0.0,0.0,0.0,0.0,0.0,0.0,0.0,0.0,0.0,0.0,0.0,0.0,0.0,0.0,0.0,0.0,0.0,0.0,0.0,0.0,0.0,0.0,0.0,0.0,0.0,0.0,0.0,0.0,0.0,0.0,0.0,0.0,0.0,0.0,0.0,0.0,0.0,0.0,0.0,0.0,0.0,0.0,0.0,0.0,0.0,0.0,0.0,0.0,0.0,0.0,0.0,0.0,0.0,0.0,0.0,0.0,0.0,0.0,0.0,0.0,0.0,0.0,0.0,0.0,0.0,0.0,0.0,0.0,0.0,0.0,0.0,0.0,0.0,0.0,0.0,0.0,0.0,0.0,0.0,0.0,0.0,0.0,0.0,0.0,0.0,0.0,0.0,0.0,0.0,0.0,0.0,0.0,0.0,0.0,0.0,0.0,0.0,0.0,0.0,0.0,0.0,0.0,0.0,0.0,0.0,0.0,0.0,0.0,0.0,0.0,0.0,0.0,0.0,0.0,0.0,0.0,0.0,0.0,0.0,0.0,0.0,0.0,0.0,0.0,0.0,0.0,0.0,0.0,0.0,0.0,0.0,0.0,0.0,0.0,0.0,0.0,0.0,0.0,0.0,0.0,0.0,0.0,0.0,0.0,0.0,0.0,0.0,0.0,0.0,0.0,0.0,0.0,0.0,0.0,0.0,0.0,0.0,0.0,0.0,0.0,0.0,0.0,0.0,0.0,0.0,0.0,0.0,0.0,0.0,0.0,0.0,0.0,0.0,0.0,0.0,0.0,0.0,0.0,0.0,0.0,0.0,0.0,0.0,0.0,0.0,0.0,0.0,0.0,0.0,0.0,0.0,0.0,0.0,0.0,0.0,0.0,0.0,0.0,0.0,0.0,0.0,0.0,0.0,0.0,0.0,0.0,0.0,0.0,0.0,0.0,0.0,0.0,0.0,0.0,0.0,0.0,0.0,0.0,0.0,0.0,0.0,0.0,0.0,0.0,0.0,0.0,0.0,0.0,0.0,0.0,0.0,0.0,0.0,0.0,0.0,0.0,0.0,0.0,0.0,0.0,0.0,0.0,0.0,0.0,0.0,0.0,0.0,0.0,0.0,0.0,0.0,0.0,0.0,0.0,0.0,0.0,0.0,0.0,0.0,0.0,0.0,0.0,0.0,0.0,0.0,0.0,0.0,0.0,0.0,0.0,0.0,0.0,0.0,0.0,0.0,0.0,0.0,0.0,0.0,0.0,0.0,0.0,0.0,0.0,0.0,0.0,0.0,0.0,0.0,0.0,0.0,0.0,0.0,0.0,0.0,0.0,0.0,0.0,0.0,0.0,0.0,0.0,0.0,0.0,0.0,0.0,0.0,0.0,0.0,0.0,0.0,0.0,0.0,0.0,0.0,0.0,0.0,0.0,0.0,0.0,0.0,0.0,0.0,0.0,0.0,0.0,0.0,0.0,0.0,0.0,0.0,0.0,0.0,0.0,0.0,0.0,0.0,0.0,0.0,0.0,0.0,0.0,0.0,0.0,0.0,0.0,0.0,0.0,0.0,0.0,0.0,0.0,0.0,0.0,0.0,0.0,0.0,0.0,0.0,0.0,0.0,0.0,0.0,0.0,0.0,0.0,0.0,0.0,0.0,0.0,0.0,0.0,0.0,0.0,0.0,0.0,0.0,0.0,0.0,0.0,0.0,0.0,0.0,0.0,0.0,0.0,0.0,0.0,0.0,0.0,0.0,0.0,0.0,0.0,0.0,0.0,0.0,0.0,0.0,0.0,0.0,0.0,0.0,0.0,0.0,0.0,0.0,0.0,0.0,0.0,0.0,0.0,0.0,0.0,0.0,0.0,0.0,0.0,0.0,0.0,0.0,0.0,0.0,0.0,0.0,0.0,0.0,0.0,0.0,0.0,0.0,0.0,0.0,0.0,0.0,0.0,0.0,0.0,0.0,0.0,0.0,0.0,0.0,0.0,0.0,0.0,0.0,0.0,0.0,0.0,0.0,0.0,0.0,0.0,0.0,0.0,0.0,0.0,0.0,0.0,0.0,0.0,0.0,0.0,0.0,0.0,0.0,0.0,0.0,0.0,0.0,0.0,0.0,0.0,0.0,0.0,0.0,0.0,0.0,0.0,0.0,0.0,0.0,0.0,0.0,0.0,0.0,0.0,0.0,0.0,0.0,0.0,0.0,0.0,0.0,0.0,0.0,0.0,0.0,0.0,0.0,0.0,0.0,0.0,0.0,0.0,0.0,0.0,0.0,0.0,0.0,0.0,0.0,0.0,0.0,0.0,0.0,0.0,0.0,0.0,0.0,0.0,0.0,0.0,0.0,0.0,0.0,0.0,0.0,0.0,0.0,0.0,0.0,0.0,0.0,0.0,0.0,0.0,0.0,0.0,0.0,0.0,0.0,0.0,0.0,0.0,0.0,0.0,0.0,0.0,0.0,0.0,0.0,0.0,0.0,0.0,0.0,0.0,0.0,0.0,0.0,0.0,0.0,0.0,0.0,0.0,0.0,0.0,0.0,0.0,0.0,0.0,0.0,0.0,0.0,0.0,0.0,0.0,0.0,0.0,0.0,0.0,0.0,0.0,0.0,0.0,0.0,0.0,0.0,0.0,0.0,0.0,0.0,0.0,0.0,0.0,0.0,0.0,0.0,0.0,0.0,0.0,0.0,0.0,0.0,0.0,0.0,0.0,0.0,0.0,0.0,0.0,0.0,0.0,0.0,0.0,0.0,0.0,0.0,0.0,0.0,0.0,0.0,0.0,0.0,0.0,0.0,0.0,0.0,0.0,0.0,0.0,0.0,0.0,0.0,0.0,0.0,0.0,0.0,0.0,0.0,0.0,0.0,0.0,0.0,0.0,0.0,0.0,0.0,0.0,0.0,0.0,0.0,0.0,0.0,0.0,0.0,0.0,0.0,0.0,0.0,0.0,0.0,0.0,0.0,0.0,0.0,0.0,0.0,0.0,0.0,0.0,0.0,0.0,0.0,0.0,0.0,0.0,0.0,0.0,0.0,0.0,0.0,0.0,0.0,0.0,0.0,0.0,0.0,0.0,0.0,0.0,0.0,0.0,0.0,0.0,0.0,0.0,0.0,0.0,0.0,0.0,0.0,0.0,0.0,0.0,0.0,0.0,0.0,0.0,0.0,0.0,0.0,0.0,0.0,0.0,0.0,0.0,0.0,0.0,0.0,0.0,0.0,0.0,0.0,0.0,0.0,0.0,0.0,0.0,0.0,0.0,0.0,0.0,0.0,0.0,0.0,0.0,0.0,0.0,0.0,0.0,0.0,0.0,0.0,0.0,0.0,0.0,0.0,0.0,0.0,0.0,0.0,0.0,0.0,0.0,0.0,0.0,0.0,0.0,0.0,0.0,0.0,0.0,0.0,0.0,0.0,0.0,0.0,0.0,0.0,0.0,0.0,0.0,0.0,0.0,0.0,0.0,0.0,0.0,0.0,0.0,0.0,0.0,0.0,0.0,0.0,0.0,0.0,0.0,0.0,0.0,0.0,0.0,0.0,0.0,0.0,0.0,0.0,0.0,0.0,0.0,0.0,0.0,0.0,0.0,0.0,0.0,0.0,0.0,0.0,0.0,0.0,0.0,0.0,0.0,0.0,0.0,0.0,0.0,0.0,0.0,0.0,0.0,0.0,0.0,0.0,0.0,0.0,0.0,0.0,0.0,0.0,0.0,0.0,0.0,0.0,0.0,0.0,0.0,0.0,0.0,0.0,0.0,0.0,0.0,0.0,0.0,0.0,0.0,0.0,0.0,0.0,0.0,0.0,0.0,0.0,0.0,0.0,0.0,0.0,0.0,0.0,0.0,0.0,0.0,0.0,0.0,0.0,0.0,0.0,0.0,0.0,0.0,0.0,0.0,0.0,0.0,0.0,0.0,0.0,0.0,0.0,0.0,0.0,0.0,0.0,0.0,0.0,0.0,0.0,0.0,0.0,0.0,0.0,0.0,0.0,0.0,0.0,0.0,0.0,0.0,0.0,0.0,0.0,0.0,0.0,0.0,0.0,0.0,0.0,0.0,0.0,0.0,0.0,0.0,0.0,0.0,0.0,0.0,0.0,0.0,0.0,0.0,0.0,0.0,0.0,0.0,0.0,0.0,0.0,0.0,0.0,0.0,0.0,0.0,0.0,0.0,0.0,0.0,0.0,0.0,0.0,0.0,0.0,0.0,0.0,0.0,0.0,0.0,0.0,0.0,0.0,0.0,0.0,0.0,0.0,0.0,0.0,0.0,0.0,0.0,0.0,0.0,0.0,0.0,0.0,0.0,0.0,0.0,0.0,0.0,0.0,0.0,0.0,0.0,0.0,0.0,0.0,0.0,0.0,0.0,0.0,0.0,0.0,0.0,0.0,0.0,0.0,0.0,0.0,0.0,0.0,0.0,0.0,0.0,0.0,0.0,0.0,0.0,0.0,0.0,0.0,0.0,0.0,0.0,0.0,0.0,0.0,0.0,0.0,0.0,0.0,0.0,0.0,0.0,0.0,0.0,0.0,0.0,0.0,0.0,0.0,0.0,0.0,0.0,0.0,0.0,0.0,0.0,0.0,0.0,0.0,0.0,0.0,0.0,0.0,0.0,0.0,0.0,0.0,0.0,0.0,0.0,0.0,0.0,0.0,0.0,0.0,0.0,0.0,0.0,0.0,0.0,0.0,0.0,0.0,0.0,0.0,0.0,0.0,0.0,0.0,0.0,0.0,0.0,0.0,0.0,0.0,0.0,0.0,0.0,0.0,0.0,0.0,0.0,0.0,0.0,0.0,0.0,0.0,0.0,0.0,0.0,0.0,0.0,0.0,0.0,0.0,0.0,0.0,0.0,0.0,0.0,0.0,0.0,0.0,0.0,0.0,0.0,0.0,0.0,0.0,0.0,0.0,0.0,0.0,0.0,0.0,0.0,0.0,0.0,0.0,0.0,0.0,0.0,0.0,0.0,0.0,0.0,0.0,0.0,0.0,0.0,0.0,0.0,0.0,0.0,0.0,0.0,0.0,0.0,0.0,0.0,0.0,0.0,0.0,0.0,0.0,0.0,0.0,0.0,0.0,0.0,0.0,0.0,0.0,0.0,0.0,0.0,0.0,0.0,0.0,0.0,0.0,0.0,0.0,0.0,0.0,0.0,0.0,0.0,0.0,0.0,0.0,0.0,0.0,0.0,0.0,0.0,0.0,0.0,0.0,0.0,0.0,0.0,0.0,0.0,0.0,0.0,0.0,0.0,0.0,0.0,0.0,0.0,0.0,0.0,0.0,0.0,0.0,0.0,0.0,0.0,0.0,0.0,0.0,0.0,0.0,0.0,0.0,0.0,0.0,0.0,0.0,0.0,0.0,0.0,0.0,0.0,0.0,0.0,0.0,0.0,0.0,0.0,0.0,0.0,0.0,0.0,0.0,0.0,0.0,0.0,0.0,0.0,2.7007,0.0,0.0,0.0,0.0,0.0,0.0,0.0,0.0,0.0,0.0,0.0,0.0,0.0,0.0,0.0,0.0,0.0,0.0,0.0,0.0,0.0,0.0,0.0,0.0,0.0,0.0,0.0,0.0,0.0,0.0,0.0,0.0,0.0,0.0,0.0,0.0,0.0,0.0,2.1055,2.1585,2.2377,2.3415,2.3415,2.3447,2.3528,0.0,0.0,0.0,0.0,0.0,0.0,0.0,0.0,0.0,0.0,0.0,0.0,0.0,0.0,0.0,0.0,0.0,0.0,0.0,0.0,0.0,0.0,0.0,0.0,0.0,0.0,0.0,0.0,0.0,0.0,0.0,0.0,0.0,0.0,0.0,0.0,0.0,0.0,0.0,0.0,0.0,0.0,0.0,0.0,0.0,0.0,0.0,0.0,0.0,0.0,0.0,0.0,0.0,0.0,0.0,0.0,0.0,0.0,0.0,0.0,0.0,0.0,0.0,0.0,0.0,0.0,0.0,0.0,0.0,0.0,0.0,2.7537,0.0,0.0,0.0,0.0,0.0,0.0,0.0,0.0,0.0,0.0,0.0,0.0,0.0,0.0,0.0,0.0,0.0,0.0,0.0,0.0,0.0,0.0,0.0,1.9563,1.9717,1.9763,2.0273,2.0805,0.0,0.0,0.0,0.0,0.0,0.0,2.056,2.1098,2.1279,2.1083,2.2084,2.33,2.4677,2.4825,2.4662,2.4257,2.4547,0.0,0.0,0.0,0.0,0.0,0.0,0.0,0.0,0.0,0.0,0.0,0.0,0.0,0.0,0.0,0.0,0.0,0.0,0.0,0.0,0.0,0.0,0.0,0.0,0.0,0.0,0.0,0.0,0.0,0.0,0.0,0.0,0.0,0.0,0.0,0.0,0.0,0.0,0.0,0.0,0.0,0.0,0.0,0.0,0.0,0.0,0.0,0.0,0.0,0.0,0.0,0.0,0.0,0.0,0.0,0.0,0.0,0.0,0.0,0.0,0.0,0.0,0.0,2.917,2.9863,3.108,3.1369,3.187,3.2413,2.9816,2.8749,2.8872,2.8729,0.0,0.0,0.0,0.0,0.0,0.0,0.0,0.0,0.0,0.0,0.0,0.0,0.0,0.0,0.0,0.0,0.0,0.0,0.0,1.9708,1.9654,1.969,1.9786,2.0031,2.0385,2.0868,2.1529,0.0,0.0,0.0,0.0,0.0,2.1944,2.179,2.1867,2.2182,2.2977,2.4095,2.5468,2.6102,2.6668,2.7106,2.5972,2.581,2.6361,0.0,0.0,0.0,0.0,0.0,0.0,0.0,0.0,0.0,0.0,0.0,0.0,0.0,0.0,0.0,0.0,0.0,0.0,0.0,0.0,0.0,0.0,0.0,0.0,0.0,0.0,0.0,0.0,0.0,0.0,0.0,0.0,0.0,0.0,0.0,0.0,0.0,0.0,0.0,0.0,0.0,2.7001,2.7131,0.0,0.0,0.0,0.0,0.0,0.0,0.0,0.0,0.0,0.0,0.0,0.0,0.0,3.0197,3.0249,3.1218,3.1756,3.1878,3.2178,3.2414,3.261,3.266,3.2854,3.3157,3.2742,0.0,3.1527,3.0824,0.0,0.0,0.0,0.0,0.0,0.0,0.0,0.0,0.0,0.0,0.0,0.0,0.0,0.0,0.0,0.0,0.0,0.0,0.0,0.0,0.0,2.021,2.0309,2.0578,2.1667,2.24,2.255,2.3437,0.0,0.0,0.0,2.2996,2.1998,2.2484,2.3243,2.4207,2.4515,2.5405,2.6798,2.7122,2.7429,2.7688,2.7494,2.7138,2.6685,2.6361,0.0,0.0,0.0,0.0,0.0,0.0,0.0,0.0,0.0,0.0,0.0,0.0,0.0,0.0,0.0,0.0,0.0,0.0,0.0,0.0,0.0,0.0,0.0,0.0,0.0,0.0,0.0,0.0,0.0,0.0,0.0,0.0,0.0,0.0,0.0,0.0,0.0,0.0,0.0,2.6395,2.6965,2.7062,2.7114,2.7114,0.0,0.0,0.0,0.0,0.0,0.0,0.0,0.0,0.0,3.0434,3.1236,3.1757,3.1925,3.2445,3.2902,3.3364,3.3496,3.4026,3.4899,3.5495,3.5825,3.5957,3.6098,3.5763,3.4954,3.267,3.1538,3.1223,0.0,0.0,0.0,0.0,3.174,3.2321,0.0,0.0,0.0,0.0,0.0,0.0,0.0,0.0,0.0,0.0,0.0,0.0,2.0602,2.0967,2.137,2.183,2.3022,2.3749,2.3696,2.4627,2.4923,2.4365,2.4345,2.37,2.2376,2.3272,2.4371,2.5597,2.5953,2.6879,2.8271,2.845,2.8607,2.8822,2.9372,2.8725,2.7219,2.7041,2.6652,2.6099,0.0,0.0,0.0,0.0,0.0,0.0,0.0,0.0,0.0,0.0,0.0,0.0,0.0,0.0,0.0,0.0,0.0,0.0,0.0,0.0,0.0,0.0,0.0,0.0,0.0,0.0,0.0,0.0,0.0,0.0,0.0,0.0,0.0,0.0,0.0,0.0,0.0,2.6875,2.7506,2.747,2.7698,2.7829,0.0,0.0,0.0,0.0,0.0,0.0,3.049,3.1116,3.1777,3.2506,3.3104,3.3648,3.4096,3.4096,3.4399,3.5007,3.5057,3.5716,3.6844,3.7712,3.8244,3.851,3.8723,3.8704,3.8276,3.483,3.3321,3.3123,3.2788,3.2588,3.2508,3.276,3.3436,3.4162,0.0,0.0,0.0,0.0,0.0,0.0,0.0,0.0,0.0,0.0,0.0,2.1103,2.073,2.1959,2.3174,2.4143,2.4014,2.415,2.4768,2.4879,2.4614,2.3973,2.4954,2.497,2.3828,2.4218,2.4822,2.5597,2.6944,2.8336,2.9799,3.0441,3.1114,3.1801,3.1834,3.0668,2.8665,2.7948,2.764,2.7494,2.6131,0.0,0.0,0.0,0.0,0.0,0.0,0.0,0.0,0.0,0.0,0.0,0.0,0.0,0.0,0.0,0.0,0.0,0.0,0.0,0.0,0.0,0.0,0.0,0.0,0.0,0.0,0.0,0.0,0.0,0.0,0.0,0.0,0.0,0.0,0.0,0.0,0.0,0.0,2.9034,2.9715,0.0,0.0,0.0,0.0,3.0491,3.0577,3.1411,3.3301,3.3442,3.427,3.6078,3.6185,3.656,3.7363,3.7363,3.7381,3.7434,3.7683,3.7839,3.7929,3.8234,3.893,3.9899,3.9915,4.0477,4.1115,3.7636,3.5808,3.533,3.6255,3.6111,3.5495,3.6452,3.7006,3.728,0.0,0.0,0.0,0.0,0.0,0.0,0.0,0.0,1.9737,2.0427,2.0962,2.1672,2.2649,2.3617,2.4402,2.4931,2.542,2.5634,2.5445,2.5263,2.5035,2.4796,2.4852,2.5155,2.568,2.5379,2.6247,2.8373,2.8876,3.0091,3.1971,3.219,3.2692,3.3372,3.3841,3.3356,3.2093,3.0451,2.9243,2.832,2.7348,2.6701,0.0,0.0,0.0,0.0,0.0,0.0,0.0,0.0,0.0,0.0,0.0,0.0,0.0,0.0,0.0,0.0,0.0,0.0,0.0,0.0,0.0,0.0,0.0,0.0,0.0,0.0,0.0,0.0,0.0,0.0,0.0,0.0,0.0,0.0,0.0,0.0,0.0,3.0661,3.1413,0.0,3.172,3.1407,3.1795,3.3123,3.3459,3.434,3.6078,3.6683,3.7253,3.7915,3.8415,3.8884,3.9391,3.9391,3.9229,3.8897,3.8964,3.876,3.8305,3.9621,4.0129,4.0075,4.128,4.172,4.1497,4.0255,3.9027,3.7921,3.787,3.7431,3.7005,3.8535,3.9214,3.9303,0.0,0.0,0.0,0.0,0.0,0.0,0.0,0.0,1.9716,2.0932,2.1533,2.242,2.3997,2.4891,2.5625,2.6285,2.6486,2.6404,2.6061,2.5416,2.504,2.504,2.4927,2.5551,2.7008,2.6814,2.785,3.0253,3.0966,3.2052,3.3437,3.3939,3.4424,3.4862,3.5347,3.5299,3.4748,3.3315,3.1769,3.0134,2.8919,2.845,2.8255,0.0,0.0,0.0,0.0,0.0,0.0,0.0,0.0,0.0,0.0,0.0,0.0,0.0,0.0,0.0,0.0,0.0,0.0,0.0,0.0,0.0,0.0,0.0,0.0,0.0,0.0,0.0,0.0,0.0,0.0,0.0,0.0,0.0,0.0,0.0,3.2423,3.2608,3.364,3.4262,3.411,3.4053,3.4588,3.5912,3.6505,3.7255,3.8308,3.9397,3.9985,3.9985,4.0566,4.0971,4.1159,4.1017,4.0633,4.0019,4.0101,3.9859,3.9383,4.0719,4.1179,4.1009,4.2254,4.2649,4.2404,4.2224,4.1581,4.0647,3.9948,3.9524,3.9481,4.0662,4.12,4.1261,0.0,0.0,0.0,0.0,0.0,0.0,1.9157,1.9453,1.9951,2.0651,2.2009,2.3367,2.4621,2.571,2.689,2.8254,2.713,2.6443,2.6645,2.529,2.4481,2.4515,2.5257,2.6345,2.7737,2.8498,2.9583,3.1001,3.3113,3.4165,3.423,3.5671,3.6351,3.6367,3.6367,3.6384,3.6416,3.6416,3.5218,3.3153,3.0917,3.0836,3.1623,0.0,0.0,0.0,0.0,0.0,0.0,0.0,0.0,0.0,0.0,0.0,0.0,0.0,0.0,0.0,0.0,0.0,0.0,0.0,0.0,0.0,0.0,0.0,0.0,0.0,0.0,0.0,0.0,0.0,0.0,0.0,0.0,0.0,3.1277,3.2919,3.451,3.5009,3.6433,3.7273,3.695,3.7424,3.8058,3.8861,3.9591,4.0019,4.0037,4.152,4.2379,4.2343,4.2647,4.2804,4.2731,4.2268,4.166,4.0874,4.114,4.1235,4.1214,4.1519,4.2069,4.2813,4.2831,4.3311,4.3992,4.3474,4.3365,4.3465,4.2607,4.2517,4.2905,4.2963,4.3069,4.3169,0.0,0.0,0.0,0.0,0.0,0.0,1.912,1.9453,2.0167,2.147,2.2245,2.3481,2.5628,2.6614,2.7251,2.7635,2.7185,2.6671,2.6225,2.472,2.4205,2.5034,2.6396,2.7802,2.9264,3.049,3.1817,3.3226,3.4343,3.5412,3.6448,3.6826,3.7323,3.7825,3.7825,3.8116,3.8602,3.8602,3.8553,3.8132,3.4424,3.2562,3.1834,0.0,0.0,0.0,0.0,0.0,0.0,0.0,0.0,0.0,0.0,0.0,0.0,0.0,0.0,0.0,0.0,0.0,0.0,0.0,0.0,0.0,0.0,0.0,0.0,0.0,0.0,0.0,0.0,0.0,0.0,0.0,0.0,3.3748,3.3345,3.5324,3.7242,3.8382,3.9133,3.965,3.9895,4.0408,4.0892,4.1324,4.2073,4.273,4.3265,4.3711,4.3802,4.3474,4.3556,4.3538,4.3355,4.3221,4.2859,4.2242,4.2323,4.2057,4.1501,4.2173,4.2708,4.3109,4.3709,4.4195,4.4567,4.4468,4.457,4.4715,4.3894,4.3358,4.3203,4.4531,4.4653,4.4192,0.0,0.0,0.0,0.0,0.0,0.0,1.9325,1.9545,2.0319,2.2029,2.244,2.3481,2.5792,2.6419,2.6804,2.7089,2.674,2.6283,2.5735,2.4906,2.4875,2.5847,2.7627,2.9292,3.0755,3.2158,3.3437,3.4554,3.5574,3.6497,3.7295,3.763,3.8149,3.8845,3.8845,3.9233,3.9927,3.9927,4.0124,4.027,3.7776,3.6287,3.5283,3.2789,3.1882,3.1785,3.0571,3.0214,3.015,2.9,0.0,0.0,0.0,0.0,0.0,0.0,0.0,0.0,0.0,0.0,0.0,0.0,0.0,0.0,0.0,0.0,0.0,0.0,0.0,0.0,0.0,0.0,0.0,0.0,3.5198,3.6547,3.6803,3.8028,3.9354,4.0606,4.1499,4.2188,4.2531,4.2857,4.3102,4.3251,4.4018,4.4517,4.4603,4.538,4.5533,4.4913,4.5462,4.5406,4.4611,4.4747,4.4307,4.3299,4.3299,4.3058,4.2612,4.3095,4.3442,4.3721,4.4209,4.4546,4.4812,4.4996,4.5163,0.0,0.0,0.0,0.0,0.0,4.5297,4.4665,0.0,0.0,0.0,0.0,0.0,0.0,1.9654,1.9762,2.0446,2.2325,2.2586,2.3382,2.5472,2.5685,2.594,2.6555,2.6049,2.5607,2.5357,2.5641,2.6196,2.6969,2.9016,3.0771,3.2093,3.3501,3.4586,3.5325,3.6659,3.7328,3.7425,3.81,3.878,3.9505,3.9505,3.9927,4.061,4.061,4.0658,4.0723,4.0642,4.0529,3.9897,3.5493,3.4845,3.5963,3.3404,3.2053,3.139,3.0642,0.0,0.0,0.0,0.0,0.0,0.0,0.0,0.0,0.0,0.0,0.0,0.0,0.0,0.0,0.0,0.0,0.0,0.0,0.0,0.0,0.0,0.0,0.0,0.0,3.7961,4.0249,4.0818,4.0902,4.1266,4.2235,4.3558,4.4475,4.4706,4.4795,4.4817,4.4793,4.5525,4.569,4.5018,0.0,0.0,0.0,0.0,4.7519,4.5935,4.6212,4.5565,4.4005,4.4005,4.402,4.4048,4.4048,4.4206,4.4493,4.4493,4.465,4.4919,4.5232,4.5343,4.5361,4.5426,4.5591,4.5807,4.5807,4.5369,4.4873,0.0,0.0,0.0,0.0,0.0,0.0,1.969,2.0065,2.0835,2.2176,2.249,2.3378,2.5477,2.5696,2.5743,2.5883,2.5774,2.5691,2.5634,2.6675,2.78,2.8902,3.0658,3.1996,3.2854,3.4271,3.5331,3.6092,3.6891,3.7614,3.8197,3.8327,3.878,3.9505,3.9505,4.0202,4.1401,4.1401,4.1695,4.2133,4.1598,4.0721,3.9603,3.8647,3.7436,3.6238,3.5671,3.538,3.5056,3.3728,3.3987,3.4424,3.1947,3.117,0.0,0.0,0.0,0.0,0.0,0.0,0.0,0.0,0.0,0.0,0.0,0.0,0.0,0.0,0.0,0.0,0.0,0.0,0.0,3.8298,3.9678,4.1056,4.2984,4.3787,4.4406,4.4978,4.4986,4.5093,4.5526,4.596,4.614,4.5981,4.6722,4.7226,4.7354,4.7706,4.7629,4.7038,4.7279,4.6798,4.5447,4.5512,4.5026,4.4005,0.0,0.0,4.4318,4.4318,4.4585,4.5052,4.5052,4.5232,4.5522,4.559,4.5653,4.5696,4.573,4.5752,4.5807,4.5807,4.5764,4.5756,0.0,0.0,0.0,0.0,0.0,0.0,1.9892,1.998,2.061,2.2325,2.249,2.3103,2.4813,2.4704,2.4627,2.4984,2.5082,2.5363,2.5811,2.7264,2.8716,3.0132,3.1699,3.287,3.3582,3.5007,3.593,3.6303,3.7355,3.8051,3.8408,3.8764,3.9314,4.0011,4.0739,4.1646,4.2666,4.3022,4.3379,4.3654,4.2925,4.2229,4.1468,4.0399,3.9541,3.8845,3.8149,3.7663,3.7193,3.6076,3.5979,3.5979,3.4165,3.3356,3.2708,0.0,0.0,0.0,0.0,0.0,0.0,0.0,0.0,0.0,0.0,0.0,0.0,0.0,0.0,3.4687,0.0,0.0,3.8816,4.0918,4.2123,4.3258,4.4518,4.5347,4.5794,4.5676,4.5776,4.6052,4.6613,4.6887,4.7074,4.7145,4.7511,4.7829,4.7992,4.8132,4.8085,4.7795,4.796,4.7362,4.59,4.629,4.5881,4.4636,4.4751,4.4878,4.4984,4.4721,4.4825,4.5201,4.5201,4.54,4.5709,4.5735,4.5776,4.5814,4.5867,4.5867,4.5814,4.5886,4.5927,4.6017,0.0,0.0,0.0,0.0,0.0,0.0,0.0,1.9856,2.0313,2.2323,2.2381,2.2724,2.3979,2.3748,2.3717,2.4256,2.4487,2.505,2.6068,2.7742,2.9406,3.0981,3.249,3.3534,3.4084,3.5396,3.6157,3.6303,3.7582,3.8327,3.8618,3.923,3.9978,4.0966,4.2085,4.3072,4.3962,4.4544,4.4787,4.4739,4.4156,4.3832,4.3524,4.1776,4.1306,4.1434,4.0154,3.9039,3.8116,3.7679,3.6983,3.6222,3.5736,3.5104,3.423,3.2676,3.2109,0.0,0.0,0.0,0.0,0.0,0.0,0.0,0.0,0.0,3.3328,3.4585,3.6075,3.757,3.8898,4.0483,4.1966,4.314,4.4401,4.5376,4.5744,4.6363,4.6547,4.5947,4.641,4.6962,4.745,4.7554,4.7726,4.8053,4.8092,4.8111,4.8172,4.8383,4.8495,4.8495,4.8767,4.8203,4.6754,4.7434,4.7039,4.5602,4.5677,4.5716,4.5747,4.5155,4.503,4.5292,4.5293,4.5466,4.5734,4.5803,4.584,4.5841,4.5966,4.5956,4.586,4.5977,4.6022,4.6044,0.0,0.0,0.0,0.0,0.0,0.0,0.0,0.0,2.0408,2.1733,2.1976,2.2385,2.3313,2.3887,2.4225,2.4302,2.4487,2.5191,2.6529,2.8354,3.0044,3.1454,3.3103,3.402,3.4101,3.4894,3.5639,3.6303,3.7036,3.81,3.9392,3.9473,4.0513,4.236,4.2522,4.3363,4.4674,4.4755,4.4787,4.4787,4.4706,4.4285,4.3686,4.3443,4.2618,4.1498,4.0658,3.9104,3.7517,3.8084,3.7404,3.64,3.6891,3.661,3.5655,3.3582,3.2514,3.1834,3.1001,3.0839,3.1341,3.3178,3.2805,3.3088,0.0,0.0,3.6846,3.8576,3.9626,4.0457,4.1195,4.222,4.3452,4.4961,4.5493,4.5985,4.6743,4.7173,4.7367,4.7299,4.7349,4.7425,4.749,4.7767,4.8053,4.8326,4.8364,4.8495,4.8785,4.882,4.8838,4.8838,4.8891,4.8481,4.7571,4.79,4.7624,4.6719,4.6261,4.6168,4.6358,4.554,4.5302,4.5568,4.5627,4.57,4.5807,4.5937,4.598,4.5991,4.6056,4.608,4.6076,4.6084,4.6128,4.6171,0.0,0.0,0.0,0.0,0.0,0.0,0.0,0.0,2.0077,2.1093,2.178,2.2393,2.3005,2.38,2.4148,2.3748,2.4153,2.5061,2.6595,2.8196,2.9761,3.1291,3.2967,3.3873,3.3873,3.5156,3.5995,3.6303,3.7404,3.8472,3.9522,3.991,4.0756,4.2067,4.333,4.4221,4.4852,4.5662,4.5759,4.5338,4.4949,4.4107,4.3007,4.2634,4.1581,4.0283,3.9525,3.844,0.0,3.7209,3.6788,3.6432,3.7085,3.6546,3.5315,3.3582,3.287,3.2562,3.2271,3.2481,3.2983,3.3874,3.4603,3.5688,3.7926,3.8652,3.9292,4.0992,4.2748,4.4138,4.4691,4.5727,4.6572,0.0,4.6996,4.7163,4.7015,4.7294,4.7327,4.6858,4.752,4.8015,4.8015,4.8134,4.8364,4.866,4.8678,4.8767,4.8891,4.8909,4.8909,4.8909,4.9094,4.8781,4.7937,4.869,4.8433,4.713,4.7073,4.682,4.6424,4.5735,4.5513,4.5657,4.5727,4.5805,4.5861,4.5969,4.6018,4.6056,4.6134,4.6155,4.6155,4.6155,4.6189,4.6206,0.0,0.0,0.0,0.0,0.0,0.0,0.0,0.0,0.0,0.0,2.15,2.2258,2.306,2.3845,2.4102,2.3625,2.4025,2.4858,2.6221,2.7703,2.921,3.0737,3.2403,3.3425,3.3694,3.5138,3.5915,3.5995,3.742,3.8472,3.9201,3.9897,4.0737,4.1677,4.3411,4.4318,4.4577,4.5791,4.6002,4.5467,4.4771,4.3735,4.2473,4.1419,4.0154,3.8812,3.8294,3.7388,3.6319,3.5639,3.5283,3.5202,3.5704,3.5283,3.4385,3.317,3.2789,3.2789,3.2789,3.342,3.4246,3.4845,3.6409,3.8123,3.9394,4.0623,4.1986,4.3748,4.5549,4.6859,4.7039,4.7895,4.8318,4.7504,4.7654,4.7704,4.7205,4.7227,4.7099,4.662,4.7332,4.7886,4.7886,4.8274,4.8641,4.8891,4.8909,4.8909,4.8909,4.8976,4.9137,4.936,4.9684,4.9664,4.9265,5.0169,4.9784,4.8099,4.814,4.7599,4.6517,4.5916,4.5665,4.5722,4.581,4.5874,4.5936,4.6017,4.608,4.6134,4.6204,4.6235,4.6235,4.6235,4.6235,4.6238,0.0,0.0,0.0,0.0,0.0,0.0,0.0,0.0,0.0,0.0,0.0,0.0,2.3573,2.4078,2.4302,2.4271,2.4302,2.461,2.5302,2.6896,2.8443,2.9795,3.1439,3.2768,3.3694,3.444,3.4983,3.5244,3.6643,3.7728,3.844,3.9197,4.0283,4.1628,4.2359,4.3055,4.3783,4.4544,4.4836,4.4755,4.4043,4.3266,4.2376,4.0335,3.8651,3.7344,3.7328,3.5995,3.4101,3.3404,3.2708,3.2141,3.2158,3.2611,3.3,3.2255,3.2044,3.2044,3.2044,3.3048,3.4603,3.6664,3.8117,3.9891,4.3165,4.4294,4.5268,4.7496,4.7995,4.7883,4.7391,4.7544,4.7486,4.6749,4.6854,4.7151,4.7446,4.7039,4.6848,4.7132,4.6827,4.6552,0.0,4.7963,4.8891,4.8909,4.8909,4.8909,4.8909,4.9209,4.9737,5.0519,5.0874,5.1409,5.2167,5.2527,5.183,5.0118,4.9593,4.8481,4.6865,4.6052,4.5722,4.5795,4.588,4.5931,4.6017,4.6139,4.62,4.6204,4.6267,4.6308,4.6308,4.6308,4.6308,4.6308,0.0,0.0,0.0,0.0,0.0,0.0,0.0,0.0,0.0,0.0,0.0,0.0,0.0,0.0,0.0,0.0,2.4177,2.4574,2.525,2.6701,2.7922,2.8835,3.0417,3.1658,3.241,3.3539,3.4406,3.4924,3.6093,3.6972,3.7695,3.8424,3.9266,4.0267,4.1403,4.2067,4.2342,4.3055,4.3331,4.3249,4.2051,4.116,4.0302,3.8181,3.6465,3.5056,0.0,3.2991,3.1859,3.1209,3.082,3.0771,3.1704,3.1834,3.1704,3.1931,3.219,3.2814,3.4734,3.6538,3.8408,4.0558,4.2116,4.3645,4.559,4.652,4.7153,4.7727,4.7015,4.61,4.545,4.5233,4.5106,4.4859,4.6056,4.7116,4.7446,4.7552,4.747,4.7243,4.7733,0.0,0.0,0.0,0.0,4.8091,4.8612,4.8909,4.8909,4.9225,4.9771,5.0573,5.109,5.151,5.1764,5.1518,5.0544,4.8787,4.7548,4.6658,4.61,4.5865,4.5798,4.588,4.5939,4.6031,4.6137,4.6171,4.6235,4.6267,4.6289,4.6308,4.6308,4.6308,4.6308,4.6308,0.0,0.0,0.0,0.0,0.0,0.0,0.0,0.0,0.0,0.0,0.0,0.0,0.0,0.0,0.0,0.0,0.0,2.4466,2.4896,2.6026,2.6965,2.7657,2.8905,2.9953,3.0697,3.1645,3.238,3.2903,3.4152,3.4991,3.5418,3.6416,3.7112,3.7614,3.8792,3.9473,3.9719,4.0189,4.0572,4.0726,3.9048,3.8105,3.7514,3.534,3.3867,0.0,3.1364,3.0554,3.0085,2.9653,2.9756,3.0082,3.0372,3.0661,3.1008,3.1645,3.2748,3.4348,3.6959,3.9101,4.1047,4.3046,4.4687,4.6118,4.7143,4.7704,4.7912,4.7748,4.6242,4.4725,4.3765,4.3079,4.2668,4.2735,4.3957,4.5333,4.6644,4.6761,4.687,4.7333,4.7767,4.785,0.0,0.0,0.0,4.811,4.8612,4.8942,4.9077,4.9362,5.0107,5.1353,5.1852,5.2391,5.2997,5.2064,5.0423,4.8124,4.6474,4.5717,4.573,4.5805,4.5867,4.5942,4.6031,4.6122,4.6204,4.6234,4.6265,4.6308,4.6308,4.6308,4.6308,4.6308,4.6308,4.6308,0.0,0.0,0.0,0.0,0.0,0.0,0.0,0.0,0.0,0.0,0.0,0.0,0.0,0.0,0.0,0.0,0.0,0.0,2.4302,2.4948,2.5626,2.6325,2.7003,2.7806,2.8732,2.8958,2.9205,2.9493,3.1103,3.1898,3.1931,3.3291,3.3939,3.3971,3.4725,3.5445,3.6141,3.6141,3.6716,3.7433,3.5242,3.4398,3.4233,3.2052,3.1071,3.0678,2.9345,2.8881,2.8881,2.8848,2.9536,3.0107,2.8502,2.9399,3.1177,3.1699,3.3882,3.6597,3.8725,4.0761,4.2674,4.4318,4.5921,4.7294,4.7992,4.7837,4.7551,4.751,4.5579,4.3533,4.2198,4.1014,4.0313,4.0615,4.1022,4.2354,4.5329,4.5075,4.5388,0.0,0.0,0.0,0.0,0.0,0.0,4.8834,0.0,4.9061,4.9384,4.967,5.0741,5.274,5.3009,5.3914,5.5549,5.3818,5.1299,4.8053,4.6452,4.573,4.5795,4.586,4.5936,4.6003,4.6142,4.6204,4.6207,4.6268,4.6308,4.6308,4.6308,4.6308,4.6308,4.6308,4.6308,4.6308,0.0,0.0,0.0,0.0,0.0,0.0,0.0,0.0,0.0,0.0,0.0,0.0,0.0,0.0,0.0,0.0,0.0,0.0,2.4251,2.5112,2.5678,2.5864,2.6654,2.7438,2.8196,2.8443,2.8854,2.9432,3.0103,3.0431,3.0447,3.1316,3.1713,3.1746,3.2498,3.3226,3.3906,3.3906,3.4345,3.4892,3.3299,3.2649,3.2494,3.0868,3.0222,3.0129,2.9966,2.992,2.9838,2.9334,3.0241,3.1571,3.1695,3.249,3.3812,3.6171,3.799,3.985,4.2625,4.479,4.6473,4.7443,4.8014,4.8392,4.8581,4.7245,4.5656,4.4561,4.1619,3.8772,3.7279,3.7481,3.836,3.9848,4.2346,0.0,4.7351,4.7518,0.0,4.8485,0.0,4.8296,4.8296,4.8481,0.0,0.0,4.9127,4.9321,4.9399,4.9844,5.093,5.2733,5.2434,5.275,5.3837,5.0943,4.841,4.6337,4.5958,4.5785,4.5795,4.5923,4.6018,4.6076,4.616,4.6235,4.6287,4.6289,4.6308,4.6308,4.6308,4.6308,4.6308,4.6308,4.6308,4.6308,0.0,0.0,0.0,0.0,0.0,0.0,0.0,0.0,0.0,0.0,0.0,0.0,0.0,0.0,0.0,0.0,0.0,0.0,0.0,2.4434,2.4945,2.5071,2.5639,2.612,2.6496,2.6851,2.723,2.7609,2.8199,2.8503,2.8519,2.9194,2.9496,2.9513,2.9939,3.0522,3.1193,3.0862,3.1213,0.0,0.0,2.9843,2.9766,2.8967,2.877,2.8994,2.9478,3.026,3.1062,3.1145,3.1985,3.324,3.4795,3.5914,3.7175,3.9707,4.1367,4.2867,4.5165,4.6964,4.8316,4.8838,4.889,4.8534,4.7534,4.5837,4.382,4.1636,3.8686,3.6153,3.5007,3.5182,3.6123,0.0,0.0,0.0,4.647,4.7169,4.7775,0.0,4.8909,0.0,4.8909,4.8909,4.8909,0.0,4.9209,4.9457,4.9573,4.9974,5.1036,5.2924,5.2284,5.1769,5.1529,4.9325,4.7358,4.5687,4.5777,4.5831,4.5893,4.5998,4.6076,4.6147,0.0,4.6266,4.6308,4.6308,4.6308,4.6308,4.6308,4.6308,4.6308,4.6308,4.6308,4.6308,0.0,0.0,0.0,0.0,0.0,0.0,0.0,0.0,0.0,0.0,0.0,0.0,0.0,0.0,0.0,0.0,0.0,0.0,0.0,0.0,2.3861,2.4287,2.4508,2.463,2.469,2.5084,2.5294,2.5294,2.6134,2.6555,2.6571,2.7154,2.7429,2.7429,2.7429,2.7834,2.8466,2.7834,2.8115,2.8836,2.7567,2.6991,2.6911,0.0,2.7258,2.7688,2.8586,3.0212,3.2126,3.3488,3.4325,3.5222,3.7688,3.9363,4.0798,4.2782,4.4278,4.5582,4.6936,4.8129,4.9017,4.9253,4.8883,4.7931,4.5742,4.3871,4.174,3.8772,3.6404,3.474,3.4262,3.3963,3.4553,3.677,0.0,4.1085,4.4772,4.5874,4.6959,4.8688,4.8909,4.8909,4.8909,4.8909,4.8909,4.8909,4.9239,4.9539,4.979,5.0194,5.1177,5.2808,5.2125,5.0885,4.9096,4.84,4.7268,4.5715,4.5773,4.5874,4.6002,4.6064,4.6137,4.6204,4.6267,4.6308,4.6308,4.6308,4.6308,4.6308,4.6308,4.6308,4.6308,4.6308,4.6289,4.6288,0.0,0.0,0.0,0.0,0.0,0.0,0.0,0.0,0.0,0.0,1.9045,1.8714,0.0,0.0,0.0,0.0,0.0,0.0,0.0,0.0,0.0,2.4333,2.4522,2.4795,2.5162,2.5256,2.5294,2.5294,2.5634,2.5775,2.5775,2.5904,2.5953,2.5953,2.5953,2.6377,2.7057,2.6927,2.6983,2.714,2.686,2.6406,2.5935,2.6536,0.0,0.0,2.8953,3.0384,3.1871,3.4823,3.6728,3.8133,3.987,4.1842,4.3967,4.6178,4.7004,4.7537,4.9051,4.9625,4.9792,4.9842,4.8419,4.6544,4.4854,4.1861,0.0,3.6284,3.4456,3.3306,3.3375,3.4542,3.6449,3.9425,4.1377,4.3612,4.6766,4.7335,4.778,0.0,4.8909,4.8909,4.8909,4.8909,0.0,0.0,0.0,4.9749,4.9803,5.0952,5.147,5.1144,5.0991,4.9758,4.737,4.7312,4.6781,4.5781,4.5798,4.5874,4.6002,4.6064,4.6137,4.6204,4.6267,0.0,4.6308,4.6308,4.6308,4.6308,4.6308,4.6308,4.6308,4.6308,4.6266,4.621,0.0,0.0,0.0,0.0,0.0,0.0,0.0,1.8779,1.9073,1.9348,1.9157,1.8975,1.8975,1.8694,1.8689,0.0,0.0,0.0,0.0,0.0,0.0,2.3473,2.3687,2.4124,2.4934,2.5033,2.5204,2.5464,0.0,2.5597,2.5597,2.5597,2.5597,2.5597,2.5597,2.5791,2.6134,2.6134,2.6134,2.6134,2.6134,2.5924,2.5629,2.6005,0.0,0.0,2.886,3.0202,3.1478,3.4028,3.6535,3.9083,4.1809,4.3958,4.5786,4.7286,4.7965,4.843,4.9154,4.9683,4.9821,4.901,4.7362,4.5165,4.2026,0.0,0.0,3.3973,3.3145,3.2942,3.3036,3.4495,0.0,3.8582,4.0546,4.2682,4.5223,4.6446,4.7367,4.8184,4.8649,4.8909,0.0,4.8909,0.0,0.0,0.0,4.9316,4.9784,5.1165,5.1376,5.0125,5.0075,4.9071,4.697,4.66,4.6205,4.5807,4.5805,4.5898,4.6044,4.6084,4.6153,4.6244,4.6289,4.6308,4.6308,4.6308,4.6308,4.6308,4.6308,4.6308,4.6308,4.6308,4.6265,4.6199,0.0,0.0,0.0,0.0,0.0,0.0,0.0,1.8905,1.9256,1.9376,1.9277,1.927,1.9376,1.8863,1.8498,0.0,0.0,0.0,0.0,0.0,0.0,0.0,0.0,0.0,2.4588,0.0,0.0,2.554,2.5578,0.0,0.0,0.0,0.0,0.0,2.5597,2.5597,2.5597,2.5597,2.5597,0.0,0.0,2.5597,2.5597,0.0,0.0,0.0,0.0,2.9726,3.0858,3.2835,3.5395,3.835,4.1695,4.4285,4.6199,4.6613,4.751,4.8327,4.8327,4.8924,4.9183,4.782,4.6199,4.3837,3.956,3.7267,3.5249,3.2386,3.2386,3.2974,3.3185,3.4521,3.6073,3.7559,3.9211,4.1099,4.3369,4.5154,4.6531,0.0,4.8147,0.0,4.8649,4.8649,0.0,0.0,0.0,0.0,4.9651,5.0839,5.0778,4.9276,4.9069,4.8254,4.6769,4.6121,4.5803,4.5803,4.5793,4.5908,4.6098,4.6098,4.6167,4.6308,4.6308,4.6308,4.6308,4.6308,4.6308,4.6308,4.6308,4.6308,4.6308,4.6288,4.6238,4.6138,0.0,0.0,0.0,0.0,0.0,0.0,0.0,1.8554,1.8779,1.9319,1.8919,1.8793,1.9333,1.8863,1.8498,0.0,0.0,0.0,0.0,0.0,0.0,0.0,0.0,0.0,0.0,0.0,0.0,2.5333,2.5521,0.0,0.0,0.0,0.0,0.0,0.0,2.5597,2.5597,2.5597,0.0,0.0,0.0,0.0,0.0,0.0,0.0,0.0,0.0,2.8804,2.9827,3.2294,3.3998,3.5364,3.7109,4.0834,4.4397,4.3793,4.513,4.6803,4.6803,4.7355,4.7734,4.6906,4.5027,4.2568,3.9319,3.6887,3.4628,3.2283,3.2386,3.3185,3.4086,3.5081,3.6516,3.876,3.9451,4.0679,4.3558,4.4788,4.5714,4.6513,0.0,0.0,4.7813,4.7813,0.0,0.0,0.0,0.0,4.9384,4.9615,4.9295,4.8342,4.7676,4.6874,4.5916,4.5836,4.58,4.58,4.58,4.5908,4.6098,4.6098,4.6167,4.6308,4.6308,4.6308,0.0,4.6308,4.6308,4.6308,4.6308,4.6308,4.6289,4.6237,4.6136,4.6014,0.0,0.0,0.0,0.0,0.0,0.0,1.8498,1.9143,1.9578,1.9418,1.9536,1.9578,1.9424,1.8863,1.8498,1.8498,0.0,0.0,0.0,0.0,0.0,0.0,0.0,0.0,0.0,0.0,2.4831,2.5052,2.5413,0.0,0.0,0.0,0.0,0.0,0.0,2.5597,2.5597,2.5597,0.0,0.0,0.0,0.0,0.0,0.0,0.0,0.0,0.0,0.0,2.9232,3.1089,3.2571,3.3599,3.3591,3.5981,3.9221,4.124,4.2775,4.413,4.5483,4.6086,4.6121,4.5389,4.313,4.0405,3.7801,3.5439,3.3421,3.2076,3.2766,3.3833,3.4508,3.5675,3.6962,3.8343,3.8755,3.9507,4.1329,4.2461,4.354,4.4841,4.5732,0.0,0.0,0.0,0.0,0.0,0.0,0.0,4.7199,4.8195,4.8403,4.756,4.7249,4.6687,4.5805,4.58,4.5807,4.5807,4.5807,4.5908,4.6098,4.6098,4.6167,4.6308,4.6308,4.6308,0.0,4.6308,4.6308,4.6308,4.6308,4.6308,4.6288,4.6188,4.6075,4.5977,0.0,0.0,0.0,0.0,0.0,1.8498,1.8498,1.9256,1.9663,1.92,1.9419,1.951,1.9165,1.8631,1.8347,1.8498,1.8498,0.0,0.0,0.0,0.0,0.0,0.0,0.0,0.0,0.0,2.4431,2.4719,2.5166,2.5394,0.0,0.0,2.5597,2.5597,0.0,0.0,0.0,0.0,0.0,0.0,0.0,0.0,0.0,0.0,0.0,0.0,0.0,0.0,0.0,0.0,0.0,3.1878,3.1436,3.2562,3.4682,3.7934,4.0049,4.1664,4.3285,4.4234,4.4527,4.3552,4.1326,3.8784,3.649,3.4387,3.2697,3.1955,3.3024,3.4235,3.4709,3.6054,3.7341,3.8065,3.8376,3.8888,3.997,4.0982,4.2017,0.0,0.0,4.4907,0.0,0.0,0.0,0.0,0.0,0.0,4.5792,4.6885,4.7295,4.6719,4.6726,4.6426,4.5807,4.5807,4.5807,4.5807,4.5807,4.5908,4.6098,4.6098,4.6167,4.6308,4.6308,4.6308,0.0,4.6308,4.6308,4.6308,4.6308,4.6287,4.6239,4.6101,4.6025,4.5924,0.0,0.0,0.0,0.0,0.0,0.0,1.8498,1.8512,1.8512,1.8512,1.8109,1.7996,1.8459,1.8095,1.7982,1.8459,1.8498,0.0,0.0,0.0,0.0,0.0,0.0,0.0,0.0,0.0,2.4302,2.4302,2.4699,2.4902,2.4922,2.5375,2.5597,2.5597,0.0,0.0,0.0,0.0,0.0,0.0,0.0,0.0,0.0,0.0,0.0,0.0,0.0,0.0,0.0,0.0,0.0,0.0,0.0,3.1312,3.1713,3.3601,3.6801,3.9733,3.975,4.1464,4.2844,4.1326,3.9773,3.8008,3.5714,3.4007,3.2697,3.1955,3.3024,3.4235,3.4709,3.6218,3.7614,3.8291,3.8612,3.9158,4.0243,4.1089,4.1609,0.0,0.0,4.3249,0.0,0.0,0.0,0.0,0.0,0.0,4.58,4.5827,4.5827,4.5807,4.5805,4.5807,4.5807,4.5807,4.5807,4.5807,4.5807,4.5908,4.6098,4.6098,4.6167,4.6308,4.6308,4.6308,0.0,4.6308,4.6308,4.6308,4.6307,4.6218,4.6082,4.6022,4.5919,4.5783,0.0,0.0,0.0,0.0,0.0,0.0,0.0,1.8849,1.8975,1.8554,1.8487,1.8481,1.8501,1.7835,1.7733,1.8556,1.8556,0.0,0.0,0.0,0.0,0.0,0.0,0.0,0.0,0.0,2.3135,2.3135,2.4056,2.4619,2.4902,2.5036,2.5282,2.5597,2.5597,2.5597,0.0,0.0,0.0,0.0,0.0,0.0,0.0,0.0,0.0,0.0,0.0,0.0,0.0,0.0,0.0,0.0,0.0,0.0,0.0,3.2085,3.3934,3.6197,3.7767,3.8336,3.8513,3.8565,3.7047,3.5356,3.4594,3.3248,3.2076,3.1852,3.2689,3.3857,3.506,3.6247,3.7464,3.8667,3.8942,3.9124,3.9472,0.0,0.0,4.179,4.3235,4.4392,0.0,0.0,0.0,0.0,0.0,0.0,4.5807,4.5791,4.5805,4.5805,4.58,4.5807,4.5807,4.5807,4.5807,4.5807,4.5886,4.5983,4.6102,4.6147,4.6212,4.6308,4.6308,4.6308,4.6308,4.6308,4.6308,4.6307,4.6307,4.6213,4.6095,4.597,4.5886,4.578,0.0,0.0,0.0,0.0,0.0,0.0,0.0,1.8821,1.8933,1.8554,1.8317,1.8275,1.8481,1.7713,1.7611,1.8615,1.8615,0.0,0.0,0.0,0.0,0.0,0.0,0.0,2.0988,2.1892,2.2496,2.2712,2.3592,2.4168,2.442,2.4583,2.4914,2.5336,2.5336,2.5432,0.0,0.0,0.0,0.0,0.0,0.0,2.5597,0.0,0.0,0.0,0.0,0.0,0.0,0.0,0.0,0.0,0.0,0.0,0.0,0.0,3.1987,3.3662,3.5683,3.6249,3.6353,3.6581,3.5373,3.4027,3.3714,3.2679,3.1818,3.191,3.2647,3.3688,3.4893,3.6159,3.7366,3.8461,3.8897,3.9101,3.9101,0.0,0.0,4.1867,0.0,0.0,0.0,0.0,0.0,0.0,0.0,0.0,4.581,4.5793,4.5807,4.5807,4.5807,4.5807,4.5807,4.5807,4.5807,4.5807,4.5941,4.6036,4.6102,4.6165,4.6239,4.6308,4.6308,4.6308,0.0,4.6308,4.6307,4.6285,4.6237,4.614,4.6014,4.589,4.5809,4.5704,0.0,0.0,0.0,0.0,0.0,0.0,0.0,1.8506,1.8498,1.8498,1.7774,1.757,1.842,1.7733,1.7611,1.8634,0.0,0.0,0.0,0.0,0.0,0.0,0.0,0.0,2.0915,2.154,2.2193,2.283,2.3274,2.3543,2.3595,2.4078,2.4513,2.4902,2.4922,2.5188,0.0,0.0,0.0,0.0,0.0,0.0,0.0,0.0,0.0,0.0,0.0,0.0,0.0,0.0,0.0,0.0,0.0,0.0,0.0,0.0,0.0,0.0,0.0,3.4938,3.5818,3.5128,3.4438,3.3731,3.299,3.2301,0.0,3.2073,3.2845,3.3701,3.4473,3.6,3.7331,3.7895,3.8599,3.9101,0.0,3.9923,0.0,0.0,4.3257,0.0,0.0,0.0,0.0,0.0,0.0,0.0,4.58,4.5807,4.5807,4.5807,4.5807,4.5807,4.5807,4.5865,4.5865,4.5821,4.5958,4.6046,4.6109,4.6189,4.624,0.0,4.623,4.625,4.6307,4.6229,4.6246,4.6299,4.6155,4.6022,4.5886,4.5809,4.5723,4.5594,0.0,0.0,0.0,0.0,0.0,0.0,0.0,0.0,0.0,0.0,1.8016,1.7902,1.8576,1.7774,1.7672,0.0,0.0,0.0,0.0,0.0,0.0,0.0,0.0,0.0,2.0306,2.0465,2.109,2.2222,2.2316,2.2789,2.3595,2.4078,2.4513,2.4922,2.5282,2.5505,0.0,0.0,0.0,0.0,0.0,0.0,0.0,0.0,0.0,0.0,2.5597,2.6448,0.0,0.0,0.0,0.0,0.0,0.0,0.0,0.0,3.0565,3.1145,3.2093,0.0,3.2817,3.2645,3.2472,3.2283,0.0,3.2049,3.209,3.2283,3.2745,3.3649,3.5399,3.6201,3.7067,3.8558,3.8971,3.9101,3.9101,0.0,0.0,4.22,4.4038,0.0,0.0,0.0,0.0,0.0,4.5793,4.5793,4.5807,4.5807,4.5807,4.5807,4.5807,4.5807,4.5807,4.6464,4.6519,4.5939,4.605,4.6112,4.6191,4.6242,4.6288,4.6269,4.5605,4.5682,4.6248,4.5582,4.5695,4.6293,4.615,4.6014,4.5899,4.5822,4.5723,4.5594,0.0,0.0,0.0,0.0,0.0,0.0,0.0,0.0,0.0,0.0,0.0,1.8596,1.9157,1.8528,0.0,0.0,0.0,0.0,0.0,0.0,0.0,0.0,0.0,1.9537,2.0494,2.0509,2.1148,2.2403,2.2403,2.271,2.3282,2.3538,2.3994,2.4639,2.5317,2.5486,0.0,0.0,0.0,0.0,2.5597,0.0,0.0,0.0,0.0,0.0,2.5597,2.6312,0.0,2.7333,2.8229,2.9192,0.0,0.0,0.0,0.0,3.0172,3.0851,3.1593,3.18,3.18,3.18,3.18,3.18,3.18,3.1874,3.2037,3.23,3.27,3.3499,3.5188,3.6071,3.6975,3.8326,3.8859,0.0,0.0,0.0,0.0,4.2807,4.3895,4.4515,0.0,0.0,4.5805,4.5807,4.5807,4.5807,4.5807,4.5452,4.5258,4.5258,4.5258,4.5432,4.5807,4.6271,4.6319,4.6002,4.5671,4.5549,4.5599,4.5252,4.5117,4.5078,4.4607,4.4664,4.5092,4.5029,4.5231,4.5648,4.5896,4.5954,4.5783,4.5293,4.5332,4.5537,0.0,0.0,0.0,0.0,0.0,0.0,0.0,0.0,0.0,0.0,0.0,0.0,0.0,0.0,0.0,0.0,0.0,0.0,0.0,0.0,0.0,0.0,1.9566,1.9798,2.0973,2.1003,2.1605,2.2888,2.2801,2.2801,2.2888,2.2978,2.3501,2.4426,2.5146,2.5301,0.0,0.0,0.0,0.0,2.5597,0.0,0.0,0.0,0.0,0.0,0.0,0.0,0.0,2.7365,2.7577,2.7646,2.7918,0.0,0.0,0.0,0.0,0.0,3.1558,3.1818,3.1837,3.1818,3.18,3.1818,3.1837,3.1856,3.2001,3.2369,0.0,3.3511,3.483,3.5979,0.0,3.7931,0.0,0.0,4.0574,4.0568,4.1244,4.3322,4.3585,0.0,4.5305,4.565,4.5749,4.5633,4.5633,4.5555,4.5439,4.4775,4.44,4.44,4.44,4.4736,4.542,4.5557,4.5692,4.5808,4.5001,4.4643,4.4689,4.4004,4.3709,4.3689,0.0,0.0,4.3756,4.4358,4.4604,4.4685,4.5279,4.5458,4.5302,4.4421,4.4586,4.5114,0.0,0.0,0.0,0.0,0.0,0.0,0.0,0.0,0.0,0.0,0.0,0.0,0.0,0.0,0.0,0.0,0.0,0.0,0.0,0.0,0.0,2.0103,2.0001,2.0277,2.0973,2.1003,2.1605,2.2888,2.2388,2.2388,2.2925,2.3319,2.3964,2.4803,2.4958,2.5188,2.5505,2.5578,0.0,0.0,2.5597,0.0,0.0,0.0,0.0,0.0,0.0,0.0,0.0,2.6814,2.7411,2.8037,2.7692,0.0,0.0,0.0,0.0,0.0,3.1403,3.1911,3.2001,3.1838,3.18,3.1838,3.2018,3.2144,3.2386,0.0,0.0,0.0,0.0,3.6573,3.7201,0.0,0.0,4.0897,0.0,0.0,4.3321,4.2977,0.0,4.495,4.3798,4.4974,4.551,4.4833,4.4775,4.4465,4.373,4.3576,4.3498,4.3498,4.3498,4.3556,4.3672,4.4477,4.491,4.4966,4.4175,4.3813,4.3887,4.3768,4.3708,4.3667,0.0,4.3014,4.3658,4.3045,4.3192,4.3773,4.3782,4.3713,4.3569,4.3362,4.3374,4.3451,0.0,0.0,0.0,0.0,0.0,0.0,0.0,0.0,0.0,0.0,0.0,0.0,0.0,0.0,0.0,0.0,0.0,0.0,0.0,0.0,1.9384,1.9706,2.0272,2.0712,2.0988,2.1351,2.2004,2.2888,2.262,2.2635,2.2925,2.337,2.3794,2.4214,2.4704,2.5017,2.5243,2.5486,2.5597,0.0,0.0,0.0,0.0,0.0,0.0,0.0,0.0,0.0,0.0,0.0,2.7143,2.7137,2.7863,0.0,0.0,0.0,0.0,0.0,3.1386,3.1873,3.1965,3.2091,3.2214,3.2318,3.2403,3.2553,3.2811,3.3214,0.0,0.0,0.0,0.0,3.7413,3.9559,0.0,4.1158,4.2211,4.2573,4.2954,0.0,0.0,4.4501,4.4638,4.5348,4.5652,4.5278,4.4852,4.442,4.402,4.3111,4.2609,4.2609,4.2183,4.2188,4.2651,4.2639,4.3132,4.4082,4.3277,4.2923,4.2984,4.2514,4.2296,4.2275,0.0,4.1914,4.2304,4.2336,4.252,4.2827,4.3153,4.3221,4.3138,4.3118,4.2797,4.247,0.0,0.0,0.0,0.0,0.0,0.0,0.0,0.0,0.0,0.0,0.0,0.0,0.0,0.0,0.0,0.0,0.0,0.0,0.0,1.8472,1.8966,1.9405,2.0485,2.1116,2.122,2.1873,2.2432,2.2888,2.2888,2.2888,2.2925,2.3275,2.3566,2.3788,2.4461,2.4879,2.5091,2.5451,2.5597,0.0,0.0,0.0,0.0,0.0,0.0,0.0,0.0,0.0,0.0,0.0,0.0,0.0,0.0,0.0,0.0,2.8733,2.9368,2.9799,3.1162,3.1735,3.1984,3.23,3.2503,3.2669,3.2814,3.2968,3.3148,3.339,0.0,0.0,0.0,3.6909,0.0,4.0064,4.0847,4.1491,4.2376,4.2374,4.2772,4.413,4.3709,4.38,4.5084,4.5394,4.5355,4.4936,4.4523,4.411,4.373,4.2447,4.1725,4.1725,4.1141,4.1135,4.1812,4.122,4.1703,4.3202,4.2402,4.205,4.2063,4.1394,4.1098,4.1097,4.1091,4.1085,4.1113,4.1736,4.1914,4.1828,4.2382,4.2565,4.2489,4.2489,4.2066,4.1577,0.0,0.0,0.0,0.0,0.0,0.0,0.0,0.0,0.0,0.0,0.0,0.0,0.0,0.0,0.0,0.0,0.0,0.0,0.0,1.9193,1.9519,1.9493,2.0645,2.1482,2.1917,2.2519,2.2859,2.2888,2.2888,2.2888,2.2888,2.2933,2.3407,2.4261,2.4323,2.4791,2.5559,2.5597,2.5597,2.5597,2.5597,0.0,0.0,0.0,0.0,0.0,0.0,0.0,0.0,0.0,0.0,0.0,0.0,0.0,2.669,2.8081,2.8972,2.9696,3.0541,3.1516,3.2266,3.2301,3.2369,3.2569,3.3124,3.3276,3.3375,3.3788,0.0,0.0,0.0,3.7912,3.9141,3.9773,4.1225,4.2475,4.3068,0.0,4.4363,4.4554,4.3813,4.3356,4.3479,4.4214,4.402,4.2396,4.2976,4.2705,4.1164,4.0947,4.0898,4.0898,4.0881,4.0917,4.0983,4.0982,4.1455,4.2371,4.1562,4.1185,4.1197,4.1138,4.1095,4.1109,4.1109,4.1068,4.1019,4.1071,4.0978,4.0809,4.0855,4.0808,4.0689,4.0689,4.065,4.0588,0.0,0.0,0.0,0.0,0.0,0.0,0.0,0.0,0.0,0.0,0.0,0.0,0.0,0.0,0.0,0.0,0.0,0.0,0.0,1.8826,1.9284,1.9665,2.0685,2.1524,2.2107,2.2622,2.2888,2.2888,2.2888,2.2888,2.2888,2.2888,2.3253,2.3888,2.4177,2.4614,2.5169,2.5486,2.5597,2.5597,2.5597,0.0,0.0,0.0,0.0,0.0,0.0,0.0,0.0,0.0,2.5988,2.5775,2.6774,2.6769,2.6656,2.8013,2.892,2.9679,3.0578,3.1568,3.242,3.2669,3.2862,3.3047,3.3412,3.411,3.456,3.4172,3.4766,0.0,0.0,0.0,3.9602,4.0351,4.1277,4.2172,4.2956,4.3465,4.3768,4.3782,4.3498,4.3305,4.3305,4.3595,4.3518,4.286,4.2647,4.2278,4.1645,4.1131,4.085,4.085,4.0887,4.0918,4.095,4.0987,4.1191,4.1559,4.1242,4.1099,4.1093,4.1093,4.1091,4.1108,4.1061,4.0725,4.0175,4.0051,3.9644,3.9088,3.9039,3.8989,3.9008,3.9554,3.9621,3.9515,0.0,0.0,0.0,0.0,0.0,0.0,0.0,0.0,0.0,0.0,0.0,0.0,0.0,0.0,0.0,0.0,0.0,0.0,1.8456,1.8705,1.9125,1.9776,2.0595,2.1305,2.1931,2.2578,2.2888,2.2888,2.2888,2.2888,2.2888,2.2888,2.3142,2.3616,2.4094,2.4533,2.4922,2.5394,2.5597,2.5597,2.5597,2.5597,0.0,0.0,0.0,0.0,0.0,0.0,0.0,0.0,2.6037,2.5772,2.6732,2.6748,2.6655,2.7912,2.8903,2.9798,3.0765,3.172,3.257,3.2988,3.325,3.3455,3.3657,3.4368,3.4921,3.4649,3.5491,3.6539,3.7429,0.0,0.0,0.0,4.1179,4.1839,4.2587,4.2797,4.2885,4.2899,4.2667,4.2512,4.2512,4.2744,4.2783,4.2522,4.2258,4.199,4.1737,4.1224,4.0931,4.0931,4.0957,4.0985,4.1035,4.1035,4.105,4.1109,4.0821,4.084,4.109,4.0816,4.0673,4.0643,4.0312,3.9805,3.9175,3.9051,3.8626,3.8054,3.8012,3.8007,3.8058,3.8581,3.8631,3.8471,0.0,0.0,0.0,0.0,0.0,0.0,0.0,0.0,0.0,0.0,0.0,0.0,0.0,0.0,0.0,0.0,0.0,0.0,1.9045,1.9008,1.9246,1.9773,2.0316,2.0846,2.1379,2.2379,2.2888,2.2888,2.2888,2.2888,2.2888,2.2888,2.3142,2.3595,2.4078,2.4513,2.4922,2.5394,2.5597,2.5597,2.5597,2.5597,2.5597,0.0,0.0,0.0,0.0,0.0,0.0,0.0,2.5597,2.5654,2.5917,2.6189,2.6621,2.7691,2.8869,3.0032,3.1031,3.1955,3.2719,3.3169,3.3455,3.3675,3.3842,3.3913,3.4218,3.5286,3.6792,3.821,3.9296,3.9495,0.0,4.0119,4.0928,4.1601,4.194,4.1994,4.1989,4.1983,4.1293,4.0797,4.0797,4.1512,4.1651,4.0861,4.1604,4.1747,4.094,4.0963,4.0992,4.0992,4.1074,4.1092,4.1092,4.1099,4.109,4.107,4.021,4.0249,4.1051,4.0171,3.9741,3.9641,3.8778,3.8284,3.8088,3.8088,3.8048,3.7988,3.7988,3.7969,3.7947,3.767,3.7591,3.7509,0.0,0.0,0.0,0.0,0.0,0.0,0.0,0.0,0.0,0.0,0.0,0.0,0.0,0.0,0.0,0.0,0.0,0.0,1.9572,1.9572,1.9635,1.9798,2.0686,2.1254,2.1393,2.2379,2.2888,2.2888,2.2888,2.2888,2.2888,2.2888,2.2978,2.312,2.361,2.3873,2.4027,2.4799,2.5111,2.513,2.5467,2.5597,2.5597,0.0,0.0,0.0,0.0,0.0,0.0,0.0,0.0,0.0,2.5917,2.6572,2.7326,2.7843,2.9231,3.0679,3.1124,3.2147,0.0,3.322,0.0,0.0,0.0,3.4473,3.5286,0.0,3.6833,3.7553,3.8469,3.9386,0.0,4.0184,4.0603,4.0971,4.1073,4.1126,4.1171,4.1158,4.0951,4.0814,4.0872,4.1034,4.109,4.0887,4.1156,4.122,4.0984,4.103,4.1074,4.1074,4.1088,4.0805,4.02,4.0193,3.9897,3.9333,3.8974,3.9308,4.0151,3.9228,3.8795,3.8756,3.8352,3.7831,3.7204,3.6543,3.622,3.6176,3.6176,3.6056,3.5957,3.6488,3.6452,3.6186,0.0,0.0,0.0,0.0,0.0,0.0,0.0,0.0,0.0,0.0,1.9798,0.0,0.0,0.0,0.0,0.0,0.0,0.0,0.0,1.9798,1.9798,1.9798,2.0608,2.1286,2.1694,2.231,2.2706,2.2888,2.2888,2.2888,2.2888,2.2888,2.2888,2.291,2.3392,2.3595,2.3659,2.4542,2.4902,2.4942,2.5413,2.5597,2.5597,0.0,0.0,0.0,0.0,0.0,0.0,0.0,0.0,0.0,2.5787,2.6432,2.7293,2.8148,2.9437,3.0794,3.1767,3.2645,0.0,3.355,3.3743,3.3921,3.3998,0.0,0.0,0.0,3.7512,3.8301,3.894,3.9671,0.0,4.0375,4.0571,4.07,4.0739,4.0759,4.0815,4.0843,4.0848,4.0858,4.091,4.0851,4.0737,4.0489,4.0801,4.0851,4.0546,4.0896,4.1105,4.1105,4.1095,4.0678,3.9819,3.9767,3.9332,3.8512,3.8052,3.8137,3.8678,3.8095,3.7828,3.7774,3.7243,3.6742,3.6254,3.5661,3.5405,3.5357,3.5278,3.5136,3.5028,3.5362,3.5262,3.5032,0.0,0.0,0.0,0.0,0.0,0.0,0.0,0.0,0.0,0.0,1.9798,1.9798,0.0,0.0,0.0,0.0,0.0,0.0,0.0,1.9798,1.9798,1.9798,2.0308,2.1104,2.2184,2.2208,2.2417,2.2888,2.2888,2.2888,2.2888,2.2888,2.2888,2.2925,2.3348,2.3551,2.3659,2.4502,2.4863,2.4942,2.5413,2.5597,2.5597,2.5597,0.0,0.0,0.0,0.0,0.0,0.0,0.0,0.0,2.57,2.6091,2.6873,2.8605,2.9661,3.0698,3.2712,3.3262,3.3408,3.4018,3.4049,0.0,3.4185,3.5621,3.693,3.6983,0.0,3.9704,4.0032,4.0048,4.0131,4.0512,4.0526,4.0539,4.0771,4.0745,4.0721,4.0777,4.0858,4.0832,4.0705,4.0755,4.0491,3.9744,4.037,4.0468,3.9723,4.0503,4.0953,4.0875,4.093,4.0519,3.9561,3.9485,3.9026,3.8146,3.7273,3.6859,3.6859,3.6859,3.6828,3.6698,3.5797,3.5379,3.5398,3.5323,3.53,3.5251,3.5049,3.4962,3.4879,3.4371,3.4176,3.4123,0.0,0.0,0.0,0.0,0.0,0.0,0.0,0.0,0.0,0.0,0.0,0.0,0.0,0.0,0.0,0.0,0.0,0.0,0.0,1.9798,1.9798,1.9798,2.0308,2.1104,2.2184,2.2208,2.2417,2.2888,2.2888,2.2888,2.2888,2.2888,2.2888,2.2888,2.3,2.3275,2.3653,2.4204,2.4599,2.4942,2.5413,2.5597,2.5597,2.5597,2.5597,0.0,0.0,0.0,0.0,0.0,0.0,0.0,2.6536,2.711,2.7859,2.9639,3.0779,3.1681,3.2786,3.3394,0.0,3.3934,3.4049,3.4209,3.4461,3.5434,3.6428,3.6904,3.7609,3.8373,3.9113,3.8869,3.8798,3.9567,3.9155,3.9212,4.0616,4.0259,3.9854,3.9883,4.0478,4.039,3.9132,3.9634,3.9705,3.892,3.9014,3.9048,3.8864,3.9624,3.978,3.9157,3.9696,3.9246,3.77,3.7605,3.7137,3.627,3.5965,3.5825,3.5825,3.5825,3.5764,3.5619,3.5422,3.5323,3.5323,3.5315,3.5176,3.4978,3.4934,3.4695,3.4367,3.425,3.4068,3.3876,0.0,0.0,0.0,0.0,0.0,0.0,0.0,0.0,0.0,0.0,0.0,0.0,0.0,0.0,0.0,0.0,0.0,0.0,0.0,0.0,1.9798,1.9798,2.0308,2.0968,2.1803,2.2077,2.2417,2.2888,2.2888,2.2888,2.2888,2.2888,2.2888,2.2925,2.312,2.337,2.3638,2.4313,2.4699,2.4942,2.5413,2.5597,2.5597,2.5597,2.5597,2.5597,2.5597,0.0,0.0,0.0,0.0,0.0,0.0,0.0,2.7657,2.9644,3.0629,3.1398,3.2883,3.353,0.0,3.3998,0.0,3.4269,3.4539,3.5375,3.6216,3.6632,3.7314,3.8116,3.9011,3.8623,3.8292,3.8749,3.8471,3.8526,3.9472,3.9238,3.8995,3.9065,3.9465,3.9427,3.8631,3.8965,3.8883,3.803,3.8358,3.8415,3.8006,3.8711,3.8935,3.8526,3.885,3.8383,3.7072,3.6943,3.6474,3.5592,3.5462,3.5392,3.5398,3.5392,3.5371,3.5308,3.5304,3.5239,3.5119,3.5122,3.4944,3.4686,3.4603,3.4416,3.4185,3.4061,3.3921,3.3807,0.0,0.0,0.0,0.0,0.0,0.0,0.0,0.0,0.0,0.0,0.0,0.0,0.0,0.0,0.0,0.0,0.0,0.0,0.0,0.0,0.0,1.9798,2.0308,2.0845,2.1393,2.1921,2.2417,2.2888,2.2888,2.2946,2.3084,2.2946,2.2933,2.3045,2.3348,2.3595,2.3858,2.4522,2.4863,2.5056,2.5432,2.5597,2.5597,2.5597,2.5597,2.5613,2.5726,2.5775,2.5807,2.5921,0.0,0.0,0.0,0.0,2.7504,2.9655,3.0395,3.0983,3.2987,3.3587,3.3739,3.4111,3.4197,0.0,3.4539,3.5262,3.5989,3.6339,3.7145,3.8033,3.8819,3.8299,3.7796,3.7961,3.7864,3.7879,3.8224,3.8164,3.8123,3.8241,3.8402,3.8416,3.8178,3.829,3.8011,3.7145,3.7731,3.7827,3.7099,3.7769,3.811,3.7939,3.8008,3.7612,3.6744,3.6613,3.6183,3.5462,3.5343,3.5281,3.5237,3.5231,3.5227,3.5227,3.5234,3.5079,3.4832,3.4832,3.4674,3.4431,3.4262,3.4173,3.4099,3.3881,3.3807,3.3775,0.0,0.0,0.0,0.0,0.0,0.0,0.0,0.0,0.0,0.0,1.9798,1.9798,0.0,0.0,0.0,0.0,0.0,0.0,1.9798,0.0,0.0,1.9798,2.0308,2.0845,2.1393,2.1921,2.2417,2.2888,2.2888,2.32,2.3746,2.3171,2.312,2.3501,2.3142,2.3638,2.4704,2.4492,2.4811,2.5505,2.5578,2.5597,2.5597,2.5597,2.5597,2.5678,2.6328,2.6555,2.6636,2.7235,2.749,0.0,0.0,0.0,2.9088,3.1115,3.1659,3.1843,3.2952,0.0,3.3908,0.0,3.4197,3.4269,0.0,0.0,3.5324,0.0,3.6738,3.7005,3.7115,3.6484,3.6192,3.6955,3.6497,3.6541,3.8003,3.7661,3.7272,3.7272,3.8061,3.8003,3.6494,3.7035,3.7108,3.6246,3.6285,3.6272,3.6099,3.6849,3.6911,3.6082,3.6667,3.6582,3.5711,3.5571,3.5448,3.5326,3.5304,3.5176,3.4955,3.4945,3.4945,3.4945,3.4945,3.4803,3.4542,3.4551,3.4439,3.4245,3.4209,3.4061,3.3842,3.3802,3.3807,3.3748,0.0,0.0,0.0,0.0,0.0,0.0,0.0,0.0,0.0,0.0,0.0,1.9798,0.0,0.0,0.0,1.9798,1.9798,1.9798,1.9798,1.9798,1.9927,2.0232,2.0771,2.131,2.1851,2.2347,2.2684,2.2888,2.2888,2.3055,2.3331,2.3418,2.3774,2.432,2.3997,2.4317,2.5046,2.4755,2.5009,2.5597,2.5597,2.5862,2.6259,2.6234,2.6497,2.6929,2.7174,2.7267,2.7316,2.7608,2.7745,2.7936,2.8846,0.0,0.0,0.0,3.1684,3.1987,3.3125,3.3652,3.3947,0.0,3.4197,3.4305,3.468,3.484,3.5105,3.5798,3.6034,3.6273,3.6768,3.6205,3.5789,3.6168,3.5936,3.5964,3.6746,3.6573,3.6404,3.647,3.6875,3.6848,3.6064,3.6315,3.6352,3.5962,3.5875,3.5824,3.5794,3.6051,3.6013,3.56,3.5836,3.5783,3.5397,3.5173,3.4987,3.486,3.4851,3.4784,3.4674,3.4674,3.4674,3.4674,3.4674,3.4548,3.4325,3.4325,3.4191,3.3972,3.3972,3.3895,3.3807,3.3807,3.368,3.3494,0.0,0.0,0.0,0.0,0.0,0.0,0.0,0.0,0.0,0.0,0.0,0.0,0.0,0.0,0.0,0.0,1.9798,1.9798,1.9798,1.9798,1.9978,2.0384,2.1028,2.1599,2.1983,2.2578,2.2888,2.2888,2.2888,2.3062,2.338,2.392,2.4573,2.5353,2.5008,2.5152,2.5623,2.5502,2.5731,2.615,2.6169,2.6539,2.7088,2.7062,2.7423,2.796,2.8013,2.8037,2.8053,2.8211,2.8276,2.8384,2.9026,2.9431,0.0,0.0,0.0,3.199,0.0,0.0,3.3624,3.408,3.4197,3.4316,0.0,0.0,3.4999,0.0,3.5522,3.5789,3.6476,3.6099,3.5704,3.5704,3.5692,3.5722,3.5772,3.5799,3.5864,3.5957,3.5993,3.5987,3.5974,3.5938,3.5883,3.5846,3.5753,3.5685,3.5654,3.5546,3.5481,3.5451,3.5299,3.5203,3.5195,3.4925,3.4686,3.4508,3.4508,3.4475,3.442,3.442,3.4386,3.433,3.4386,3.4302,3.4099,3.4099,3.3985,3.3807,3.3807,3.3807,3.3793,3.3694,3.3494,3.3229,0.0,0.0,0.0,0.0,0.0,0.0,0.0,0.0,0.0,0.0,0.0,0.0,1.9798,1.9798,1.9798,1.9798,1.9798,1.9798,1.9798,1.9798,1.9798,1.985,2.0832,0.0,2.1441,2.2402,2.2888,2.2888,2.2888,2.3511,2.4708,2.4805,2.5502,2.6686,2.5892,2.6024,2.6818,2.6931,2.7226,2.7591,2.7713,2.7805,2.7858,2.799,2.8043,2.8158,2.8739,2.8942,2.9018,2.9599,2.9832,2.9903,3.0074,3.062,3.1253,0.0,0.0,0.0,0.0,3.3054,0.0,3.3907,3.4197,3.4269,0.0,0.0,3.4988,3.5258,3.547,3.5631,3.5737,3.5723,3.5704,3.5704,3.5694,3.5693,3.5702,3.5814,3.5908,3.5894,3.5956,3.5973,3.5902,3.5892,3.5843,3.571,3.5698,3.563,3.5521,3.551,3.5438,3.5316,3.506,3.4916,3.4917,3.4645,3.45,3.4508,3.4508,3.4405,3.4221,3.4221,3.4086,3.3855,3.4111,3.4074,3.3815,3.3815,3.3802,3.3807,3.3807,3.3807,3.3748,3.3361,3.3229,3.3108,0.0,0.0,0.0,0.0,0.0,0.0,0.0,0.0,0.0,0.0,0.0,0.0,0.0,1.9798,1.9798,1.9798,1.9798,1.9798,1.9798,1.9798,1.9952,2.0308,2.1004,2.1575,2.1898,2.2555,2.2888,2.2888,2.2888,2.312,2.3583,2.4051,2.4882,2.6046,2.618,2.6563,2.7093,2.7107,2.7337,2.7705,2.7847,2.8204,2.869,2.8731,2.9087,2.9593,2.973,2.9765,2.9798,3.0016,3.0119,3.0167,3.0443,3.0945,3.1585,3.2283,3.1749,0.0,0.0,0.0,0.0,3.2453,3.3464,3.4378,3.4044,3.4545,3.5165,3.5442,3.5547,3.5612,3.5679,3.5704,3.5692,3.5698,3.5696,3.5733,3.5821,3.5869,3.5912,3.5957,3.594,3.5925,3.5894,3.5788,3.5688,3.565,3.5596,3.5534,3.5438,3.5411,3.5265,3.5051,3.4944,3.4763,3.4446,3.4356,3.422,3.4049,3.4049,3.4018,3.3947,3.3947,3.3881,3.382,3.3895,3.3881,3.3807,3.3807,3.3807,3.3793,3.355,3.3451,3.3361,3.3016,3.2682,3.2384,0.0,0.0,0.0,0.0,0.0,0.0,0.0,0.0,0.0,1.9798,0.0,0.0,0.0,0.0,1.9798,1.9798,1.9798,1.9798,1.9798,1.9798,2.0029,2.0585,2.1115,2.1647,2.2184,2.2661,2.2888,2.2888,2.2888,2.3026,2.3244,2.3688,2.4493,2.5608,2.6473,2.7238,2.7852,2.7993,2.8185,2.8454,2.862,2.898,2.9468,2.951,2.9926,3.0401,3.0253,3.0316,3.0468,3.0426,3.0493,3.0658,3.0885,3.134,3.1863,3.2351,3.1546,0.0,3.1495,0.0,0.0,0.0,3.2593,3.366,3.3639,0.0,3.4868,3.5476,3.562,3.5643,3.5684,3.5704,3.5702,3.57,3.5722,3.5765,3.5872,3.5911,3.5957,3.5991,3.5939,3.5872,3.584,3.5693,3.559,3.557,3.5509,3.5446,3.5372,3.4983,3.4488,3.3875,3.3863,3.3666,3.3259,3.3259,3.3173,3.2981,3.2981,3.3146,3.3403,3.3376,3.351,3.3766,3.3625,3.3652,3.3807,3.378,3.3694,3.3564,3.3335,3.3124,3.2921,3.2535,3.2196,3.1896,0.0,0.0,0.0,0.0,0.0,0.0,0.0,0.0,1.9798,1.9798,0.0,0.0,0.0,0.0,0.0,1.9798,1.9798,1.9798,1.9798,1.9798,2.0029,2.0585,2.1115,2.1647,2.2184,2.2661,2.2888,2.2888,2.2888,2.3229,2.3862,2.3885,2.4464,2.5555,2.6834,2.8023,2.9127,2.9665,2.9896,2.9918,3.0119,3.0205,3.0243,3.0375,3.0497,3.0555,3.0333,3.0593,3.1038,3.0885,3.1086,3.1416,3.1495,3.1844,3.2158,3.1793,3.11,0.0,0.0,0.0,0.0,0.0,0.0,0.0,3.3354,0.0,3.4071,3.5315,3.5648,3.5704,3.5704,3.569,3.5669,3.5666,3.5749,3.5817,3.5884,3.5957,3.6009,3.6005,3.5947,3.5843,3.5706,3.5611,3.5531,3.5449,3.5388,3.5295,3.5231,3.4236,3.3072,3.1838,3.1797,3.1672,3.1397,3.1397,3.1397,3.1403,3.1403,3.1806,3.2551,3.2491,3.2903,3.362,3.3229,3.3332,3.3711,3.3662,3.3429,3.3112,3.3057,3.2791,3.2399,3.1951,3.1789,3.1733,0.0,0.0,0.0,0.0,0.0,1.9798,1.9798,1.9798,1.9798,0.0,0.0,0.0,1.9798,1.9798,1.9798,1.9798,1.9798,1.9798,1.9798,1.9798,2.0029,2.0585,2.1115,2.1647,2.2184,2.2661,2.2888,2.2888,2.2888,2.2989,2.3171,2.3503,2.4274,2.5404,2.6676,2.7917,2.9065,2.9648,2.9896,2.9918,3.0119,3.0516,3.0991,3.092,3.1597,3.2487,3.1594,3.1754,3.2284,3.166,3.1528,3.1677,3.1985,3.141,3.0787,3.1489,3.035,2.9019,2.9809,0.0,0.0,0.0,0.0,0.0,0.0,0.0,3.4052,3.4562,3.5204,3.5704,3.5704,3.5219,3.4827,3.4831,3.5388,3.5847,3.5956,3.5995,3.6009,3.6005,3.5858,3.5745,3.5698,3.5021,3.4559,0.0,3.3941,3.3561,3.3504,3.2897,3.2311,3.1808,3.1614,3.147,3.1397,3.1397,3.139,3.1327,3.1327,3.1321,3.131,3.1833,3.2064,3.2049,3.2464,3.244,3.2058,3.2043,3.166,3.1123,3.141,3.1372,3.122,3.1378,3.1411,3.1351,0.0,0.0,0.0,0.0,0.0,1.9798,1.9798,1.9798,1.9798,0.0,0.0,0.0,2.0476,2.0501,2.0501,2.0501,2.0288,2.0189,2.0189,1.9936,2.0144,2.0894,2.1224,2.1742,2.2486,2.2752,2.2888,2.2888,2.2888,2.2888,2.2925,2.3696,2.4516,2.5382,2.6951,2.8158,2.9056,2.974,3.0033,3.0033,3.021,3.083,3.1639,3.1547,3.2408,3.3536,3.2494,3.2547,3.3029,3.2228,3.2074,3.2249,3.2471,3.1707,3.0767,3.1092,3.0011,2.8758,2.9004,2.9282,0.0,2.9074,0.0,0.0,3.1168,3.21,3.3088,0.0,3.4223,3.4621,3.4621,3.425,3.3969,3.3985,3.4428,3.4916,3.539,3.5776,3.6006,3.6001,3.5816,3.5698,3.5698,3.5093,3.4531,3.4133,3.3637,3.2969,3.2069,3.1666,3.1214,3.0639,3.0375,3.0215,3.0141,3.0039,2.9947,2.9881,2.9881,2.9953,3.0095,3.0519,3.0775,3.0906,3.1156,3.0828,3.0141,2.9979,2.9941,3.0068,3.0576,3.0646,3.0534,3.1062,3.1098,3.0898,0.0,0.0,1.963,1.9773,1.9861,1.9899,1.9899,1.9949,1.9987,0.0,2.0465,2.0968,2.1458,2.1493,2.1493,2.1493,2.1069,2.0806,2.0887,2.0394,2.0577,2.1645,2.1626,2.2042,2.3004,2.2931,2.2888,2.2888,2.2888,2.2976,2.3117,2.4246,2.5035,2.5613,2.7533,2.863,2.9081,2.9894,3.0253,3.0316,3.0422,3.1129,3.2083,3.2121,3.2975,3.4023,3.3082,3.3082,3.3442,3.2633,3.2588,3.29,3.29,3.2347,3.1528,3.0743,3.0047,2.9365,2.8603,2.8662,2.8943,2.8997,2.9269,0.0,3.0839,3.1237,3.1698,0.0,3.303,3.3068,3.2972,3.3009,3.3036,3.3009,3.3087,3.3491,3.4411,3.5226,3.5708,3.5697,3.5535,3.5422,3.539,3.514,3.463,3.3848,3.3608,3.2705,3.0819,3.0545,2.9987,2.8989,2.8718,2.8507,2.8368,2.812,2.7954,2.7897,2.7897,2.8237,2.8877,2.8908,2.9286,2.9908,2.9589,2.9024,2.8317,2.7979,2.8458,2.947,3.0144,3.0253,3.0116,3.0861,3.0838,3.0435,0.0,1.9591,1.963,1.9773,2.0188,2.0515,2.0515,2.0905,2.1154,2.1154,2.1282,2.1395,2.1481,2.1493,2.1493,2.1493,2.1393,2.1566,2.2044,2.1967,2.2391,2.3521,2.3045,2.3059,2.3679,2.3186,2.2888,2.2888,2.2888,2.3398,2.4358,2.4906,2.5765,2.6899,2.8311,2.905,2.928,3.0108,3.0617,3.0925,3.0902,3.1342,3.2039,3.2199,3.319,3.4367,3.3263,3.3344,3.3873,3.3054,3.2836,3.29,3.29,3.2347,3.1528,3.0743,3.0404,3.0191,2.9748,2.9708,2.9862,3.0224,2.9917,0.0,3.0198,3.0873,3.1525,0.0,3.2604,3.2894,3.2179,3.2103,3.1933,3.1236,3.1812,3.2635,3.3532,3.38,3.3886,3.3832,3.3741,3.3649,3.3543,3.2817,3.2184,3.179,3.0941,3.0208,2.9646,2.9566,2.9278,2.8694,2.8515,2.8316,2.8079,2.7968,2.7883,2.7826,2.7826,2.7721,2.7594,2.8169,2.837,2.8288,2.8848,2.8643,2.7928,2.812,2.8178,2.8235,2.9017,2.9402,2.9636,3.0372,3.033,2.9924,1.9565,1.9617,1.963,1.9773,2.0302,2.0691,2.0691,2.1169,2.1493,2.1493,2.1732,2.2008,2.2284,2.2598,2.2786,2.2786,2.2797,2.2918,2.3245,2.2991,2.3226,2.4061,2.3766,2.3857,2.4384,2.4041,2.3824,2.3754,2.4086,2.4336,2.4588,2.61,2.7084,2.766,2.9103,2.9902,3.0162,3.0402,3.074,3.1103,3.1064,3.1723,3.2745,3.286,3.3724,3.4783,3.3835,3.3491,3.3437,3.3043,3.29,3.29,3.29,3.244,3.1784,3.127,3.0903,3.0668,3.0486,3.0547,3.0626,3.0568,3.039,0.0,0.0,3.0464,3.0893,3.1067,3.1496,3.1579,3.0714,3.0944,3.0982,3.013,3.0815,3.1599,3.2031,3.2845,3.3371,3.3312,3.3245,3.3156,3.3005,3.2512,3.1924,3.1249,3.0105,2.9415,2.9304,2.9166,2.892,2.8502,2.8264,2.7992,2.7648,2.7489,2.7352,2.7257,2.7257,2.7164,2.6973,2.7332,2.7301,2.6971,2.7374,2.7197,2.6611,2.6784,2.6932,2.7165,2.8384,2.8929,2.9136,2.9802,2.9755,2.9325,1.9617,1.963,1.9719,1.9923,2.0465,2.0893,2.0993,2.1443,2.1807,2.1807,2.2311,2.2812,2.3267,2.3884,2.4263,2.4263,2.428,2.4327,2.4436,2.4038,2.404,2.4595,2.4492,2.4637,2.5052,2.4882,2.4813,2.4829,2.537,2.5476,2.5253,2.7354,2.8382,2.851,2.9902,3.0716,3.1004,3.0821,3.1004,3.1397,3.1397,3.215,3.3284,3.3389,3.4001,3.4735,3.4194,3.3582,3.3042,3.2979,3.2963,3.2945,3.2916,3.2655,3.2275,3.1894,3.1632,3.1424,3.1302,3.1441,3.1476,3.0913,3.0872,3.0833,0.0,0.0,0.0,3.0375,3.049,3.0289,0.0,0.0,0.0,0.0,0.0,0.0,0.0,3.1911,0.0,3.2803,3.274,3.2652,3.2512,3.2314,3.1817,3.0968,2.9858,2.9209,2.9137,2.892,2.862,2.8219,2.7936,2.7589,2.7243,2.699,2.6809,2.6691,2.6624,2.6573,2.6573,2.6487,2.6263,2.5962,2.5944,2.5707,2.5365,2.5416,2.5723,2.6322,2.783,2.8468,2.8576,2.9195,2.9127,2.8708,1.9759,1.9773,1.9936,2.0503,2.1056,2.1556,2.2046,2.2556,2.292,2.292,2.3491,2.3907,2.3972,2.4538,2.4908,2.4908,2.4896,2.5121,2.5672,2.5643,2.5871,2.6483,2.5904,2.5651,2.5716,2.51,2.509,2.5651,2.5727,2.6555,2.8036,2.8335,2.9075,3.0153,3.0694,3.0985,3.1123,3.1414,3.1897,3.2432,3.2432,3.2437,3.2492,3.3037,3.3309,3.3442,3.3611,3.3593,3.3473,3.3235,3.316,3.3129,3.2963,3.3057,3.3089,3.2293,3.2688,3.328,3.2804,3.2711,3.262,3.2198,3.1544,3.0851,3.024,0.0,3.0187,3.0358,0.0,3.0185,2.9447,0.0,0.0,0.0,0.0,0.0,2.9751,3.0487,3.1064,3.1008,3.093,3.0839,3.0718,3.0255,2.9906,2.9795,2.9315,2.8868,2.8516,2.8471,2.8166,2.753,2.7424,2.7227,2.6942,2.6809,2.6725,2.6691,2.6333,2.6175,2.6157,2.5742,2.5519,2.5481,2.5354,2.5278,2.523,2.5469,2.5618,2.5801,2.6978,2.7614,2.7886,2.8575,2.8503,2.8103,1.9718,2.0022,2.0402,2.0654,2.1393,2.2046,2.2268,2.3056,2.3607,2.3607,2.4211,2.4624,2.4624,2.5161,2.5632,2.5903,2.6252,2.6573,2.6797,2.6837,2.6826,2.6806,2.6784,2.6785,2.6785,2.689,2.7023,2.7181,2.7661,2.8059,2.8347,2.9216,2.9799,3.0185,3.0799,3.1201,3.1452,3.1621,3.1968,3.2435,3.2549,3.2681,3.2862,3.328,3.343,3.3444,3.3545,3.3605,3.3587,3.3518,3.3447,3.3426,3.3472,3.3625,3.3632,3.2719,3.3219,3.3877,3.3164,3.3418,3.3639,3.2571,3.2116,3.1608,3.0373,3.0159,3.0247,3.0369,0.0,0.0,0.0,0.0,0.0,0.0,2.952,3.0098,0.0,0.0,2.9698,0.0,0.0,0.0,3.029,2.9969,2.9725,2.9617,2.9293,2.8909,2.8433,2.8329,2.7988,2.7363,2.7289,2.7101,2.6792,2.6742,2.6556,2.6297,2.6122,2.5872,2.558,2.5373,2.516,2.4942,2.4867,2.4668,2.4395,2.4516,2.4346,2.4131,2.5,2.613,2.7303,2.7524,2.7488,2.7342,2.0007,2.0507,2.0972,2.1107,2.1779,2.2421,2.2718,2.3486,2.4082,2.4244,2.4832,2.5245,2.5245,2.5906,2.6481,2.6831,2.7384,2.7715,2.7715,2.759,2.7429,2.7269,2.7403,2.76,2.7824,2.8255,2.8521,2.8572,2.9172,2.9243,2.8854,2.9927,3.0331,3.0174,3.0927,3.1414,3.1714,3.1986,3.2334,3.2685,3.2887,3.3204,3.3602,3.3716,3.3815,3.3881,3.3935,3.3974,3.3955,3.3944,3.3907,3.388,3.3982,3.4146,3.4146,3.3438,3.3844,3.4328,3.342,3.3804,3.4018,3.2401,3.2142,3.1901,3.0433,3.0194,3.0324,3.0417,3.0505,0.0,0.0,0.0,3.0362,2.9561,0.0,2.9632,0.0,2.9256,0.0,0.0,0.0,0.0,0.0,2.9813,2.9532,2.9561,2.9101,2.8652,2.8259,2.8143,2.7808,2.7162,2.7084,2.694,2.6691,2.6573,2.6332,2.6013,2.5742,2.5408,2.5028,2.4871,2.4668,2.4359,2.4214,2.3921,2.3545,2.3399,2.3076,2.2729,2.3236,2.4429,2.5953,2.6218,2.6333,2.6382,2.0827,2.1247,2.165,2.2145,2.2293,2.2666,2.377,2.3987,2.4231,2.4884,2.5508,2.5866,2.5866,2.6837,2.7464,2.7464,2.7947,2.8264,2.8264,2.7775,2.779,2.8415,2.7839,2.7849,2.8638,2.8559,2.8857,2.9575,2.9591,2.9892,3.0423,3.0472,3.0489,3.0518,3.1319,3.1677,3.1769,3.2749,3.3309,3.3591,3.3775,3.4148,3.4528,3.4284,3.4348,3.4594,3.4803,3.487,3.4832,3.4632,3.4574,3.4534,3.4363,3.4497,3.4746,3.4585,3.4802,3.4865,3.3937,3.3807,3.3484,3.1682,3.139,3.128,3.0321,3.0194,3.0336,3.0465,3.0496,3.0535,3.0633,3.0678,3.0428,2.963,2.9494,0.0,0.0,0.0,0.0,0.0,0.0,0.0,0.0,2.9269,2.8822,2.9439,2.847,2.7839,2.7816,2.7826,2.747,2.6741,2.6708,2.6708,2.6691,2.6244,2.6013,2.5995,2.5082,2.4643,2.4603,2.4084,2.3839,2.3782,2.3201,2.2934,2.2889,2.2374,2.2151,2.2128,2.2156,2.2597,2.3374,2.4603,2.5069,2.5115,2.2654,2.2897,2.2875,2.2372,2.255,2.3043,2.3811,2.4657,2.5412,2.5984,2.6572,2.7108,2.7449,2.7799,2.8167,2.8519,2.8709,2.8842,2.8842,2.8662,2.8543,2.8487,2.8606,2.8826,2.9157,2.955,2.9875,3.0113,3.0177,3.0305,3.0506,3.0506,3.0654,3.0905,3.1452,3.1932,3.2332,3.2939,3.3353,3.3629,3.3955,3.4291,3.4604,3.4645,3.4725,3.4813,3.4925,3.4971,3.4952,3.4949,3.4895,3.4878,3.4939,3.4973,3.4895,3.4413,3.4764,3.5096,3.4216,3.4088,3.3923,3.2635,3.2004,3.1458,3.0521,3.0377,3.0455,3.0554,3.0597,3.0661,3.0698,3.0266,2.9822,2.9548,2.9042,2.8592,0.0,2.8465,2.8535,2.826,2.9571,0.0,0.0,0.0,2.8277,2.7566,2.7497,2.7259,2.6778,2.7165,2.7195,2.6708,2.6401,2.6244,2.6244,2.5726,2.5297,2.495,2.4612,2.4282,2.3921,2.3421,2.3201,2.3157,2.2535,2.2244,2.2221,2.195,2.1653,2.1369,2.1369,2.1271,2.1432,2.345,2.4234,2.4286,2.3483,2.3648,2.3595,2.3272,2.3466,2.3805,2.4159,2.5292,2.6302,2.6856,2.7419,2.7923,2.8264,2.8472,2.8709,2.9074,2.9273,2.9364,2.9364,2.925,2.9159,2.9097,2.925,2.955,2.9983,3.0262,3.0485,3.0654,3.0551,3.0506,3.0489,3.0654,3.0861,3.1123,3.1677,3.2179,3.2629,3.3124,3.3522,3.3858,3.4371,3.4666,3.486,3.5064,3.5089,3.5022,3.5165,3.5205,3.522,3.528,3.529,3.5266,3.54,3.5393,3.5251,3.4822,3.5095,3.5282,3.4076,3.3871,3.3692,3.2357,3.1706,3.1247,3.0615,3.0524,3.0582,3.0631,3.0684,3.0704,3.0639,3.0256,2.9959,2.9932,2.9256,2.8592,0.0,2.8195,2.7974,2.7409,2.864,2.9272,0.0,2.7982,2.7283,2.6465,2.6679,2.6632,2.6189,2.683,2.6972,2.647,2.6156,2.5906,2.5707,2.5182,2.4736,2.4389,2.4038,2.3672,2.3253,2.2762,2.2535,2.2452,2.1846,2.1585,2.1561,2.1269,2.0991,2.0734,2.0734,2.0485,2.0437,2.2403,2.3393,2.3762,2.3389,2.358,2.3887,2.4741,2.4902,2.4878,2.4878,2.5893,2.6861,2.75,2.8021,2.8352,2.8376,2.8826,2.9159,2.9159,2.9621,2.9924,2.9924,2.9598,2.9649,3.0253,2.9777,3.0026,3.1123,3.0695,3.0675,3.1142,3.074,3.0551,3.0572,3.0945,3.1142,3.1184,3.1967,3.2453,3.2677,3.335,3.3858,3.4292,3.4942,3.5239,3.5326,3.5527,3.5457,3.5265,3.5508,3.5618,3.5629,3.5676,3.5689,3.5702,3.5702,3.5758,3.5791,3.5752,3.5736,3.536,3.3586,3.3162,3.2788,3.0937,3.0581,3.0689,3.0606,3.0648,3.0681,3.0683,3.0739,3.072,3.0546,3.0638,3.0703,3.0636,2.9967,2.9152,2.832,2.8149,2.807,2.7983,2.7778,2.7616,2.7546,2.6544,2.594,2.6056,2.5947,2.5943,2.6016,2.67,2.674,2.6015,2.5959,2.567,2.5163,2.4612,2.4328,2.4307,2.3326,2.2777,2.2626,2.2105,2.1785,2.1639,2.1161,2.0944,2.0919,2.0397,2.0182,2.0182,2.0156,2.0156,2.0309,2.1447,2.26,2.3569,2.41,2.4759,2.512,2.4805,2.4785,2.5116,2.6011,2.6768,2.7618,2.856,2.8803,2.9051,2.9448,2.9621,2.9687,2.9687,3.0006,3.0246,3.0414,3.0543,3.0791,3.1152,3.1021,3.1135,3.1547,3.1414,3.1432,3.1547,3.1433,3.1395,3.1395,3.149,3.1695,3.202,3.235,3.2825,3.3379,3.3852,3.4304,3.4756,3.5117,3.5278,3.5323,3.5576,3.565,3.5642,3.5659,3.5721,3.5755,3.5778,3.5772,3.5768,3.5768,3.5797,3.5675,3.5029,3.4878,3.4671,3.3558,3.2807,3.2206,3.1716,3.1094,3.0601,3.0547,3.0547,3.0543,3.0553,3.0567,3.0557,3.0505,3.0093,2.9735,2.9663,2.9037,2.8454,2.824,2.7505,2.6777,2.6173,2.574,2.5779,2.6499,2.6064,2.5281,2.413,2.4382,2.4669,2.4823,2.5163,2.5506,2.5835,2.5182,2.4736,2.4612,2.3721,2.3238,2.3128,2.2475,2.2091,2.1922,2.1452,2.1199,2.1151,2.0535,2.0258,2.0233,1.9991,1.9901,1.9862,1.9448,1.9483,1.9911,2.1272,2.2385,2.3228,2.3945,2.4752,2.5272,2.5114,2.5649,2.63,2.6858,2.7658,2.8424,2.9028,2.9416,2.975,3.0044,3.0215,3.03,3.03,3.0518,3.0707,3.0808,3.1108,3.1342,3.1497,3.1551,3.1715,3.1967,3.1804,3.1804,3.1967,3.1423,3.1195,3.1178,3.1081,3.1373,3.1958,3.234,3.2962,3.378,3.43,3.4737,3.509,3.538,3.5494,0.0,3.5694,3.5781,3.5834,3.5775,3.5766,3.5791,3.5791,3.5827,3.5845,3.5845,3.585,3.5673,3.4793,3.4549,3.4294,3.3063,3.2341,3.1861,3.1482,3.0999,3.0594,3.0554,3.0544,3.0516,3.0396,3.0364,3.0327,3.0182,2.9924,2.978,2.983,2.9476,2.9043,2.8605,2.7971,2.7096,2.5844,2.5378,2.5178,2.5269,2.5119,2.4476,2.3224,2.3731,2.4084,2.4047,2.4444,2.4848,2.5186,2.4419,2.3924,2.3743,2.2831,2.2369,2.2337,2.1775,2.1428,2.1293,2.0795,2.0535,2.0446,1.9837,1.9565,1.9539,1.92,1.9056,1.9054,1.8946,1.9202,1.9731,2.0715,2.1565,2.223,2.3822,2.4502,2.5236,2.5817,2.7108,2.7989,2.7812,2.8626,2.9241,2.9309,2.993,3.0372,3.0372,3.0642,3.0808,3.0845,3.1044,3.1184,3.1223,3.1514,3.17,3.1718,3.1879,3.2109,3.2453,3.2127,3.2109,3.242,3.1289,3.0734,3.0682,3.0441,3.0721,3.1459,3.2037,3.2904,3.3956,3.467,3.512,3.5386,3.5626,3.5748,3.5802,3.579,3.5839,3.5888,3.582,3.5814,3.5804,3.5791,3.5833,3.589,3.589,3.5819,3.5557,3.4662,3.4283,3.3827,3.2247,3.1757,3.1514,3.0733,3.0517,3.0494,3.0494,3.0488,3.0419,3.017,3.0112,3.0037,2.9739,2.9892,3.0119,3.0306,3.0344,2.9968,2.895,2.8707,2.8013,2.6323,2.5772,0.0,2.4236,2.4113,2.3735,2.2952,2.351,2.3819,2.3604,2.4139,2.4422,2.4394,2.3755,2.3231,2.2889,2.203,2.1653,2.1752,2.1151,2.0795,2.066,2.0118,1.9798,1.9643,1.9107,1.8881,1.8854,1.8321,1.8084,1.8093,1.851,1.9004,1.9489,1.987,2.0344,2.0869,2.5682,2.6443,2.708,2.7597,2.8551,2.9398,2.9734,2.9875,3.0069,3.0444,3.0625,3.0707,3.0707,3.0747,3.0865,3.1044,3.1319,3.164,3.1915,3.2417,3.2781,3.2908,3.3142,3.3309,3.3368,3.3291,3.3187,3.3034,3.2379,3.1938,3.1727,3.1181,3.103,3.1184,3.1624,3.2633,3.404,3.4864,3.5427,3.5712,3.5759,3.5827,3.5889,3.5813,3.584,3.5886,3.5816,3.585,3.5871,3.5812,3.5818,3.5812,3.5812,3.5329,3.4567,3.3707,3.2934,3.2132,3.1125,3.0711,3.0539,3.032,3.0094,2.9943,2.9935,2.9897,2.9842,2.9733,2.9706,2.9681,2.9626,2.9475,2.9403,2.9497,2.9461,2.9028,2.7858,2.7793,2.7474,2.6326,2.535,2.4701,2.4448,2.4136,2.3624,2.2871,2.2855,2.3054,2.3486,2.3215,2.3444,2.4297,2.3363,2.2807,2.274,2.1657,2.1077,2.0993,2.0447,2.0093,1.9952,1.9422,1.9146,1.9119,1.8509,1.8255,1.8267,1.8147,1.803,1.7928,1.8045,1.8289,1.8607,1.851,1.8888,1.9616,2.6271,2.7152,2.789,2.8295,2.9399,3.036,3.0747,3.1052,3.1133,3.0828,3.0945,3.1064,3.1064,3.1376,3.1623,3.177,3.2179,3.2517,3.2713,3.3078,3.3342,3.3397,3.353,3.3605,3.3605,3.3605,3.353,3.3415,3.2315,3.1715,3.1569,3.0531,3.032,3.0861,3.2152,3.3468,3.47,3.5204,3.5581,3.5856,3.5809,3.5833,3.5898,3.5826,3.5825,3.5841,3.5765,3.5509,3.5243,3.5655,3.5791,3.5791,3.5803,3.5172,3.4282,3.3393,3.246,3.1506,3.0636,3.0244,3.0084,3.0004,2.9901,2.9756,2.9577,2.9486,2.9363,2.9084,2.896,2.8924,2.8894,2.8872,2.8896,2.8885,2.8962,2.8759,2.794,2.764,2.7106,2.6114,2.4979,2.4154,2.3817,2.327,2.2775,2.2317,2.2169,2.231,2.2805,2.2231,2.2355,2.3442,2.2323,2.1752,2.1823,2.0856,2.0245,1.9965,1.963,1.9291,1.8924,1.8643,1.8536,1.8494,1.782,1.7518,1.7523,1.7344,1.7246,1.7235,1.7727,1.7999,1.8133,1.8268,1.8525,1.8908,2.6977,2.785,2.8656,2.9004,3.01,3.1024,3.1355,3.1913,3.202,3.1206,3.1414,3.1621,3.164,3.2092,3.2453,3.2586,3.2952,3.3243,3.335,3.3541,3.3657,3.3657,3.3698,3.3726,3.3726,3.3793,3.3683,3.3451,3.2069,3.128,3.1016,2.9798,2.9746,3.08,3.268,3.4116,3.5173,3.5453,3.5685,3.5887,3.584,3.5827,3.5861,3.5794,3.5771,3.5743,3.5471,3.4966,3.4514,3.4972,3.5247,3.5387,3.5185,3.4598,3.3799,3.2947,3.198,3.1002,3.0326,2.9996,2.982,2.9668,2.9606,2.9486,2.9136,2.9003,2.8861,2.8482,2.8312,2.8226,2.8147,2.8164,2.8219,2.8247,2.8243,2.8119,2.7788,2.7368,2.6751,2.5829,2.4701,2.3728,2.3068,2.2295,2.1693,2.1349,2.15,2.1714,2.1953,2.1436,2.1553,2.2455,2.1393,2.0845,2.0968,2.0067,1.9474,1.916,1.8922,1.8536,1.8054,1.7929,1.7847,1.7793,1.7056,1.6758,1.6733,1.6472,1.6417,1.6578,1.7243,1.7578,1.7684,1.7899,1.7988,1.8056,2.8972,2.9592,3.0194,3.0546,3.0954,3.1374,3.1697,3.2056,3.2266,3.2162,3.2435,3.2681,3.2743,3.2745,3.2892,3.3184,3.3199,3.3306,3.3545,3.3766,3.3868,3.3868,3.4049,3.4148,3.4148,3.4374,3.3994,3.2973,3.2323,3.152,3.0553,2.9876,3.0227,3.1454,3.2434,3.3542,3.4706,3.5455,3.582,3.5882,3.5828,3.5805,3.5794,3.5721,3.571,3.5592,3.4668,3.4295,3.4084,3.3201,3.3465,3.4025,3.3161,3.2756,3.2433,3.1622,3.0757,3.0029,2.9945,2.9786,2.9542,2.9233,2.8968,2.8718,2.8371,2.8241,2.8188,2.8152,2.8088,2.8006,2.7936,2.7354,2.6996,2.7359,2.667,2.6114,2.6195,2.6318,2.6165,2.5511,2.4527,2.3588,2.2725,2.1662,2.0652,1.9781,2.0895,2.1485,2.1227,2.1261,2.1439,2.1787,2.1137,2.0795,2.082,1.9669,1.9066,1.9013,1.8456,1.8093,1.7891,1.7352,1.7028,1.6877,1.6267,1.6,1.6,1.5954,1.6206,1.6568,1.6343,1.6531,1.6845,1.6388,1.6367,1.6472,3.0168,3.0421,3.0723,3.1044,3.1376,3.1715,3.2056,3.2569,3.2892,3.2892,3.2827,3.2811,3.2842,3.3001,3.2985,3.2718,3.2862,3.2839,3.2545,3.3056,3.3406,3.3522,3.4124,3.4498,3.4609,3.4722,3.4562,3.4103,3.3364,3.2789,3.2363,3.1653,3.1986,3.3137,3.3642,3.443,3.5345,3.5702,3.586,3.5836,3.5778,3.546,3.5002,3.4855,3.4464,3.3959,3.3474,3.2931,3.2371,3.1873,3.2351,3.3088,3.2664,3.2135,3.161,3.1244,3.0461,2.9725,2.9725,2.9427,2.9078,2.8897,2.8634,2.8298,2.7982,2.7869,2.7783,2.7547,2.7224,2.6953,2.6838,2.6522,2.6249,2.6178,2.5951,2.5611,2.5064,2.4835,2.4523,2.391,2.2919,2.2204,2.1958,2.0872,2.012,1.9929,2.0029,2.031,2.0769,1.9852,1.9884,2.1121,1.9876,1.9347,1.9721,1.8883,1.824,1.7804,1.7556,1.7196,1.6701,1.6457,1.6056,1.5546,1.5274,1.4922,1.4488,1.4726,1.5056,1.5419,1.5569,1.5831,1.6119,1.5887,1.5877,1.5877,3.0938,3.1096,3.1344,3.1678,3.1933,3.2213,3.2536,3.2986,3.3245,3.3114,3.294,3.2802,3.2778,3.2756,3.2634,3.2241,3.2422,3.2388,3.1968,3.2484,3.2858,3.2993,3.385,3.4373,3.4519,3.4584,3.4478,3.4255,3.3396,3.2999,3.3032,3.2756,3.3224,3.4305,3.4498,3.5037,3.5796,3.5571,3.5454,3.5389,3.5012,3.4536,3.4018,3.3826,3.3371,3.2794,3.2404,3.1817,3.1183,3.0765,3.105,3.1547,3.1586,3.1332,3.0948,3.0593,2.9992,2.9397,2.9287,2.8979,2.864,2.8478,2.8161,2.7819,2.7472,2.7303,2.7098,2.6758,2.6384,2.6083,2.5961,2.5766,2.5529,2.5224,2.508,2.4744,2.3999,2.3646,2.3208,2.2622,2.1814,2.1268,2.11,2.0098,1.9474,1.9574,1.8927,1.8967,2.0012,1.8763,1.8642,1.9953,1.8741,1.8255,1.8682,1.8038,1.7462,1.6944,1.6758,1.6371,1.5827,1.5585,1.5069,1.435,1.435,1.4022,1.3528,1.3816,1.4119,1.4439,1.4681,1.4949,1.5171,1.4811,1.4708,1.4601,3.1296,3.1818,3.238,3.2713,3.2779,3.289,3.3247,3.3288,3.3117,3.2672,3.2779,3.2864,3.2716,3.2004,3.1651,3.1981,3.201,3.2095,3.2277,3.2305,3.2305,3.2314,3.3147,3.361,3.3629,3.3813,3.3513,3.273,3.1924,3.1587,3.1736,3.2531,3.3465,3.4492,3.4492,3.499,3.5733,3.4888,3.4521,3.4431,3.3363,3.2935,3.2897,3.2776,3.2699,3.2569,3.1586,3.1164,3.0935,2.9879,2.9301,2.9079,2.9341,2.9977,3.0405,2.934,2.9033,2.8915,2.8522,2.8402,2.8316,2.7915,2.7512,2.7125,2.6791,2.6349,2.5959,2.5758,2.5719,2.5666,2.5521,2.5137,2.4784,2.4638,2.3776,2.3084,2.2937,2.2863,2.26,2.1974,2.1705,2.1211,2.0207,1.9327,1.8625,1.8168,1.7505,1.7624,1.8746,1.8356,1.8093,1.814,1.7972,1.7918,1.7907,1.7174,1.6821,1.6793,1.621,1.5827,1.5672,1.4893,1.4142,1.3502,1.3502,1.3511,1.3511,1.3511,1.3711,1.3961,1.3639,1.3723,1.3863,1.2767,1.2335,1.2224,3.2328,3.2487,3.2663,3.2779,3.3001,3.3169,3.3291,3.3154,3.3,3.2889,3.2098,3.1526,3.1478,3.1736,3.1751,3.1356,3.1308,3.1137,3.0692,3.1185,3.1539,3.1687,3.2516,3.3051,3.3186,3.3884,3.4114,3.3853,3.4196,3.4402,3.45,3.4757,3.4764,3.4575,3.4575,3.4367,3.4017,3.3739,3.3522,3.3388,3.3037,3.2487,3.1869,3.1741,3.1309,3.0728,3.0271,2.9945,2.9682,2.9294,2.8941,2.8676,2.876,2.8955,2.9095,2.8755,2.8639,2.8547,2.8428,2.8197,2.788,2.748,2.7128,2.6757,2.6332,2.5995,2.5777,2.5719,2.5422,2.5024,2.4565,2.4127,2.3657,2.3135,2.2764,2.2397,2.195,2.187,2.1623,2.1019,2.0882,2.0481,1.9573,1.8869,1.8239,1.7656,1.6923,1.6972,1.8123,1.7382,1.7262,1.795,1.7129,1.6821,1.7157,1.6503,1.6153,1.6028,1.5391,1.4765,1.4201,1.3932,1.3442,1.2818,1.2818,1.2581,1.2197,1.2197,1.2107,1.1942,1.1854,1.1812,1.1773,1.1412,1.1352,1.1446,3.3136,3.3184,3.3211,3.331,3.35,3.3666,3.3763,3.3357,3.2982,3.2737,3.1703,3.089,3.0583,3.1071,3.1202,3.0679,3.0658,3.051,3.0148,3.0607,3.0937,3.1087,3.1934,3.2463,3.258,3.3168,3.3464,3.3508,3.4067,3.4375,3.4414,3.4724,3.4583,3.4071,3.4071,3.3708,3.3069,3.2739,3.2505,3.2307,3.1928,3.1403,3.0815,3.0692,3.0223,2.9626,2.9483,2.922,2.8906,2.886,2.8628,2.835,2.835,2.8259,2.8166,2.8272,2.829,2.8166,2.7872,2.7619,2.7319,2.6886,2.6505,2.6068,2.5554,2.5195,2.4981,2.4926,2.4471,2.396,2.3584,2.3209,2.277,2.2142,2.1978,2.1756,2.1155,2.1057,2.081,2.0105,2.0016,1.9682,1.8883,1.8251,1.7742,1.728,1.6617,1.6487,1.7102,1.6552,1.6515,1.7146,1.6122,1.5719,1.5997,1.5352,1.4951,1.4863,1.444,1.3863,1.313,1.313,1.2765,1.2158,1.2158,1.195,1.1591,1.131,1.1092,1.0962,1.0732,1.0716,1.0773,1.0449,1.0474,1.0625,3.3762,3.3829,3.3921,3.4197,3.4177,3.4216,3.4475,3.3736,3.2909,3.2222,3.1552,3.0856,3.013,3.0209,3.0235,3.007,3.0084,3.0234,3.0496,3.051,3.0531,3.0593,3.1374,3.182,3.182,3.1884,3.1966,3.2097,3.2148,3.2174,3.2192,3.2939,3.3212,3.3091,3.3091,3.2953,3.2641,3.1833,3.1424,3.1202,3.0273,2.9888,2.9874,2.9747,2.9482,2.9198,2.9188,2.8918,2.8566,2.8584,2.8337,2.8061,2.8029,2.7815,2.7615,2.7886,2.7957,2.7751,2.7003,2.6791,2.6641,2.6175,2.5687,2.5153,2.4584,2.4073,2.3696,2.3573,2.3076,2.2672,2.2626,2.242,2.2095,2.1626,2.1423,2.1131,2.0524,2.0436,2.0105,1.9226,1.9148,1.8857,1.812,1.7588,1.7178,1.6897,1.6415,1.6015,1.5786,1.5759,1.5766,1.5807,1.504,1.4617,1.4617,1.3863,1.348,1.342,1.342,1.307,1.2451,1.2451,1.212,1.1591,1.156,1.1529,1.1466,1.0737,1.0599,1.0771,1.0137,1.0196,1.0527,0.9799,0.9633,0.969,3.4056,3.4117,3.4213,3.4526,3.4033,3.3611,3.3672,3.2552,3.1655,3.1523,3.0923,3.0484,3.0381,3.0418,3.0458,3.0451,3.0429,3.0443,3.0579,3.0587,3.0575,3.0593,3.0859,3.0984,3.0972,3.1697,3.2363,3.2996,3.3,3.2987,3.295,3.3125,3.2772,3.1976,3.1976,3.1524,3.0744,3.0546,3.0386,3.0227,3.0008,2.9832,2.9747,2.9655,2.9443,2.9188,2.9082,2.8712,2.829,2.825,2.7996,2.7654,2.7361,2.7159,2.7147,2.7567,2.7398,2.7035,2.6841,2.6539,2.6157,2.5687,2.4867,2.4126,2.4009,2.3508,2.3068,2.2957,2.2785,2.2526,2.1969,2.1817,2.1578,2.1021,2.0799,2.0511,1.9888,1.9721,1.9371,1.8593,1.8513,1.8205,1.7479,1.7285,1.6819,1.5853,1.542,1.4993,1.4487,1.4194,1.4359,1.4951,1.4302,1.3876,1.3782,1.3601,1.323,1.2726,1.2726,1.2397,1.1802,1.1802,1.174,1.156,1.0989,1.0769,1.0706,1.0034,0.949,0.9108,0.9075,0.8959,0.8735,0.8699,0.8715,0.8742,3.381,3.4113,3.4355,3.4253,3.3847,3.3439,3.3213,3.2183,3.1455,3.1514,3.089,3.0458,3.0539,3.0548,3.056,3.0639,3.0575,3.0564,3.0639,3.0645,3.0656,3.0699,3.0728,3.0746,3.0748,3.1209,3.1673,3.211,3.2087,3.2052,3.2015,3.1924,3.1569,3.0993,3.0932,3.0571,3.0019,3.0019,2.9886,2.9672,2.9608,2.9484,2.9314,2.923,2.8997,2.8742,2.867,2.8355,2.7968,2.7883,2.7639,2.7289,2.7034,2.679,2.6623,2.6889,2.6757,2.6488,2.6264,2.5839,2.5265,2.45,2.387,2.3443,2.3399,2.2912,2.2457,2.2388,2.2123,2.1746,2.134,2.1242,2.0983,2.0321,1.9965,1.9598,1.9075,1.8775,1.8362,1.7845,1.7797,1.7534,1.6899,1.651,1.5971,1.5229,1.4655,1.4164,1.3799,1.3463,1.3551,1.4112,1.3507,1.3114,1.3039,1.2773,1.2436,1.2097,1.2097,1.1919,1.1591,1.1247,1.1083,1.1052,1.0281,0.9964,0.9901,0.9128,0.8647,0.8332,0.8159,0.8022,0.7983,0.8098,0.8192,0.8255,3.345,3.387,3.4177,3.3823,3.3565,3.3268,3.2795,3.2056,3.1555,3.1618,3.1014,3.06,3.061,3.061,3.0645,3.0706,3.0653,3.0639,3.0717,3.0726,3.0744,3.0807,3.0781,3.0778,3.0776,3.0721,3.068,3.0634,3.0574,3.0533,3.0517,3.0348,3.0259,3.0234,3.011,3.0004,2.9874,2.9822,2.9626,2.9372,2.9198,2.902,2.8854,2.8736,2.8478,2.8197,2.817,2.7954,2.7657,2.7539,2.7258,2.6953,2.6773,2.6437,2.6071,2.6016,2.5946,2.5803,2.5468,2.4918,2.4205,2.3252,2.2935,2.286,2.2777,2.231,2.1841,2.1708,2.1193,2.0725,2.0625,2.0511,2.0169,1.9481,1.9056,1.864,1.8123,1.7751,1.7429,1.713,1.6978,1.6736,1.6278,1.5507,1.4952,1.4728,1.4007,1.3507,1.3351,1.2994,1.2924,1.3208,1.2691,1.2413,1.2358,1.1864,1.1591,1.1591,1.156,1.1498,1.1365,1.0737,1.0383,1.0225,0.9442,0.9116,0.9052,0.8225,0.7963,0.8006,0.7491,0.7513,0.7807,0.7838,0.7919,0.803,3.3548,3.323,3.3094,3.3976,3.3005,3.2078,3.1988,3.1286,3.0766,3.0789,3.0683,3.062,3.0672,3.0677,3.0712,3.0778,3.0778,3.0773,3.0777,3.0774,3.0781,3.0801,3.0752,3.0714,3.0718,3.0656,3.0533,3.0364,3.0348,3.0281,3.019,3.0144,3.0073,2.9958,2.9945,2.9857,2.9719,2.9434,2.9283,2.9209,2.8906,2.876,2.8724,2.864,2.8428,2.8201,2.8079,2.7844,2.7554,2.7147,2.6938,2.6708,2.6086,2.576,2.5521,2.513,2.4739,2.4486,2.474,2.4076,2.3231,2.3047,2.2672,2.2287,2.217,2.1722,2.1118,2.0446,2.022,1.9952,1.9408,1.9148,1.8835,1.8326,1.8332,1.8042,1.7088,1.7119,1.707,1.6581,1.6017,1.5604,1.541,1.4746,1.4234,1.3918,1.3304,1.2856,1.2665,1.2119,1.1823,1.1903,1.2007,1.1983,1.1747,1.1654,1.1591,1.1591,1.1435,1.1045,1.0496,1.0212,0.9767,0.9186,0.8506,0.8188,0.8166,0.7573,0.7333,0.7391,0.7624,0.775,0.7825,0.7996,0.7965,0.7723,3.2577,3.2701,3.2788,3.2837,3.23,3.1695,3.1234,3.0879,3.065,3.065,3.0697,3.073,3.0744,3.0746,3.0776,3.0797,3.0774,3.0756,3.0741,3.0758,3.0753,3.075,3.0675,3.0606,3.0498,3.0446,3.0358,3.019,3.019,3.0157,3.0109,3.0041,2.9942,2.9836,2.9616,2.9474,2.9363,2.9071,2.8872,2.8754,2.8516,2.8394,2.8313,2.8156,2.8024,2.7858,2.7818,2.7535,2.7178,2.6922,2.6556,2.6138,2.5723,2.5441,2.5114,2.4589,2.4224,2.3921,2.3505,2.3017,2.2543,2.2221,2.1898,2.1664,2.1592,2.1031,2.0459,2.0067,1.9721,1.9331,1.891,1.8753,1.8484,1.7786,1.7531,1.7236,1.6622,1.6462,1.6259,1.5892,1.5536,1.5147,1.4688,1.3906,1.3394,1.3235,1.2551,1.2104,1.2011,1.1872,1.1816,1.1816,1.193,1.193,1.1816,1.1992,1.1811,1.1279,1.1174,1.066,0.9756,0.9259,0.8826,0.842,0.7697,0.7357,0.7279,0.7155,0.7106,0.7131,0.737,0.7538,0.7631,0.7761,0.7407,0.6865,3.1693,3.2069,3.2295,3.1835,3.1677,3.1394,3.0737,3.0672,3.0724,3.0724,3.0774,3.0795,3.0801,3.0781,3.0775,3.0788,3.0721,3.0695,3.0685,3.0652,3.0635,3.0675,3.0587,3.047,3.0306,3.0271,3.019,3.0052,3.0052,3.003,2.9977,2.9801,2.9697,2.9625,2.9246,2.906,2.8997,2.87,2.8491,2.8342,2.8156,2.8014,2.7911,2.773,2.7644,2.7587,2.7448,2.718,2.6839,2.659,2.6122,2.561,2.5406,2.5075,2.469,2.4183,2.3773,2.3326,2.2521,2.2212,2.1978,2.1482,2.118,2.0995,2.0945,2.0359,1.976,1.9593,1.9121,1.8655,1.8352,1.8259,1.7954,1.7181,1.6814,1.6531,1.6262,1.5889,1.5568,1.5371,1.4991,1.4519,1.3936,1.307,1.2558,1.2528,1.1957,1.1591,1.1591,1.1794,1.1829,1.1661,1.1732,1.1736,1.1638,1.1738,1.1411,1.0648,1.0613,1.0027,0.898,0.8368,0.7912,0.7591,0.7076,0.681,0.6706,0.6937,0.7053,0.7069,0.7216,0.7253,0.7211,0.7211,0.6668,0.5893,3.1632,3.1237,3.101,3.1763,3.1284,3.0762,3.0704,3.0758,3.0798,3.0798,3.0796,3.0801,3.08,3.0731,3.0702,3.072,3.0692,3.0665,3.0614,3.0487,3.0486,3.0601,3.0419,3.0323,3.03,3.0177,3.0044,2.9913,2.9913,2.9832,2.9626,2.9373,2.9212,2.914,2.8865,2.8736,2.8712,2.8376,2.8224,2.8183,2.7872,2.7745,2.7716,2.763,2.7602,2.7524,2.7037,2.6841,2.6674,2.5872,2.5559,2.5443,2.4989,2.4549,2.412,2.3888,2.3113,2.2333,2.2305,2.1884,2.1423,2.1253,2.0822,2.0397,2.0144,1.9669,1.9069,1.839,1.8104,1.7815,1.7224,1.6927,1.6592,1.6102,1.6248,1.6272,1.5822,1.5574,1.5371,1.5225,1.4163,1.329,1.2948,1.229,1.1833,1.1716,1.1622,1.1591,1.1591,1.1613,1.1307,1.0645,1.0926,1.0929,1.0606,1.0022,0.9677,0.9592,0.9493,0.8962,0.8073,0.7841,0.729,0.6523,0.6649,0.6722,0.6739,0.7058,0.7167,0.722,0.7399,0.7003,0.6279,0.6279,0.5777,0.4963,3.0991,3.0843,3.0776,3.1104,3.0934,3.0765,3.0765,3.0788,3.0798,3.0798,3.08,3.0787,3.0742,3.0726,3.0672,3.0644,3.0645,3.0582,3.0482,3.0395,3.0323,3.0296,3.0215,3.0131,3.0052,3.0011,2.9897,2.97,2.97,2.9579,2.9283,2.9198,2.9008,2.879,2.8504,2.8363,2.8311,2.8006,2.7883,2.7886,2.7742,2.7672,2.763,2.7617,2.7402,2.7085,2.6857,2.6454,2.5944,2.5559,2.5269,2.4974,2.4431,2.4126,2.3837,2.3084,2.2305,2.1626,2.1237,2.1202,2.118,2.0797,2.0434,2.0055,1.9618,1.8977,1.8417,1.805,1.7639,1.7207,1.6814,1.6655,1.6518,1.6248,1.6317,1.6197,1.5605,1.537,1.4962,1.4133,1.3411,1.2773,1.2228,1.1864,1.1654,1.1591,1.1591,1.1591,1.1591,1.1185,1.0573,0.9767,0.9447,0.9506,0.9992,0.9864,0.9507,0.8864,0.8903,0.8364,0.7377,0.7392,0.7168,0.6796,0.6944,0.667,0.6097,0.6451,0.6218,0.5657,0.5877,0.5738,0.5467,0.5467,0.496,0.4222,3.063,3.0482,3.0437,3.0691,3.0543,3.0479,3.0753,3.08,3.0799,3.0799,3.0784,3.0751,3.0706,3.0678,3.0625,3.0515,3.0511,3.0456,3.0315,3.0228,3.0151,3.0089,3.0059,2.9977,2.9861,2.9841,2.9691,2.9443,2.9443,2.9262,2.8941,2.8872,2.8688,2.8428,2.8156,2.8024,2.795,2.7786,2.7701,2.7701,2.7672,2.7567,2.7415,2.7353,2.7036,2.659,2.6437,2.5998,2.5408,2.5098,2.4779,2.441,2.3815,2.35,2.3194,2.2267,2.1684,2.1204,2.0573,2.0623,2.0684,2.0169,1.9734,1.9359,1.8963,1.8282,1.7722,1.765,1.7207,1.6825,1.6627,1.6581,1.6449,1.6134,1.6077,1.5865,1.5206,1.4815,1.4252,1.3321,1.2773,1.229,1.1778,1.1654,1.1591,1.1591,1.1591,1.1498,1.1279,1.0541,0.9767,0.8994,0.8355,0.8266,0.8744,0.8994,0.8765,0.8093,0.8202,0.7807,0.6992,0.7029,0.6845,0.6518,0.6659,0.6215,0.5411,0.5721,0.541,0.4809,0.4933,0.4846,0.4613,0.4613,0.4105,0.3404,3.0691,3.0118,2.9866,3.0645,3.0074,2.9805,3.0664,3.0794,3.08,3.08,3.0743,3.07,3.0703,3.0642,3.0511,3.0312,3.03,3.024,3.0115,2.9973,2.995,3.0095,2.9965,2.9872,2.9801,2.9664,2.9433,2.9104,2.9104,2.8929,2.8578,2.8329,2.8156,2.8088,2.7829,2.7701,2.7701,2.7701,2.7701,2.7701,2.7615,2.7369,2.6985,2.6857,2.6556,2.6124,2.567,2.5446,2.5253,2.4395,2.4021,2.3794,2.3179,2.2626,2.2091,2.1544,2.1302,2.1082,2.0523,2.0182,1.9863,1.9331,1.8738,1.8259,1.8108,1.7529,1.7011,1.7011,1.6797,1.6599,1.6599,1.6477,1.6163,1.5497,1.5381,1.5177,1.4588,1.3812,1.323,1.3009,1.229,1.1747,1.1622,1.1591,1.1591,1.1591,1.1591,1.1279,1.0516,0.9729,0.8962,0.8199,0.7874,0.7386,0.6708,0.7038,0.7178,0.7183,0.7183,0.7127,0.698,0.6777,0.6207,0.5406,0.5593,0.5298,0.4718,0.4914,0.5004,0.4963,0.4963,0.4494,0.3791,0.3791,0.3249,0.2511,3.0048,3.0205,3.0311,2.9959,3.0174,3.0478,3.0709,3.0723,3.0733,3.0721,3.0665,3.0583,3.0496,3.0472,3.0373,3.0171,3.0157,3.0082,2.9896,2.9761,2.9608,2.94,2.9598,2.957,2.9299,2.9264,2.9075,2.8748,2.8748,2.8578,2.8264,2.817,2.802,2.7829,2.7745,2.7672,2.763,2.763,2.76,2.7539,2.7243,2.7019,2.6824,2.6488,2.6089,2.5672,2.55,2.5005,2.4436,2.4015,2.3601,2.3135,2.2512,2.1921,2.1361,2.0746,2.0522,2.0257,1.9216,1.8874,1.8768,1.862,1.8352,1.8,1.7473,1.7179,1.6955,1.6768,1.6655,1.6428,1.5845,1.5739,1.5507,1.4854,1.4765,1.4529,1.3752,1.3321,1.2864,1.2228,1.1864,1.1654,1.1591,1.1591,1.1591,1.1591,1.1115,1.0256,0.8941,0.8651,0.8096,0.7162,0.7064,0.6835,0.6482,0.6589,0.6637,0.6625,0.679,0.6565,0.609,0.6187,0.5795,0.5107,0.5182,0.4762,0.406,0.413,0.3795,0.3251,0.3251,0.3095,0.2899,0.2899,0.2705,0.2511,3.0097,2.9902,2.9822,2.9997,2.9863,2.9957,3.0597,3.0414,3.0277,3.0545,3.0542,3.0472,3.034,3.0291,3.0203,3.0049,2.9837,2.965,2.9467,2.9326,2.9137,2.8918,2.9093,2.9104,2.8918,2.8888,2.8736,2.8402,2.8402,2.8232,2.794,2.794,2.7826,2.7674,2.7674,2.7537,2.7321,2.7321,2.7211,2.7036,2.674,2.6522,2.6315,2.6016,2.5486,2.4926,2.4847,2.4307,2.3623,2.3297,2.2793,2.2221,2.1803,2.1423,2.0995,2.0396,2.0156,1.985,1.8623,1.8217,1.8093,1.7836,1.7738,1.7529,1.7039,1.6881,1.6786,1.6627,1.6343,1.5989,1.5497,1.5206,1.4824,1.4142,1.4022,1.3752,1.2934,1.2658,1.2343,1.1864,1.1685,1.1591,1.1591,1.1341,1.1052,1.0793,1.0034,0.9198,0.8264,0.7809,0.7326,0.6708,0.6609,0.6515,0.6387,0.6387,0.6453,0.6522,0.636,0.6103,0.5695,0.5487,0.5041,0.4394,0.4394,0.3994,0.3288,0.3288,0.2978,0.2511,0.2511,0.2511,0.2511,0.2511,0.2511,0.2511,3.0317,2.9295,2.8786,3.0307,2.9314,2.886,3.0442,3.0003,2.9711,3.0316,3.0384,3.0309,3.0182,3.0109,3.0015,2.9855,2.9416,2.9082,2.8895,2.876,2.8652,2.8554,2.8572,2.8541,2.8516,2.8541,2.8389,2.8061,2.8061,2.794,2.7686,2.7686,2.7627,2.7539,2.7539,2.7274,2.6856,2.6856,2.6674,2.6351,2.6194,2.5926,2.5591,2.5384,2.4764,2.4,2.3858,2.3435,2.2868,2.236,2.1756,2.1204,2.118,2.1057,2.0797,2.0245,1.9953,1.9593,1.8474,1.8011,1.7678,1.7123,1.6955,1.6927,1.6807,1.6637,1.6513,1.6485,1.5874,1.5294,1.5235,1.4765,1.4142,1.3329,1.3208,1.2934,1.2182,1.1934,1.1802,1.1771,1.1622,1.1498,1.1498,1.0832,1.0129,0.9454,0.8651,0.8172,0.8102,0.7195,0.6708,0.6675,0.6482,0.6424,0.644,0.6341,0.6417,0.6573,0.5959,0.561,0.5492,0.4737,0.4031,0.3411,0.3411,0.3033,0.247,0.2472,0.2433,0.2433,0.2433,0.2433,0.2433,0.2433,0.2472,0.247,2.7832,2.8491,2.9048,2.8742,2.9444,3.0188,3.0564,3.0361,3.0213,3.0309,3.0222,3.0109,2.9984,2.9961,2.9775,2.9377,2.9031,2.876,2.8664,2.864,2.8491,2.8219,2.8206,2.8116,2.7897,2.8102,2.8034,2.7719,2.7719,2.7659,2.7539,2.7539,2.7369,2.705,2.705,2.679,2.6351,2.6351,2.6281,2.6123,2.5799,2.5357,2.4879,2.4507,2.3985,2.337,2.3238,2.2868,2.2337,2.166,2.1313,2.1169,2.1023,2.0624,2.0105,1.9448,1.891,1.8325,1.7518,1.7224,1.7123,1.6758,1.6684,1.6684,1.6655,1.6208,1.5796,1.5671,1.5147,1.4529,1.4013,1.3722,1.3329,1.2636,1.2428,1.2243,1.1903,1.1833,1.1771,1.1654,1.1122,1.0737,1.0737,1.0129,0.9454,0.878,0.8393,0.7912,0.7204,0.6872,0.6642,0.6482,0.6416,0.6481,0.6619,0.5965,0.5638,0.5672,0.5534,0.4956,0.3966,0.3782,0.3341,0.2724,0.2567,0.2379,0.2235,0.2081,0.2043,0.2043,0.2043,0.2043,0.2043,0.2043,0.212,0.2275,2.8518,2.8935,2.9214,2.9128,2.9477,2.9938,3.0356,2.9975,2.9756,3.0072,3.0044,2.9926,2.969,2.9608,2.9358,2.886,2.8591,2.842,2.8326,2.821,2.8088,2.7926,2.7886,2.7786,2.7659,2.7574,2.7452,2.7321,2.7289,2.7164,2.6971,2.6971,2.684,2.6573,2.6573,2.6282,2.5817,2.5817,2.5652,2.5349,2.491,2.4556,2.4251,2.3764,2.3238,2.277,2.2672,2.2258,2.1708,2.1313,2.1144,2.0985,2.0599,2.022,1.9747,1.883,1.8294,1.7859,1.7168,1.6899,1.6768,1.6627,1.6314,1.6017,1.6017,1.5748,1.5391,1.505,1.4469,1.3902,1.348,1.3086,1.2666,1.2143,1.1988,1.1903,1.1716,1.1716,1.156,1.1115,1.0737,1.0263,0.9614,0.923,0.8748,0.8069,0.7749,0.7396,0.6913,0.6768,0.6605,0.642,0.6173,0.6085,0.6089,0.5326,0.4826,0.4488,0.4488,0.4152,0.3475,0.3059,0.2673,0.2353,0.2158,0.2042,0.2042,0.1925,0.1887,0.1887,0.1887,0.1887,0.1887,0.1887,0.1964,0.2081,2.9612,2.934,2.9069,2.9826,2.9493,2.9359,3.0061,2.9509,2.92,2.9767,2.9839,2.9699,2.9353,2.9137,2.8849,2.8389,2.821,2.8069,2.7954,2.7792,2.7701,2.7686,2.7552,2.7494,2.7478,2.7018,2.6839,2.697,2.6839,2.6623,2.6351,2.6351,2.6246,2.6053,2.6053,2.5762,2.5269,2.5269,2.4958,2.4451,2.4063,2.3794,2.3565,2.3069,2.2575,2.2142,2.2077,2.1688,2.118,2.1169,2.0985,2.0637,2.0131,1.976,1.9319,1.8336,1.7913,1.7623,1.7095,1.6701,1.6418,1.64,1.5816,1.5206,1.5089,1.5089,1.4932,1.444,1.3782,1.3268,1.3147,1.2636,1.212,1.1833,1.1771,1.1677,1.1466,1.1404,1.1146,1.0421,1.0225,0.9678,0.8458,0.8328,0.809,0.7541,0.7155,0.6941,0.6943,0.669,0.6462,0.6275,0.5776,0.5428,0.5294,0.4662,0.4075,0.3533,0.3383,0.3307,0.3271,0.2525,0.2196,0.2157,0.1925,0.1848,0.1848,0.1808,0.1807,0.1807,0.1807,0.1807,0.1808,0.1848,0.1808,0.1808,2.7685,2.7872,2.8057,2.8861,2.9516,2.9982,3.0096,2.9916,2.9729,2.965,2.9542,2.9334,2.9008,2.8591,2.8316,2.8224,2.794,2.7757,2.7745,2.7716,2.7672,2.7632,2.7272,2.705,2.7002,2.6539,2.6471,2.6824,2.6471,2.6246,2.6141,2.6141,2.5908,2.5519,2.5519,2.5211,2.471,2.471,2.4415,2.3985,2.3921,2.3348,2.2498,2.2429,2.2025,2.1506,2.152,2.1375,2.1169,2.0999,2.0574,2.008,1.9901,1.9135,1.8282,1.8007,1.7529,1.7039,1.674,1.6208,1.5709,1.5584,1.5089,1.4469,1.3893,1.3773,1.3713,1.3653,1.2995,1.2451,1.2451,1.2112,1.1833,1.1809,1.1716,1.1404,1.0737,1.0643,1.0383,0.9709,0.9134,0.8458,0.7717,0.7619,0.7602,0.7493,0.7294,0.7155,0.7144,0.6328,0.5834,0.581,0.506,0.4686,0.4805,0.4008,0.3688,0.3736,0.3002,0.2536,0.2379,0.2271,0.2119,0.1925,0.1729,0.165,0.1611,0.1454,0.1375,0.1375,0.1375,0.1375,0.1415,0.1572,0.1533,0.1415,2.7904,2.8205,2.8448,2.918,2.9626,2.9872,2.9872,2.9735,2.9561,2.9398,2.9225,2.8986,2.8652,2.8308,2.8045,2.7926,2.7669,2.7539,2.7539,2.7291,2.7116,2.7101,2.674,2.6539,2.6505,2.5999,2.5835,2.6033,2.5835,2.5668,2.5478,2.5329,2.5192,2.5052,2.4704,2.44,2.412,2.3837,2.358,2.3319,2.3054,2.2686,2.2203,2.1921,2.1612,2.1399,2.1326,2.097,2.051,2.0435,1.9965,1.9357,1.8977,1.8525,1.8011,1.7529,1.7151,1.6768,1.6208,1.5767,1.54,1.5001,1.441,1.3872,1.3571,1.3147,1.282,1.282,1.2544,1.2243,1.2058,1.1895,1.1646,1.1146,1.116,1.0943,1.0224,1.0199,1.0031,0.9355,0.868,0.8176,0.7874,0.784,0.7775,0.7669,0.7499,0.7109,0.6576,0.6125,0.5626,0.5045,0.444,0.4084,0.4035,0.3291,0.2985,0.3054,0.2586,0.2275,0.2196,0.208,0.1924,0.1729,0.1533,0.1415,0.1415,0.1335,0.1296,0.1296,0.1296,0.1296,0.1296,0.1415,0.106,0.0588]}]]